     2              OBSERVATION DATA    GPS                 RINEX VERSION / TYPE
teqc 1997Jul24 19970902 21:02:23UTC                         PGM / RUN BY / DATE
                                                            COMMENT
BIT 2 OF LLI FLAGS DATA COLLECTED UNDER A-S CONDITION       COMMENT
BIT 2 OF LLI FLAGS DATA COLLECTED UNDER A-S CONDITION       COMMENT
Original Marker Name: 55445.BLAC                            COMMENT
Campaign Name: Salt. Tr. Crust. Monit. May-Jun 1986         COMMENT
4-Character Station Name: BLAC                              COMMENT
6-Character Antenna Code: TI4100                            COMMENT
Vertical Measurement Point: PAE                             COMMENT
Vertical Offset to Rinex Ref. Point: 0.0000                 COMMENT
Radial Measurement Point: RRP                               COMMENT
Radial Offset to Rinex Ref. Point: 0.0000                   COMMENT
Antenna Height from Field Measurement: 1.4190 m             COMMENT
Original XYZ: -2306334.8942 -4788306.9647 3516042.2742      COMMENT
New XYZ position is based on association with SCEC monument COMMENT
E1D0M3T8+0011. Position of that monument is believed to be  COMMENT
valid to within 1 m horizontally; vertical accuracy         COMMENT
should be no worse than 3-times this value.                 COMMENT
                                                            COMMENT
Revised Rinex header created by UCSD GPS archive for        COMMENT
GSAC on 12-Apr-1999 (1999:102) 13:01:45 GMT                 COMMENT
For assistance contact dagnew@ucsd.edu or hjohnson@ucsd.edu COMMENT
                                                            COMMENT
BLACK BUTTE NCMN 1982                                       MARKER NAME
05 NATIONAL GEODETIC SURVEY                                 OBSERVER / AGENCY
UT-28 TI 4100 1.0                                           REC # / TYPE / VERS
4053 TI 4100                                                ANT # / TYPE
 -2306307.0000 -4787914.0000  3515736.0000                  APPROX POSITION XYZ
        1.4190        0.0000        0.0000                  ANTENNA: DELTA H/E/N
     1     1     0                                          WAVELENGTH FACT L1/2
     4    P1    P2    L1    L2                              # / TYPES OF OBSERV
     6                                                      INTERVAL
  1986     6    13     2    58   11.000000                  TIME OF FIRST OBS
  1986     6    13     4    33   47.000000                  TIME OF LAST OBS
     0                                                      # OF SATELLITES
                                                            END OF HEADER
 86  6 13  2 58 11.0800000  0  4G12G13G 9G11
  21137387.119    21137390.640     2967668.299 9  -5725515.783 9
  20737762.127    20737764.788    27362033.555 9 -36616581.788 9
  21227418.060    21227420.919    65817243.049 9-105383573.539 8
  24238243.932    24238248.191    93476138.635 8 -84441001.377 8
 86  6 13  2 58 17.0800000  0  4G12G13G 9G11
  21135732.898    21135736.211     2958975.325 9  -5732289.534 9
  20738593.977    20738597.011    27366403.067 9 -36613176.970 9
  21230679.074    21230681.214    65834380.813 9-105370219.438 8
  24241306.586    24241311.703    93492235.511 9 -84428458.368 9
 86  6 13  2 58 23.0800000  0  4G12G13G 9G11
  21134083.092    21134086.410     2950305.119 9  -5739045.528 9
  20739427.574    20739430.503    27370783.678 9 -36609763.509 8
  21233944.396    21233946.851    65851538.410 9-105356849.886 8
  24244369.839    24244373.870    93508330.300 9 -84415916.973 9
 86  6 13  2 58 29.0800000  0  4G12G13G 9G11
  21132437.807    21132440.984     2941657.759 9  -5745783.730 9
  20740262.838    20740266.129    27375175.457 9 -36606341.349 9
  21237212.838    21237216.126    65868715.861 8-105343464.871 8
  24247431.735    24247435.665    93524422.942 8 -84403377.257 9
 86  6 13  2 58 35.0800000  0  4G12G13G 9G11
  21130796.112    21130800.006     2933033.189 9  -5752504.169 9
  20741101.749    20741103.841    27379578.359 9 -36602910.504 9
  21240485.820    21240488.162    65885913.037 9-105330064.488 8
  24250493.243    24250498.262    93540513.441 8 -84390839.206 8
 86  6 13  2 58 41.0800000  0  4G12G13G 9G11
  21129159.558    21129162.442     2924431.479 9  -5759206.808 9
  20741941.539    20741944.558    27383992.344 9 -36599471.043 9
  21243762.464    21243764.611    65903130.045 9-105316648.623 9
  24253556.056    24253559.485    93556601.922 8 -84378302.749 9
 86  6 13  2 58 47.0800000  0  4G12G13G 9G11
  21127527.087    21127530.035     2915852.638 9  -5765891.604 9
  20742782.707    20742786.873    27388417.424 9 -36596022.938 8
  21247041.840    21247044.532    65920366.789 8-105303217.404 8
  24256615.432    24256620.879    93572688.246 8 -84365767.957 9
 86  6 13  2 58 53.0800000  0  4G12G13G 9G11
  21125897.592    21125902.207     2907296.609 9  -5772558.648 9
  20743627.570    20743630.192    27392853.499 9 -36592566.245 9
  21250325.868    21250328.558    65937623.134 9-105289770.905 8
  24259675.267    24259680.900    93588772.431 8 -84353234.835 9
 86  6 13  2 58 59.0800000  0  4G12G13G 9G11
  21124274.314    21124278.120     2898763.468 9  -5779207.853 9
  20744473.980    20744476.271    27397300.567 9 -36589100.998 9
  21253613.124    21253616.229    65954899.238 9-105276309.008 8
  24262737.090    24262741.321    93604854.452 8 -84340703.394 8
 86  6 13  2 59  5.0800000  0  4G12G13G 9G11
  21122654.242    21122658.242     2890253.223 9  -5785839.204 9
  20745322.368    20745324.777    27401758.665 9 -36585627.166 9
  21256905.204    21256907.613    65972195.043 9-105262831.771 8
  24265795.823    24265801.370    93620934.380 8 -84328173.603 9
 86  6 13  2 59 11.0800000  0  4G12G13G 9G11
  21121040.104    21121042.685     2881765.904 9  -5792452.694 9
  20746172.219    20746174.509    27406227.855 9 -36582144.674 9
  21260199.064    21260202.130    65989510.449 9-105249339.240 8
  24268853.996    24268861.018    93637012.142 7 -84315645.477 8
 86  6 13  2 59 17.0800000  0  4G12G13G 9G11
  21119428.614    21119431.734     2873301.412 9  -5799048.409 9
  20747024.716    20747028.008    27410707.997 9 -36578653.662 8
  21263499.211    21263500.265    66006845.440 9-105235831.465 8
  24271915.992    24271919.410    93653087.761 8 -84303119.040 9
 86  6 13  2 59 23.0800000  0  4G12G13G 9G11
  21117822.630    21117825.930     2864859.903 9  -5805626.206 9
  20747878.860    20747882.361    27415199.120 9 -36575154.082 9
  21266800.766    21266803.710    66024200.024 9-105222308.415 8
  24274974.225    24274979.200    93669161.200 7 -84290594.281 8
 86  6 13  2 59 29.0800000  0  4G12G13G 9G11
  21116220.837    21116224.336     2856441.335 9  -5812186.120 8
  20748736.794    20748738.854    27419701.194 9 -36571645.970 9
  21270107.654    21270109.709    66041574.171 9-105208770.115 8
  24278032.358    24278036.762    93685232.451 7 -84278071.226 9
 86  6 13  2 59 35.0800000  0  4G12G13G 9G11
  21114622.629    21114626.852     2848045.766 9  -5818728.129 9
  20749594.822    20749598.228    27424214.207 9 -36568129.336 9
  21273417.484    21273420.157    66058967.880 9-105195216.579 8
  24281086.828    24281094.920    93701301.548 7 -84265549.877 9
 86  6 13  2 59 41.0800000  0  4G12G13G 9G11
  21113030.276    21113033.095     2839673.077 9  -5825252.296 8
  20750455.925    20750458.476    27428738.055 9 -36564604.259 8
  21276730.681    21276732.907    66076381.155 9-105181647.785 9
  24284146.530    24284152.393    93717368.457 7 -84253030.235 9
 86  6 13  2 59 47.0800000  0  4G12G13G 9G11
  21111441.377    21111443.902     2831323.330 9  -5831758.600 9
  20751318.948    20751321.627    27433272.816 9 -36561070.679 8
  21280048.181    21280050.372    66093813.788 9-105168063.934 8
  24287202.700    24287209.238    93733433.013 6 -84240512.405 8
 86  6 13  2 59 53.0800000  0  4G12G13G 9G11
  21109856.555    21109858.787     2822996.571 9  -5838246.974 9
  20752183.281    20752186.511    27437818.341 9 -36557528.721 8
  21283369.354    21283372.337    66111265.821 9-105154464.957 9
  24290260.908    24290264.909    93749495.358 7 -84227996.305 8
 86  6 13  2 59 59.0800000  0  4G12G13G 9G11
  21108276.348    21108280.055     2814692.766 9  -5844717.475 9
  20753050.422    20753053.685    27442374.674 9 -36553978.324 9
  21286693.152    21286695.326    66128737.250 9-105140850.853 9
  24293316.434    24293322.869    93765555.371 6 -84215482.011 9
 86  6 13  3  0  5.0800000  0  4G12G13G 9G11
  21106701.251    21106702.966     2806411.964 9  -5851170.040 8
  20753919.963    20753923.064    27446941.872 9 -36550419.471 9
  21290022.043    21290025.107    66146228.139 9-105127221.589 8
  24296370.971    24296377.135    93781613.152 6 -84202969.472 9
 86  6 13  3  0 11.0800000  0  4G12G13G 9G11
  21105129.321    21105132.576     2798154.201 9  -5857604.668 9
  20754791.315    20754793.956    27451519.892 9 -36546852.183 9
  21293354.548    21293356.169    66163738.435 9-105113577.203 8
  24299426.318    24299432.347    93797668.744 5 -84190458.631 7
 86  6 13  3  0 17.0800000  0  4G12G13G 9G11
  21103562.880    21103564.039     2789919.608 9  -5864021.227 8
  20755664.152    20755667.321    27456108.721 9 -36543276.470 8
  21296690.180    21296692.516    66181268.146 8-105099917.700 8
  24302481.529    24302487.360    93813722.148 6 -84177949.528 8
 86  6 13  3  0 23.0800000  0  4G12G13G 9G11
  21101999.824    21102002.835     2781708.051 9  -5870419.837 8
  20756539.367    20756543.330    27460708.402 9 -36539692.308 8
  21300028.939    21300031.614    66198817.254 9-105086243.067 8
  24305536.840    24305542.232    93829773.247 6 -84165442.185 8
 86  6 13  3  0 29.0800000  0  4G12G13G 9G11
  21100442.225    21100445.059     2773519.694 9  -5876800.379 9
  20757417.391    20757419.477    27465318.970 9 -36536099.650 8
  21303372.155    21303375.468    66216385.751 8-105072553.337 8
  24308588.733    24308596.356    93845822.139 6 -84152936.577 9
 86  6 13  3  0 35.0800000  0  4G12G13G 9G11
  21098888.219    21098890.522     2765354.453 9  -5883162.901 9
  20758296.683    20758299.310    27469940.377 9 -36532498.555 9
  21306719.825    21306722.296    66233973.621 9-105058848.502 8
  24311643.560    24311650.024    93861868.796 6 -84140432.694 9
 86  6 13  3  0 41.0800000  0  4G12G13G 9G11
  21097338.992    21097342.075     2757212.366 9  -5889507.389 8
  20759177.508    20759180.886    27474572.600 9 -36528889.037 8
  21310070.180    21310071.321    66251580.765 8-105045128.653 9
  24314695.569    24314703.206    93877913.208 6 -84127930.569 8
 86  6 13  3  0 47.0800000  0  4G12G13G 9G11
  21095794.122    21095796.654     2749093.480 9  -5895833.788 8
  20760061.247    20760064.643    27479215.579 9 -36525271.135 8
  21313425.060    21313427.641    66269207.215 8-105031393.761 8
  24317749.010    24317756.130    93893955.415 5 -84115430.168 8
 86  6 13  3  0 53.0800000  0  4G12G13G 9G11
  21094252.964    21094256.163     2740997.847 9  -5902142.076 9
  20760946.880    20760949.674    27483869.307 9 -36521644.853 9
  21316782.329    21316785.413    66286853.035 9-105017643.793 8
  24320802.849    24320807.106    93909995.370 6 -84102931.518 8
 86  6 13  3  0 59.0800000  0  4G12G13G 9G11
  21092716.422    21092720.107     2732925.438 9  -5908432.260 9
  20761834.438    20761837.893    27488533.829 9 -36518010.155 9
  21320142.894    21320146.309    66304518.158 9-105003878.773 8
  24323854.756    24323859.657    93926033.092 6 -84090434.602 8
 86  6 13  3  1  5.0800000  0  4G12G13G 9G11
  21091185.404    21091188.680     2724876.195 9  -5914704.399 8
  20762724.879    20762727.552    27493208.991 9 -36514367.172 8
  21323509.063    21323512.919    66322202.504 9-104990098.753 9
  24326906.178    24326910.780    93942068.474 6 -84077939.511 7
 86  6 13  3  1 11.0800000  0  4G12G13G 9G11
  21089657.182    21089661.217     2716850.267 9  -5920958.362 8
  20763615.810    20763619.062    27497894.886 9 -36510715.828 8
  21326878.001    21326880.463    66339906.068 9-104976303.771 9
  24329957.569    24329961.498    93958101.601 8 -84065446.162 7
 86  6 13  3  1 17.0800000  0  4G12G13G 9G11
  21088134.863    21088139.042     2708847.669 9  -5927194.151 9
  20764510.020    20764512.902    27502591.449 9 -36507056.170 9
  21330250.632    21330253.553    66357628.784 9-104962493.882 8
  24333006.196    24333012.476    93974132.449 6 -84052954.599 7
 86  6 13  3  1 23.0800000  0  4G12G13G 9G11
  21086616.165    21086620.014     2700868.315 9  -5933411.833 9
  20765405.624    20765408.637    27507298.715 9 -36503388.163 8
  21333626.388    21333629.021    66375370.606 9-104948669.081 9
  24336057.532    24336062.651    93990160.979 7 -84040464.833 7
 86  6 13  3  1 29.0800000  0  4G12G13G 9G11
  21085102.791    21085106.488     2692912.200 9  -5939611.399 9
  20766303.129    20766306.911    27512016.673 9 -36499711.839 8
  21337006.595    21337009.800    66393131.619 9-104934829.347 8
  24339107.308    24339112.541    94006187.212 7 -84027976.873 8
 86  6 13  3  1 35.0800000  0  4G12G13G 9G11
  21083593.858    21083597.193     2684979.398 9  -5945792.811 9
  20767203.022    20767206.527    27516745.217 9 -36496027.257 9
  21340389.250    21340392.538    66410911.727 9-104920974.709 8
  24342156.810    24342161.628    94022211.112 7 -84015490.721 7
 86  6 13  3  1 41.0800000  0  4G12G13G 9G11
  21082087.787    21082092.294     2677069.887 9  -5951956.062 9
  20768104.485    20768108.467    27521484.322 9 -36492334.448 8
  21343776.412    21343779.956    66428710.920 9-104907105.213 8
  24345205.267    24345210.347    94038232.610 6 -84003006.458 8
 86  6 13  3  1 47.0800000  0  4G12G13G 9G11
  21080587.117    21080590.672     2669183.713 9  -5958101.134 9
  20769008.487    20769011.994    27526234.009 9 -36488633.394 8
  21347167.301    21347170.881    66446529.124 9-104893220.899 8
  24348253.873    24348258.947    94054251.740 8 -83990524.039 8
 86  6 13  3  1 53.0800000  0  4G12G13G 9G11
  21079091.092    21079094.503     2661320.796 9  -5964228.083 9
  20769915.329    20769917.776    27530994.194 9 -36484924.165 9
  21350562.002    21350563.887    66464366.313 9-104879321.802 8
  24351302.488    24351307.749    94070268.543 7 -83978043.424 8
 86  6 13  3  1 59.0800000  0  4G12G13G 9G11
  21077598.800    21077601.834     2653481.148 9  -5970336.898 9
  20770822.311    20770825.676    27535764.913 9 -36481206.719 9
  21353959.434    21353962.736    66482222.467 8-104865407.923 9
  24354349.774    24354354.521    94086282.949 7 -83965564.664 8
 86  6 13  3  2  5.0800000  0  4G12G13G 9G11
  21076111.110    21076115.166     2645664.781 9  -5976427.577 9
  20771732.662    20771735.527    27540546.242 9 -36477481.003 9
  21357361.541    21357365.042    66500097.561 9-104851479.276 8
  24357395.372    24357401.262    94102295.001 8 -83953087.748 7
 86  6 13  3  2 11.0800000  0  4G12G13G 9G11
  21074628.185    21074632.543     2637871.785 9  -5982500.040 9
  20772644.525    20772647.559    27545338.094 9 -36473747.097 9
  21360766.568    21360769.454    66517991.707 9-104837535.786 9
  24360443.329    24360447.116    94118304.671 8 -83940612.689 8
 86  6 13  3  2 17.0800000  0  4G12G13G 9G11
  21073149.187    21073153.488     2630102.182 9  -5988554.273 9
  20773557.976    20773561.599    27550140.418 9 -36470005.020 9
  21364175.132    21364177.913    66535904.765 9-104823577.572 8
  24363488.298    24363492.485    94134311.963 7 -83928139.483 8
 86  6 13  3  2 23.0800000  0  4G12G13G 9G11
  21071674.926    21071679.540     2622356.034 9  -5994590.239 9
  20774473.469    20774477.694    27554953.289 9 -36466254.742 9
  21367587.426    21367589.682    66553836.751 9-104809604.588 9
  24366534.666    24366540.256    94150316.877 9 -83915668.140 8
 86  6 13  3  2 29.0800000  0  4G12G13G 9G11
  21070206.009    21070210.208     2614633.349 9  -6000607.913 9
  20775391.861    20775395.392    27559776.701 9 -36462496.235 8
  21371003.265    21371006.482    66571787.647 9-104795616.885 9
  24369579.519    24369583.364    94166319.452 8 -83903198.586 7
 86  6 13  3  2 35.0800000  0  4G12G13G 9G11
  21068741.163    21068745.011     2606934.139 9  -6006607.293 9
  20776311.387    20776314.534    27564610.626 9 -36458729.542 9
  21374421.795    21374425.889    66589757.450 9-104781614.445 8
  24372623.885    24372629.505    94182319.674 7 -83890730.884 7
 86  6 13  3  2 41.0800000  0  4G12G13G 9G11
  21067280.238    21067283.657     2599258.491 9  -6012588.321 8
  20777233.756    20777236.590    27569455.064 9 -36454954.661 8
  21377846.000    21377849.233    66607746.170 9-104767597.272 8
  24375669.083    24375673.530    94198317.545 8 -83878265.023 8
 86  6 13  3  2 47.0800000  0  4G12G13G 9G11
  21065823.926    21065827.447     2591606.347 9  -6018551.038 8
  20778157.117    20778160.984    27574309.969 9 -36451171.617 9
  21381272.766    21381275.031    66625753.798 9-104753565.359 8
  24378712.404    24378718.526    94214313.052 9 -83865800.997 7
 86  6 13  3  2 53.0800000  0  4G12G13G 9G11
  21064371.744    21064376.002     2583977.704 9  -6024495.415 9
  20779082.697    20779086.006    27579175.349 8 -36447380.409 9
  21384702.851    21384706.277    66643780.251 9-104739518.777 8
  24381754.824    24381761.403    94230306.213 8 -83853338.804 7
 86  6 13  3  2 59.0800000  0  4G12G13G 9G11
  21062924.928    21062929.157     2576372.581 9  -6030421.497 9
  20780010.921    20780014.652    27584051.187 9 -36443581.064 8
  21388136.620    21388139.736    66661825.520 9-104725457.528 8
  24384798.933    24384802.763    94246297.004 8 -83840878.452 8
 86  6 13  3  3  5.0800000  0  4G12G13G 9G11
  21061482.419    21061486.275     2568790.985 9  -6036329.231 9
  20780940.512    20780943.964    27588937.417 9 -36439773.611 9
  21391574.199    21391576.683    66679889.611 9-104711381.608 9
  24387842.013    24387846.586    94262285.351 9 -83828420.008 8
 86  6 13  3  3 11.0800000  0  4G12G13G 9G11
  21060044.932    21060047.924     2561232.929 9  -6042218.620 9
  20781871.938    20781876.387    27593834.089 9 -36435958.024 8
  21395016.039    21395018.337    66697972.450 9-104697291.095 9
  24390884.089    24390888.234    94278271.286 8 -83815963.433 7
 86  6 13  3  3 17.0800000  0  4G12G13G 9G11
  21058611.138    21058614.222     2553698.451 9  -6048089.648 9
  20782806.700    20782810.153    27598741.244 9 -36432134.266 9
  21398459.821    21398463.443    66716073.989 9-104683186.009 8
  24393924.464    24393929.938    94294254.762 8 -83803508.782 7
 86  6 13  3  3 23.0800000  0  4G12G13G 9G11
  21057182.092    21057185.698     2546187.458 9  -6053942.365 8
  20783742.583    20783745.803    27603658.753 9 -36428302.437 8
  21401908.101    21401910.906    66734194.166 9-104669066.389 9
  24396966.397    24396970.783    94310235.726 9 -83791056.106 8
 86  6 13  3  3 29.0800000  0  4G12G13G 9G11
  21055756.683    21055759.895     2538699.970 9  -6059776.762 9
  20784679.785    20784683.369    27608586.546 8 -36424462.604 9
  21405360.949    21405363.669    66752332.971 9-104654932.258 8
  24400007.000    24400011.203    94326214.200 9 -83778605.344 7
 86  6 13  3  3 35.0800000  0  4G12G13G 9G11
  21054336.295    21054339.687     2531236.039 9  -6065592.821 8
  20785620.059    20785623.530    27613524.603 9 -36420614.770 8
  21408814.754    21408818.080    66770490.415 9-104640783.605 8
  24403047.160    24403052.048    94342190.187 9 -83766156.533 8
 86  6 13  3  3 41.0800000  0  3G13G 9G11
  20786561.493    20786563.020    27618473.007 9 -36416758.871 8
  21412274.567    21412277.121    66788666.514 8-104626620.421 8
  24406086.975    24406090.664    94358163.695 9 -83753709.648 8
 86  6 13  3  3 47.0800000  0  3G13G 9G11
  20787505.181    20787508.210    27623431.748 9 -36412894.926 8
  21415736.579    21415739.096    66806861.091 9-104612442.829 9
  24409125.863    24409130.767    94374134.729 9 -83741264.685 9
 86  6 13  3  3 53.0800000  0  3G13G 9G11
  20788449.963    20788454.172    27628400.782 9 -36409022.953 9
  21419202.070    21419204.929    66825074.326 9-104598250.713 9
  24412165.392    24412169.035    94390103.317 9 -83728821.634 8
 86  6 13  3  3 59.0800000  0  3G13G 9G11
  20789397.763    20789401.240    27633380.094 9 -36405142.966 8
  21422671.825    21422675.032    66843306.081 9-104584044.146 9
  24415203.835    24415207.134    94406069.421 9 -83716380.522 8
 86  6 13  3  4  5.0800000  0  3G13G 9G11
  20790347.460    20790351.035    27638369.624 8 -36401255.033 9
  21426145.067    21426147.501    66861556.460 9-104569823.081 9
  24418241.189    24418246.179    94422033.036 9 -83703941.361 9
 86  6 13  3  4 11.0800000  0  3G13G 9G11
  20791298.621    20791301.816    27643369.367 9 -36397359.120 9
  21429621.672    21429623.928    66879825.323 9-104555587.605 8
  24421278.274    24421282.904    94437994.141 9 -83691504.127 8
 86  6 13  3  4 17.0800000  0  3G13G 9G11
  20792251.670    20792255.597    27648379.331 9 -36393455.263 8
  21433101.051    21433104.449    66898112.608 9-104541337.782 7
  24424315.257    24424319.629    94453952.790 9 -83679068.826 9
 86  6 13  3  4 23.0800000  0  3G13G 9G11
  20793207.336    20793211.206    27653399.506 9 -36389543.429 9
  21436585.183    21436587.691    66916418.423 9-104527073.516 8
  24427351.221    24427357.556    94469908.948 9 -83666635.479 8
 86  6 13  3  4 29.0800000  0  3G13G 9G11
  20794164.703    20794168.891    27658429.889 9 -36385623.658 8
  21440072.294    21440074.478    66934742.722 9-104512794.842 8
  24430387.003    24430391.621    94485862.649 9 -83654204.034 7
 86  6 13  3  4 35.0800000  0  3G13G 9G11
  20795124.159    20795127.121    27663470.482 9 -36381695.926 8
  21443561.848    21443564.748    66953085.478 9-104498501.786 8
  24433422.927    24433427.661    94501813.871 9 -83641774.513 8
 86  6 13  3  4 41.0800000  0  3G13G 9G11
  20796085.491    20796088.912    27668521.294 9 -36377760.227 8
  21447056.254    21447058.661    66971446.624 9-104484194.410 8
  24436457.593    24436462.696    94517762.640 9 -83629346.909 8
 86  6 13  3  4 47.0800000  0  3G13G 9G11
  20797048.556    20797051.018    27673582.287 9 -36373816.606 8
  21450553.696    21450557.055    66989826.192 8-104469872.672 8
  24439492.429    24439497.275    94533708.869 9 -83616921.283 8
 86  6 13  3  4 53.0800000  0  3G13G 9G11
  20798013.454    20798016.535    27678653.452 9 -36369865.043 9
  21454054.984    21454057.252    67008224.163 9-104455536.587 9
  24442526.221    24442531.682    94549652.634 9 -83604497.587 9
 86  6 13  3  4 59.0800000  0  3G13G 9G11
  20798980.421    20798983.701    27683734.761 9 -36365905.591 8
  21457560.060    21457561.783    67026640.490 9-104441186.215 9
  24445560.299    24445564.600    94565593.926 9 -83592075.816 8
 86  6 13  3  5  5.0800000  0  3G13G 9G11
  20799949.194    20799952.293    27688826.261 9 -36361938.190 9
  21461067.025    21461070.000    67045075.237 9-104426821.480 9
  24448593.304    24448597.978    94581532.745 9 -83579655.956 8
 86  6 13  3  5 11.0800000  0  3G13G 9G11
  20800920.268    20800922.617    27693927.948 9 -36357962.858 8
  21464578.941    21464583.012    67063528.296 8-104412442.478 8
  24451624.935    24451629.667    94597469.099 9 -83567238.018 9
 86  6 13  3  5 17.0800000  0  3G13G 9G11
  20801892.844    20801896.480    27699039.750 9 -36353979.623 8
  21468093.177    21468096.640    67081999.615 9-104398049.254 8
  24454657.239    24454663.215    94613402.939 9 -83554822.046 9
 86  6 13  3  5 23.0800000  0  3G13G 9G11
  20802867.250    20802870.946    27704161.606 9 -36349988.576 8
  21471611.731    21471615.614    67100489.231 9-104383641.760 9
  24457688.842    24457694.732    94629334.268 9 -83542408.042 9
 86  6 13  3  5 29.0800000  0  3G13G 9G11
  20803843.734    20803847.244    27709293.645 9 -36345989.580 9
  21475134.346    21475137.249    67118997.110 9-104369220.033 9
  24460720.344    24460726.048    94645263.026 9 -83529996.033 8
 86  6 13  3  5 35.0800000  0  3G13G 9G11
  20804822.319    20804825.359    27714435.658 9 -36341982.825 9
  21478659.631    21478661.743    67137523.228 9-104354784.113 7
  24463750.645    24463755.591    94661189.241 9 -83517585.998 9
 86  6 13  3  5 41.0800000  0  3G13G 9G11
  20805803.202    20805805.606    27719587.676 9 -36337968.264 9
  21482188.445    21482191.070    67156067.484 9-104340334.037 8
  24466781.289    24466786.219    94677112.848 9 -83505177.989 8
 86  6 13  3  5 47.0800000  0  3G13G 9G11
  20806785.712    20806788.371    27724749.609 8 -36333945.988 8
  21485720.331    21485722.420    67174629.855 8-104325869.866 8
  24469810.730    24469815.534    94693033.824 9 -83492772.043 9
 86  6 13  3  5 53.0800000  0  3G13G 9G11
  20807769.689    20807772.407    27729921.549 9 -36329915.905 9
  21489256.383    21489260.492    67193210.319 9-104311391.576 8
  24472840.301    24472844.734    94708952.182 9 -83480368.138 8
 86  6 13  3  5 59.0800000  0  3G13G 9G11
  20808755.413    20808758.633    27735103.530 9 -36325877.988 9
  21492796.282    21492798.513    67211808.854 8-104296899.226 8
  24475868.298    24475872.843    94724867.856 9 -83467966.328 8
 86  6 13  3  6  5.0800000  0  3G13G 9G11
  20809744.211    20809746.758    27740295.465 9 -36321832.328 9
  21496337.785    21496340.826    67230425.378 9-104282392.850 9
  24478896.725    24478901.441    94740780.857 9 -83455566.594 9
 86  6 13  3  6 11.0800000  0  3G13G 9G11
  20810732.052    20810735.893    27745497.221 9 -36317779.012 9
  21499884.930    21499887.137    67249059.874 9-104267872.460 7
  24481924.505    24481928.694    94756691.200 9 -83443168.925 9
 86  6 13  3  6 17.0800000  0  3G13G 9G11
  20811725.290    20811727.431    27750708.920 9 -36313717.953 9
  21503433.695    21503436.802    67267712.419 9-104253338.023 8
  24484952.260    24484957.234    94772598.891 9 -83430773.333 8
 86  6 13  3  6 23.0800000  0  3G13G 9G11
  20812719.035    20812721.964    27755930.524 9 -36309649.169 8
  21506986.852    21506989.425    67286382.941 8-104238789.562 8
  24487978.183    24487983.057    94788503.948 9 -83418379.795 9
 86  6 13  3  6 29.0800000  0  3G13G 9G11
  20813714.905    20813716.843    27761161.975 9 -36305572.718 9
  21510543.478    21510545.809    67305071.462 9-104224227.082 8
  24491004.247    24491009.394    94804406.413 9 -83405988.279 9
 86  6 13  3  6 35.0800000  0  3G13G 9G11
  20814711.078    20814714.147    27766403.368 9 -36301488.516 9
  21514101.947    21514105.733    67323777.855 9-104209650.690 9
  24494030.455    24494035.072    94820306.219 9 -83393598.829 9
 86  6 13  3  6 41.0800000  0  3G13G 9G11
  20815711.503    20815714.365    27771654.694 9 -36297396.572 8
  21517665.955    21517668.944    67342502.205 8-104195060.291 8
  24497055.060    24497060.121    94836203.426 9 -83381211.408 9
 86  6 13  3  6 47.0800000  0  3G13G 9G11
  20816711.528    20816715.007    27776915.882 9 -36293296.950 9
  21521232.520    21521235.619    67361244.550 8-104180455.874 9
  24500078.793    24500085.056    94852098.002 9 -83368826.029 9
 86  6 13  3  6 53.0800000  0  3G13G 9G11
  20817715.273    20817717.519    27782186.922 9 -36289189.649 8
  21524802.469    21524805.136    67380004.754 9-104165837.529 9
  24503104.228    24503108.874    94867989.890 9 -83356442.747 9
 86  6 13  3  6 59.0800000  0  3G13G 9G11
  20818719.762    20818722.891    27787467.767 8 -36285074.696 9
  21528375.664    21528378.802    67398782.814 9-104151205.288 8
  24506127.904    24506132.435    94883879.224 9 -83344061.456 9
 86  6 13  3  7  5.0800000  0  3G13G 9G11
  20819726.941    20819730.014    27792758.550 9 -36280952.016 9
  21531952.542    21531954.246    67417578.685 8-104136559.144 9
  24509151.165    24509156.253    94899765.927 9 -83331682.207 8
 86  6 13  3  7 11.0800000  0  3G13G 9G11
  20820735.428    20820739.228    27798059.168 9 -36276821.676 9
  21535532.279    21535535.761    67436392.489 8-104121899.053 8
  24512173.451    24512178.040    94915650.003 9 -83319305.015 8
 86  6 13  3  7 17.0800000  0  3G13G 9G11
  20821746.315    20821749.400    27803369.592 9 -36272683.675 9
  21539116.130    21539118.954    67455224.140 6-104107225.036 9
  24515195.567    24515200.285    94931531.433 9 -83306929.887 8
 86  6 13  3  7 23.0800000  0  3G13G 9G11
  20822758.740    20822761.965    27808689.808 9 -36268538.056 9
  21542702.529    21542705.929    67474073.503 9-104092537.232 9
  24518217.081    24518221.812    94947410.215 9 -83294556.813 9
 86  6 13  3  7 29.0800000  0  3G13G 9G11
  20823772.766    20823776.002    27814019.811 9 -36264384.816 8
  21546292.655    21546296.226    67492940.538 9-104077835.649 9
  24521238.739    24521242.741    94963286.359 9 -83282185.797 9
 86  6 13  3  7 35.0800000  0  3G13G 9G11
  20824789.202    20824791.497    27819359.607 9 -36260223.940 8
  21549886.246    21549889.954    67511825.315 9-104063120.245 8
  24524258.751    24524264.013    94979159.832 9 -83269816.855 9
 86  6 13  3  7 41.0800000  0  3G13G 9G11
  20825807.370    20825809.612    27824709.143 9 -36256055.470 9
  21553484.211    21553487.835    67530727.855 9-104048390.998 8
  24527279.466    24527283.941    94995030.654 9 -83257449.997 9
 86  6 13  3  7 47.0800000  0  3G13G 9G11
  20826827.234    20826830.267    27830068.408 9 -36251879.422 8
  21557084.309    21557086.769    67549648.100 8-104033647.954 8
  24530298.430    24530303.876    95010898.778 9 -83245085.224 9
 86  6 13  3  7 53.0800000  0  3G13G 9G11
  20827847.995    20827852.573    27835437.413 9 -36247695.786 8
  21560687.626    21560690.624    67568586.008 9-104018891.148 9
  24533318.005    24533322.429    95026764.191 9 -83232722.565 9
 86  6 13  3  7 59.0800000  0  3G13G 9G11
  20828872.635    20828875.308    27840816.015 9 -36243504.664 9
  21564295.687    21564298.328    67587541.585 9-104004120.579 8
  24536336.520    24536340.383    95042626.900 9 -83220362.017 8
 86  6 13  3  8  5.0800000  0  3G13G 9G11
  20829897.515    20829900.218    27846204.272 9 -36239306.029 8
  21567906.464    21567909.306    67606514.866 9-103989336.199 8
  24539354.713    24539358.285    95058486.910 9 -83208003.569 9
 86  6 13  3  8 11.0800000  0  3G13G 9G11
  20830924.428    20830927.933    27851602.102 9 -36235099.932 8
  21571519.592    21571521.993    67625505.548 9-103974538.280 9
  24542372.841    24542376.505    95074344.180 9 -83195647.263 9
 86  6 13  3  8 17.0800000  0  3G13G 9G11
  20831953.891    20831957.079    27857009.462 9 -36230886.398 8
  21575136.595    21575139.369    67644513.769 9-103959726.682 9
  24545389.489    24545393.723    95090198.636 9 -83183293.129 9
 86  6 13  3  8 23.0800000  0  3G13G 9G11
  20832984.638    20832987.683    27862426.509 9 -36226665.337 9
  21578757.552    21578760.374    67663539.427 9-103944901.501 9
  24548405.081    24548409.739    95106050.314 9 -83170941.176 9
 86  6 13  3  8 29.0800000  0  3G13G 9G11
  20834017.276    20834019.577    27867853.137 9 -36222436.800 9
  21582380.802    21582384.161    67682582.590 9-103930062.676 8
  24551420.739    24551426.689    95121899.278 9 -83158591.344 9
 86  6 13  3  8 35.0800000  0  3G13G 9G11
  20835051.559    20835054.332    27873289.416 9 -36218200.734 8
  21586007.825    21586010.940    67701643.319 9-103915210.160 8
  24554436.132    24554441.917    95137745.581 8 -83146243.583 9
 86  6 13  3  8 41.0800000  0  3G13G 9G11
  20836088.204    20836090.919    27878735.295 9 -36213957.191 9
  21589637.564    21589641.189    67720721.533 9-103900344.018 8
  24557451.259    24557456.525    95153589.186 9 -83133897.927 9
 86  6 13  3  8 47.0800000  0  3G13G 9G11
  20837126.579    20837129.281    27884190.870 9 -36209706.099 8
  21593272.279    21593276.308    67739817.281 9-103885464.226 8
  24560467.623    24560471.186    95169430.074 9 -83121554.368 9
 86  6 13  3  8 53.0800000  0  3G13G 9G11
  20838165.955    20838168.213    27889656.078 9 -36205447.503 8
  21596909.815    21596911.797    67758930.492 8-103870570.823 8
  24563480.036    24563485.805    95185268.319 8 -83109212.877 9
 86  6 13  3  8 59.0800000  0  3G13G 9G11
  20839207.707    20839209.696    27895130.880 9 -36201181.419 9
  21600549.774    21600552.119    67778061.154 9-103855663.810 8
  24566493.511    24566498.798    95201103.902 8 -83096873.459 9
 86  6 13  3  9  5.0800000  0  3G13G 9G11
  20840251.491    20840254.610    27900615.289 9 -36196907.855 8
  21604193.096    21604197.310    67797209.260 9-103840743.215 8
  24569505.894    24569511.200    95216936.815 9 -83084536.119 9
 86  6 13  3  9 11.0800000  0  3G13G 9G11
  20841297.465    20841299.810    27906109.289 9 -36192626.818 8
  21607840.920    21607843.502    67816374.778 8-103825809.045 9
  24572517.571    24572524.638    95232766.984 8 -83072200.917 9
 86  6 13  3  9 17.0800000  0  3G13G 9G11
  20842344.226    20842347.041    27911612.831 9 -36188338.349 9
  21611490.794    21611495.418    67835557.658 9-103810861.347 9
  24575530.060    24575535.891    95248594.415 9 -83059867.866 9
 86  6 13  3  9 23.0800000  0  3G13G 9G11
  20843393.477    20843396.994    27917125.848 9 -36184042.491 9
  21615144.223    21615147.769    67854757.857 9-103795900.167 8
  24578541.790    24578547.052    95264419.046 8 -83047536.981 9
 86  6 13  3  9 29.0800000  0  3G13G 9G11
  20844444.115    20844447.460    27922648.316 9 -36179739.273 9
  21618801.463    21618803.844    67873975.329 8-103780925.523 8
  24581552.509    24581558.125    95280240.873 8 -83035208.287 9
 86  6 13  3  9 35.0800000  0  3G13G 9G11
  20845497.616    20845500.074    27928180.240 9 -36175428.684 8
  21622461.160    21622465.035    67893210.025 9-103765937.458 9
  24584563.205    24584568.331    95296059.911 9 -83022881.760 9
 86  6 13  3  9 41.0800000  0  3G13G 9G11
  20846551.300    20846554.403    27933721.523 9 -36171110.809 9
  21626125.468    21626128.560    67912461.896 9-103750936.002 8
  24587572.852    24587578.746    95311876.167 8 -83010557.417 8
 86  6 13  3  9 47.0800000  0  3G13G 9G11
  20847607.261    20847610.421    27939272.217 9 -36166785.591 9
  21629792.240    21629795.281    67931730.984 9-103735921.132 9
  24590581.356    24590586.117    95327689.591 8 -82998235.268 9
 86  6 13  3  9 53.0800000  0  3G13G 9G11
  20848665.841    20848668.185    27944832.380 9 -36162452.995 9
  21633461.762    21633465.697    67951017.284 9-103720892.850 8
  24593590.268    24593596.058    95343500.228 8 -82985915.290 9
 86  6 13  3  9 59.0800000  0  3G13G 9G11
  20849725.809    20849729.328    27950401.973 9 -36158113.052 9
  21637135.400    21637138.530    67970320.719 9-103705851.219 9
  24596598.854    24596602.976    95359308.048 8 -82973597.499 9
 86  6 13  3 10  5.0800000  0  3G13G 9G11
  20850787.308    20850790.441    27955980.992 9 -36153765.768 8
  21640812.004    21640816.170    67989641.291 9-103690796.246 9
  24599605.051    24599612.006    95375113.135 7 -82961281.852 9
 86  6 13  3 10 11.0800000  0  3G13G 9G11
  20851851.226    20851853.871    27961569.418 9 -36149411.150 9
  21644492.397    21644495.922    68008978.934 9-103675727.955 9
  24602612.606    24602618.633    95390915.449 8 -82948968.357 9
 86  6 13  3 10 17.0800000  0  3G13G 9G11
  20852915.744    20852918.675    27967167.167 9 -36145049.275 9
  21648174.478    21648178.214    68028333.714 9-103660646.300 8
  24605619.315    24605625.780    95406715.000 8 -82936657.035 9
 86  6 13  3 10 23.0800000  0  3G13G 9G11
  20853982.495    20853986.600    27972774.264 9 -36140680.104 8
  21651861.521    21651865.127    68047705.662 9-103645551.285 9
  24608626.188    24608631.153    95422511.732 8 -82924347.882 9
 86  6 13  3 10 29.0800000  0  3G13G 9G11
  20855050.804    20855054.721    27978390.755 9 -36136303.616 8
  21655550.975    21655554.177    68067094.639 8-103630443.001 9
  24611630.938    24611636.640    95438305.681 6 -82912040.916 9
 86  6 13  3 10 35.0800000  0  3G13G 9G11
  20856121.691    20856125.049    27984016.531 9 -36131919.895 9
  21659244.109    21659247.119    68086500.609 9-103615321.474 8
  24614635.333    24614641.570    95454096.804 7 -82899736.148 9
 86  6 13  3 10 41.0800000  0  3G13G 9G11
  20857193.806    20857197.553    27989651.685 9 -36127528.873 9
  21662940.242    21662943.498    68105923.610 9-103600186.666 9
  24617640.827    24617646.435    95469885.119 8 -82887433.565 9
 86  6 13  3 10 47.0800000  0  3G13G 9G11
  20858268.084    20858271.773    27995296.192 9 -36123130.557 9
  21666638.783    21666643.070    68125363.571 9-103585038.658 9
  24620643.840    24620650.211    95485670.577 7 -82875133.198 9
 86  6 13  3 10 53.0800000  0  3G13G 9G11
  20859344.693    20859347.654    28000949.937 9 -36118725.038 9
  21670341.934    21670344.915    68144820.448 9-103569877.458 9
  24623647.634    24623653.216    95501453.197 7 -82862835.052 9
 86  6 13  3 10 59.0800000  0  3G13G 9G11
  20860421.489    20860425.449    28006612.854 9 -36114312.371 9
  21674047.374    21674050.509    68164294.200 9-103554703.101 8
  24626651.510    24626655.969    95517232.924 6 -82850539.180 9
 86  6 13  3 11  5.0800000  0  3G13G 9G11
  20861501.591    20861504.878    28012284.987 9 -36109892.517 9
  21677756.380    21677759.760    68183784.826 9-103539515.615 9
  24629653.473    24629657.970    95533009.671 6 -82838245.602 9
 86  6 13  3 11 11.0800000  0  3G13G 9G11
  20862582.434    20862586.025    28017966.325 9 -36105465.512 8
  21681469.070    21681471.679    68203292.306 8-103524314.978 8
  24632655.332    24632659.629    95548783.563 6 -82825954.250 9
 86  6 13  3 11 17.0800000  0  3G13G 9G11
  20863665.025    20863668.971    28023656.923 9 -36101031.288 9
  21685184.789    21685187.452    68222816.641 9-103509101.217 9
  24635655.406    24635661.105    95564554.604 7 -82813665.157 9
 86  6 13  3 11 23.0800000  0  3G13G 9G11
  20864749.920    20864753.150    28029356.748 9 -36096589.865 9
  21688902.597    21688905.718    68242357.779 9-103493874.365 8
  24638655.716    24638661.061    95580322.849 7 -82801378.221 9
 86  6 13  3 11 29.0800000  0  3G13G 9G11
  20865837.076    20865839.361    28035065.738 9 -36092141.297 8
  21692624.818    21692628.502    68261915.703 8-103478634.433 9
  24641655.564    24641661.764    95596088.219 6 -82789093.518 9
 86  6 13  3 11 35.0800000  0  3G13G 9G11
  20866924.475    20866927.232    28040784.005 9 -36087685.510 9
  21696350.199    21696352.600    68281490.432 9-103463381.403 8
  24644655.802    24644661.163    95611850.705 6 -82776811.055 9
 86  6 13  3 11 41.0800000  0  3G13G 9G11
  20868014.276    20868016.764    28046511.488 8 -36083222.532 8
  21700077.647    21700079.928    68301081.904 9-103448115.316 8
  24647655.400    24647660.221    95627610.240 7 -82764530.876 9
 86  6 13  3 11 47.0800000  0  3G13G 9G11
  20869105.640    20869109.757    28052248.097 9 -36078752.447 8
  21703808.683    21703811.371    68320690.009 9-103432836.274 9
  24650653.429    24650658.228    95643366.940 6 -82752252.947 9
 86  6 13  3 11 53.0800000  0  3G13G 9G11
  20870199.232    20870203.037    28057993.767 9 -36074275.310 9
  21707543.714    21707546.693    68340314.806 9-103417544.229 9
  24653650.058    24653656.150    95659120.661 6 -82739977.311 9
 86  6 13  3 11 59.0800000  0  3G13G 9G11
  20871294.833    20871298.635    28063748.551 9 -36069791.060 8
  21711281.520    21711283.991    68359956.413 9-103402239.085 8
  24656646.152    24656653.478    95674871.516 6 -82727703.934 9
 86  6 13  3 12  5.0800000  0  3G13G 9G11
  20872391.574    20872395.262    28069512.381 9 -36065299.755 9
  21715022.469    21715024.773    68379614.594 9-103386921.025 8
  24659641.905    24659650.382    95690619.454 6 -82715432.817 9
 86  6 13  3 12 11.0800000  0  3G13G 9G11
  20873490.392    20873493.579    28075285.226 9 -36060801.444 9
  21718766.074    21718769.237    68399289.289 9-103371590.102 8
  24662640.793    24662646.477    95706364.455 7 -82703163.995 9
 86  6 13  3 12 17.0800000  0  3G13G 9G11
  20874590.710    20874594.071    28081067.022 9 -36056296.140 9
  21722512.604    21722515.603    68418980.619 9-103356246.211 9
  24665634.464    24665641.383    95722106.526 6 -82690897.446 9
 86  6 13  3 12 23.0800000  0  3G13G 9G11
  20875692.133    20875695.192    28086857.958 9 -36051783.717 8
  21726262.724    21726266.640    68438688.590 9-103340889.354 9
  24668630.296    24668636.022    95737845.709 6 -82678633.154 9
 86  6 13  3 12 29.0800000  0  3G13G 9G11
  20876795.614    20876799.117    28092657.973 9 -36047264.232 9
  21730017.020    21730020.762    68458413.125 9-103325519.589 9
  24671625.792    24671631.167    95753582.046 6 -82666371.092 8
 86  6 13  3 12 35.0800000  0  3G13G 9G11
  20877901.658    20877904.503    28098467.082 9 -36042737.656 9
  21733773.125    21733776.263    68478154.220 9-103310136.923 9
  24674621.592    24674625.186    95769315.462 6 -82654111.278 9
 86  6 13  3 12 41.0800000  0  3G13G 9G11
  20879008.889    20879011.948    28104285.262 9 -36038204.004 9
  21737534.307    21737536.124    68497911.822 8-103294741.393 8
  24677611.862    24677619.325    95785046.018 7 -82641853.706 9
 86  6 13  3 12 47.0800000  0  3G13G 9G11
  20880117.351    20880120.394    28110112.440 9 -36033663.347 9
  21741296.131    21741299.353    68517685.897 9-103279333.033 9
  24680603.915    24680611.694    95800773.630 6 -82629598.444 8
 86  6 13  3 12 53.0800000  0  3G13G 9G11
  20881227.916    20881231.161    28115948.585 9 -36029115.705 8
  21745062.034    21745064.839    68537476.383 9-103263911.876 9
  24683596.616    24683603.934    95816498.317 6 -82617345.458 8
 86  6 13  3 12 59.0800000  0  3G13G 9G11
  20882340.613    20882344.016    28121793.705 9 -36024561.061 9
  21748830.974    21748834.424    68557283.275 9-103248477.951 9
  24686590.345    24686595.317    95832220.027 7 -82605094.781 8
 86  6 13  3 13  5.0800000  0  3G13G 9G11
  20883454.341    20883456.957    28127647.774 9 -36019999.446 9
  21752603.436    21752605.930    68577106.503 9-103233031.274 7
  24689581.947    24689587.093    95847938.829 7 -82592846.362 8
 86  6 13  3 13 11.0800000  0  3G13G 9G11
  20884570.070    20884573.361    28133510.774 9 -36015430.873 9
  21756378.956    21756381.257    68596946.156 8-103217571.812 9
  24692572.241    24692577.038    95863654.761 7 -82580600.174 9
 86  6 13  3 13 17.0800000  0  3G13G 9G11
  20885687.232    20885691.366    28139382.657 9 -36010855.378 8
  21760157.695    21760159.905    68616802.244 8-103202099.544 9
  24695562.474    24695567.857    95879367.748 7 -82568356.278 8
 86  6 13  3 13 23.0800000  0  3G13G 9G11
  20886806.154    20886809.229    28145263.509 9 -36006272.898 9
  21763938.674    21763942.250    68636674.684 9-103186614.527 9
  24698551.991    24698557.042    95895077.804 8 -82556114.655 8
 86  6 13  3 13 29.0800000  0  3G13G 9G11
  20887927.323    20887930.295    28151153.353 9 -36001683.408 9
  21767724.045    21767727.305    68656563.464 9-103171116.782 9
  24701540.945    24701545.668    95910784.894 8 -82543875.336 7
 86  6 13  3 13 35.0800000  0  3G13G 9G11
  20889050.067    20889052.195    28157052.103 9 -35997086.971 9
  21771511.385    21771513.416    68676468.499 9-103155606.358 9
  24704529.342    24704535.118    95926489.048 8 -82531638.316 8
 86  6 13  3 13 41.0800000  0  3G13G 9G11
  20890173.523    20890177.442    28162959.743 9 -35992483.625 8
  21775301.478    21775305.580    68696389.792 9-103140083.284 9
  24707517.052    24707522.061    95942190.196 8 -82519403.667 8
 86  6 13  3 13 47.0800000  0  2G13G 9
  20891299.829    20891302.551    28168876.225 9 -35987873.372 9
  21779096.327    21779099.240    68716327.292 9-103124547.583 9
 86  6 13  3 13 53.0800000  0  2G13G 9
  20892427.092    20892430.293    28174801.608 9 -35983256.192 9
  21782893.586    21782896.441    68736280.994 9-103108999.249 9
 86  6 13  3 13 59.0800000  0  2G13G 9
  20893556.717    20893559.548    28180735.775 9 -35978632.168 9
  21786692.958    21786696.403    68756250.799 8-103093438.358 9
 86  6 13  3 14  5.0800000  0  2G13G 9
  20894687.945    20894690.590    28186678.758 9 -35974001.264 9
  21790496.454    21790499.214    68776236.759 9-103077864.889 9
 86  6 13  3 14 11.0800000  0  2G13G 9
  20895819.961    20895823.792    28192630.642 9 -35969363.429 9
  21794303.379    21794306.289    68796238.970 8-103062278.754 9
 86  6 13  3 14 17.0800000  0  2G13G 9
  20896954.213    20896957.124    28198591.245 9 -35964718.805 9
  21798111.835    21798115.886    68816257.270 9-103046680.079 9
 86  6 13  3 14 23.0800000  0  2G13G 9
  20898089.984    20898092.994    28204560.612 9 -35960067.346 9
  21801924.912    21801928.176    68836291.655 9-103031068.883 9
 86  6 13  3 14 29.0800000  0  2G13G 9
  20899227.730    20899230.431    28210538.750 9 -35955409.064 9
  21805739.367    21805743.528    68856342.125 9-103015445.134 9
 86  6 13  3 14 35.0800000  0  2G13G 9
  20900367.129    20900370.604    28216525.706 9 -35950743.897 9
  21809558.842    21809562.518    68876408.576 8-102999808.935 8
 86  6 13  3 14 41.0800000  0  2G13G 9
  20901507.821    20901510.558    28222521.440 9 -35946071.895 8
  21813380.679    21813383.043    68896491.087 9-102984160.245 9
 86  6 13  3 14 47.0800000  0  2G13G 9
  20902650.361    20902654.129    28228525.914 9 -35941393.083 8
  21817205.172    21817208.444    68916589.594 9-102968499.075 9
 86  6 13  3 14 53.0800000  0  2G13G 9
  20903794.766    20903798.377    28234539.147 9 -35936707.452 9
  21821032.432    21821036.363    68936704.046 8-102952825.478 9
 86  6 13  3 14 59.0800000  0  2G13G 9
  20904940.246    20904944.473    28240561.062 9 -35932015.049 9
  21824863.690    21824866.806    68956834.483 9-102937139.418 8
 86  6 13  3 15  5.0800000  0  2G13G 9
  20906087.894    20906092.484    28246591.651 9 -35927315.881 9
  21828697.342    21828699.857    68976980.870 9-102921440.950 9
 86  6 13  3 15 11.0800000  0  2G13G 9
  20907237.802    20907241.149    28252630.864 9 -35922610.002 9
  21832532.926    21832537.379    68997143.085 9-102905730.136 8
 86  6 13  3 15 17.0800000  0  2G13G 9
  20908388.089    20908391.364    28258678.737 9 -35917897.374 9
  21836373.656    21836376.523    69017321.177 9-102890006.956 8
 86  6 13  3 15 23.0800000  0  2G13G 9
  20909541.404    20909543.826    28264735.198 9 -35913178.046 9
  21840215.639    21840218.776    69037515.009 8-102874271.506 8
 86  6 13  3 15 29.0800000  0  2G13G 9
  20910695.032    20910698.127    28270800.149 9 -35908452.111 9
  21844061.252    21844065.646    69057724.576 9-102858523.808 9
 86  6 13  3 15 35.0800000  0  2G13G 9
  20911850.128    20911853.518    28276873.654 9 -35903719.518 9
  21847909.674    21847914.587    69077949.930 9-102842763.786 8
 86  6 13  3 15 41.0800000  0  2G13G 9
  20913007.856    20913010.873    28282955.687 9 -35898980.261 9
  21851761.995    21851765.305    69098190.957 9-102826991.580 9
 86  6 13  3 15 47.0800000  0  2G13G 9
  20914167.030    20914170.940    28289046.233 9 -35894234.378 8
  21855616.719    21855620.322    69118447.609 8-102811207.183 9
 86  6 13  3 15 53.0800000  0  2G13G 9
  20915327.883    20915330.886    28295145.374 9 -35889481.797 9
  21859474.516    21859477.890    69138719.934 9-102795410.557 9
 86  6 13  3 15 59.0800000  0  2G13G 9
  20916490.507    20916494.095    28301253.031 9 -35884722.581 9
  21863335.200    21863338.405    69159007.970 8-102779601.702 9
 86  6 13  3 16  5.0800000  0  2G13G 9
  20917653.630    20917656.946    28307369.193 9 -35879956.749 9
  21867199.551    21867202.625    69179311.696 9-102763780.623 8
 86  6 13  3 16 11.0800000  0  2G13G 9
  20918819.177    20918822.916    28313493.908 9 -35875184.238 8
  21871066.346    21871068.904    69199631.098 8-102747947.331 8
 86  6 13  3 16 17.0800000  0  2G13G 9
  20919986.750    20919989.903    28319627.231 9 -35870405.022 9
  21874935.901    21874939.169    69219966.170 8-102732101.834 9
 86  6 13  3 16 23.0800000  0  2G13G 9
  20921155.883    20921158.606    28325769.097 9 -35865619.149 9
  21878806.520    21878811.230    69240316.839 9-102716244.167 8
 86  6 13  3 16 29.0800000  0  2G13G 9
  20922325.803    20922329.141    28331919.462 9 -35860826.660 9
  21882682.905    21882686.410    69260683.097 9-102700374.366 9
 86  6 13  3 16 35.0800000  0  2G13G 9
  20923497.976    20923500.600    28338078.357 9 -35856027.507 8
  21886561.136    21886565.588    69281064.976 8-102684492.386 9
 86  6 13  3 16 41.0800000  0  2G13G 9
  20924671.173    20924674.933    28344245.798 9 -35851221.713 9
  21890444.382    21890447.029    69301462.448 8-102668598.267 8
 86  6 13  3 16 47.0800000  0  2G13G 9
  20925845.942    20925849.762    28350421.676 9 -35846409.344 9
  21894327.700    21894331.409    69321875.415 8-102652692.054 8
 86  6 13  3 16 53.0800000  0  2G13G 9
  20927023.410    20927026.735    28356605.978 9 -35841590.391 9
  21898214.478    21898218.803    69342303.760 9-102636773.872 9
 86  6 13  3 16 59.0800000  0  2G13G 9
  20928201.703    20928205.061    28362798.802 8 -35836764.823 9
  21902105.998    21902109.012    69362747.659 9-102620843.567 9
 86  6 13  3 17  5.0800000  0  2G13G 9
  20929382.102    20929384.913    28369000.104 9 -35831932.638 9
  21905998.535    21906003.230    69383206.935 8-102604901.284 8
 86  6 13  3 17 11.0800000  0  2G13G 9
  20930564.229    20930566.507    28375209.773 9 -35827093.931 9
  21909895.964    21909898.846    69403681.596 9-102588946.995 9
 86  6 13  3 17 17.0800000  0  2G13G 9
  20931746.547    20931749.894    28381427.876 9 -35822248.642 9
  21913793.496    21913797.192    69424171.618 9-102572980.758 9
 86  6 13  3 17 23.0800000  0  2G13G 9
  20932932.049    20932934.850    28387654.353 9 -35817396.845 9
  21917696.636    21917700.393    69444677.000 9-102557002.549 8
 86  6 13  3 17 29.0800000  0  2G13G 9
  20934118.161    20934121.542    28393889.167 9 -35812538.542 9
  21921601.364    21921604.752    69465197.711 9-102541012.383 9
 86  6 13  3 17 35.0800000  0  2G13G 9
  20935306.644    20935309.133    28400132.363 9 -35807673.715 9
  21925509.627    21925513.581    69485733.737 9-102525010.298 8
 86  6 13  3 17 41.0800000  0  2G13G 9
  20936496.449    20936498.920    28406383.858 9 -35802802.415 9
  21929420.135    21929423.208    69506285.000 8-102508996.320 8
 86  6 13  3 17 47.0800000  0  2G13G 9
  20937686.873    20937690.519    28412643.635 9 -35797924.661 9
  21933332.564    21933336.493    69526851.507 9-102492970.473 8
 86  6 13  3 17 53.0800000  0  2G13G 9
  20938879.401    20938882.690    28418911.652 9 -35793040.489 9
  21937250.203    21937253.758    69547433.163 9-102476932.837 9
 86  6 13  3 17 59.0800000  0  2G13G 9
  20940074.005    20940078.187    28425187.937 9 -35788149.877 9
  21941170.142    21941174.381    69568029.997 9-102460883.347 9
 86  6 13  3 18  5.0800000  0  2G13G 9
  20941270.096    20941273.125    28431472.368 9 -35783252.915 9
  21945091.034    21945096.124    69588641.947 9-102444822.093 8
 86  6 13  3 18 11.0800000  0  2G13G 9
  20942467.553    20942470.090    28437765.000 9 -35778349.565 9
  21949016.687    21949020.620    69609269.040 9-102428749.033 9
 86  6 13  3 18 17.0800000  0  2G13G 9
  20943666.720    20943669.645    28444065.903 9 -35773439.762 9
  21952944.937    21952948.798    69629911.300 9-102412664.171 8
 86  6 13  3 18 23.0800000  0  2G13G 9
  20944867.376    20944870.300    28450375.060 9 -35768523.528 9
  21956875.934    21956879.839    69650568.485 8-102396567.665 9
 86  6 13  3 18 29.0800000  0  2G13G 9
  20946069.163    20946072.444    28456692.431 9 -35763600.903 9
  21960810.435    21960812.908    69671240.692 9-102380459.462 8
 86  6 13  3 18 35.0800000  0  2G13G 9
  20947273.024    20947276.578    28463017.998 9 -35758671.891 9
  21964746.684    21964750.861    69691927.943 8-102364339.526 8
 86  6 13  3 18 41.0800000  0  2G13G 9
  20948478.343    20948481.397    28469351.736 9 -35753736.502 9
  21968686.679    21968690.188    69712630.266 8-102348207.858 8
 86  6 13  3 18 47.0800000  0  2G13G 9
  20949685.087    20949688.485    28475693.645 9 -35748794.748 9
  21972629.238    21972631.973    69733347.592 8-102332064.493 9
 86  6 13  3 18 53.0800000  0  2G13G 9
  20950893.229    20950896.905    28482043.688 9 -35743846.658 9
  21976574.283    21976577.100    69754079.878 8-102315909.469 9
 86  6 13  3 18 59.0800000  0  2G13G 9
  20952103.443    20952106.894    28488401.983 9 -35738892.140 9
  21980521.751    21980526.380    69774827.095 9-102299742.808 9
 86  6 13  3 19  5.0800000  0  2G13G 9
  20953314.588    20953317.983    28494768.419 9 -35733931.277 8
  21984472.934    21984475.723    69795589.214 9-102283564.539 9
 86  6 13  3 19 11.0800000  0  2G13G 9
  20954527.550    20954531.517    28501142.916 9 -35728964.132 9
  21988427.342    21988430.492    69816366.258 9-102267374.641 8
 86  6 13  3 19 17.0800000  0  2G13G 9
  20955741.800    20955745.537    28507525.482 9 -35723990.702 9
  21992383.499    21992386.920    69837158.106 8-102251173.205 8
 86  6 13  3 19 23.0800000  0  2G13G 9
  20956957.470    20956961.711    28513916.133 9 -35719010.965 9
  21996342.589    21996345.866    69857964.754 7-102234960.244 8
 86  6 13  3 19 29.0800000  0  2G13G 9
  20958176.277    20958179.196    28520314.828 9 -35714024.968 9
  22000305.812    22000307.617    69878786.136 9-102218735.791 8
 86  6 13  3 19 35.0800000  0  2G13G 9
  20959395.552    20959398.289    28526721.593 9 -35709032.679 9
  22004269.390    22004273.553    69899622.358 9-102202499.784 9
 86  6 13  3 19 41.0800000  0  2G13G 9
  20960616.183    20960619.277    28533136.460 9 -35704034.074 9
  22008237.034    22008241.137    69920473.298 8-102186252.301 8
 86  6 13  3 19 47.0800000  0  2G13G 9
  20961837.938    20961840.837    28539559.266 9 -35699029.287 9
  22012209.293    22012211.223    69941338.895 9-102169993.400 9
 86  6 13  3 19 53.0800000  0  2G13G 9
  20963061.613    20963064.591    28545990.129 9 -35694018.222 9
  22016182.111    22016185.117    69962219.156 9-102153723.073 8
 86  6 13  3 19 59.0800000  0  2G13G 9
  20964287.411    20964290.309    28552429.009 9 -35689000.901 9
  22020158.250    22020161.211    69983114.160 8-102137441.252 8
 86  6 13  3 20  5.0800000  0  3G12G13G 9
                  20883447.032    -7738280.859 9
  20965514.302    20965516.664    28558875.834 8 -35683977.401 9
  22024136.925    22024139.480    70004023.783 9-102121148.044 9
 86  6 13  3 20 11.0800000  0  3G12G13G 9
                  20882809.247    -7741644.533 9
  20966742.037    20966745.216    28565330.553 9 -35678947.743 9
  22028118.727    22028122.104    70024947.941 9-102104843.511 9
 86  6 13  3 20 17.0800000  0  3G12G13G 9
                  20882206.183    -7744982.292 7
  20967971.479    20967974.590    28571793.197 5 -35673911.915 5
  22032103.711    22032106.186    70045886.768 7-102088527.542 5
 86  6 13  3 20 23.0800000  0  3G12G13G 9
  20881576.494    20881582.332    -7748294.667 8  10103681.977 8
  20969203.558    20969205.815    28578263.828 9 -35668869.862 8
  22036090.526    22036093.965    70066840.181 8-102072200.213 7
 86  6 13  3 20 29.0800000  0  4G12G13G 9G 7
  20880950.971    20880953.474    -7751581.308 8  10101120.933 8
  20970436.438    20970439.621    28584742.442 9 -35663821.583 9
  22040081.048    22040083.692    70087808.153 9-102055861.534 9
                  26020804.454    -8026379.472 1
 86  6 13  3 20 35.0800000  0  2G12G13
  20880329.768    20880332.944    -7754842.366 6  10098579.852 6
  20971671.899    20971673.906    28591228.977 7 -35658767.135 7
 86  6 13  3 20 41.0800000  0  3G12G13G 9
  20879714.886    20879717.387    -7758077.740 9  10096058.277 9
  20972906.418    20972909.497    28597723.420 9 -35653706.528 9
  22048069.424    22048072.335    70129787.790 9-102023150.142 8
 86  6 13  3 20 47.0800000  0  3G12G13G 9
  20879103.787    20879107.023    -7761287.489 9  10093557.165 9
  20974143.738    20974147.008    28604225.799 9 -35648639.738 8
  22052067.500    22052070.266    70150799.256 9-102006777.570 8
 86  6 13  3 20 53.0800000  0  3G12G13G 9
  20878498.305    20878500.795    -7764471.592 9  10091076.049 9
  20975382.198    20975386.031    28610736.083 9 -35643566.779 8
  22056068.382    22056071.518    70171825.150 9-101990393.759 9
 86  6 13  3 20 59.0800000  0  3G12G13G 9
  20877896.533    20877901.191    -7767630.016 4  10088614.944 6
  20976623.284    20976625.836    28617254.164 5 -35638487.758 3
  22060072.973    22060075.799    70192865.480 7-101973998.709 5
 86  6 13  3 21  5.0800000  0  3G12G13G 9
  20877300.462    20877304.840    -7770762.729 9  10086173.867 8
  20977864.979    20977868.105    28623780.010 9 -35633402.683 9
  22064078.837    22064081.374    70213920.254 9-101957592.393 8
 86  6 13  3 21 11.0800000  0  3G12G13G 9
  20876709.108    20876713.733    -7773869.729 9  10083752.826 8
  20979108.121    20979111.177    28630313.772 9 -35628311.424 9
  22068088.435    22068091.174    70234989.384 8-101941174.892 9
 86  6 13  3 21 17.0800000  0  3G12G13G 9
  20876122.356    20876126.394    -7776951.099 9  10081351.762 8
  20980353.150    20980356.477    28636855.346 9 -35623214.093 9
  22072099.691    22072103.030    70256072.821 9-101924746.240 8
 86  6 13  3 21 23.0800000  0  3G12G13G 9
  20875541.332    20875544.794    -7780006.812 9  10078970.691 8
  20981598.522    20981601.720    28643404.764 9 -35618110.642 9
  22076115.434    22076117.554    70277170.620 9-101908306.411 9
 86  6 13  3 21 29.0800000  0  3G12G13G 9
  20874964.665    20874968.852    -7783036.767 6  10076609.675 6
  20982846.739    20982850.645    28649961.997 9 -35613001.116 7
  22080133.364    22080135.810    70298282.684 7-101891855.453 8
 86  6 13  3 21 35.0800000  0  4G12G13G 9G 7
  20874392.750    20874396.164    -7786041.015 9  10074268.709 8
  20984096.535    20984099.828    28656527.062 9 -35607885.476 9
  22084153.475    22084155.707    70319408.934 9-101875393.440 8
                  19985029.633    -8410425.920 9
 86  6 13  3 21 41.0800000  0  4G12G13G 9G 7
  20873826.075    20873830.171    -7789019.574 8  10071947.751 6
  20985346.942    20985349.480    28663099.929 7 -35602763.759 9
  22088175.940    22088178.820    70340549.459 8-101858920.315 7
                  19981304.007    -8429866.145 9
 86  6 13  3 21 47.0800000  0  4G12G13G 9G 7
  20873264.242    20873268.742    -7791972.363 9  10069646.873 9
  20986598.875    20986602.341    28669680.568 9 -35597635.982 9
  22092200.917    22092204.736    70361704.323 8-101842436.005 9
                  19977595.215    -8449301.080 1
 86  6 13  3 21 53.0800000  0  3G12G13G 9
  20872707.692    20872710.590    -7794899.370 9  10067366.087 9
  20987852.619    20987856.372    28676268.920 9 -35592502.198 9
  22096230.441    22096232.195    70382873.340 8-101825940.661 8
 86  6 13  3 21 59.0800000  0  3G12G13G 9
  20872155.865    20872159.589    -7797800.577 6  10065105.398 6
  20989108.812    20989111.849    28682865.047 7 -35587362.357 4
  22100260.728    22100263.886    70404056.542 6-101809434.276 6
 86  6 13  3 22  5.0800000  0  3G12G13G 9
  20871610.159    20871610.854    -7800676.074 2  10062864.752 4
  20990364.904    20990367.885    28689468.902 9 -35582216.498 9
  22104294.363    22104297.621    70425253.876 8-101792916.878 8
 86  6 13  3 22 11.0800000  0  4G12G13G 9G 7
  20871067.256    20871069.901    -7803525.839 9  10060644.153 9
  20991622.618    20991626.725    28696080.488 9 -35577064.614 9
  22108329.899    22108334.051    70446465.290 8-101776388.512 8
                  25958692.088    -8526894.686 9
 86  6 13  3 22 17.0800000  0  4G12G13G 9G 7
  20870528.637    20870531.941    -7806349.813 9  10058443.658 8
  20992882.839    20992885.409    28702699.758 9 -35571906.738 9
  22112370.374    22112373.087    70467690.772 9-101759849.178 8
                  25955000.279    -8546238.542 9
 86  6 13  3 22 23.0800000  0  4G12G13G 9G 7
  20869995.982    20869999.422    -7809147.968 9  10056263.285 9
  20994143.893    20994146.389    28709326.698 9 -35566742.881 8
  22116411.252    22116414.597    70488930.381 9-101743298.837 9
                  25951360.328    -8565566.586 8
 86  6 13  3 22 29.0800000  0  4G12G13G 9G 7
  20869469.039    20869471.867    -7811920.369 9  10054102.974 9
  20995406.105    20995409.096    28715961.213 9 -35561573.126 9
  22120456.103    22120459.935    70510183.979 9-101726737.592 9
  25947684.840    25947688.472    -8584882.646 9  11058932.661 8
 86  6 13  3 22 35.0800000  0  4G12G13G 9G 7
  20868946.556    20868948.866    -7814666.970 9  10051962.756 9
  20996670.278    20996673.631    28722603.416 9 -35556397.379 9
  22124503.273    22124506.223    70531451.562 9-101710165.453 9
  25944010.354    25944014.812    -8604189.497 8  11043888.363 9
 86  6 13  3 22 41.0800000  0  4G12G13G 9G 7
  20868428.456    20868431.220    -7817387.836 8  10049842.601 8
  20997935.158    20997938.671    28729253.198 9 -35551215.734 9
  22128552.832    22128555.988    70552733.093 8-101693582.441 9
  25940337.872    25940342.499    -8623489.284 9  11028849.591 9
 86  6 13  3 22 47.0800000  0  4G12G13G 9G 7
  20867915.144    20867918.828    -7820082.919 9  10047742.544 8
  20999202.093    20999205.429    28735910.609 9 -35546028.132 8
  22132605.474    22132607.986    70574028.539 8-101676988.602 9
  25936667.420    25936670.649    -8642782.438 9  11013815.964 9
 86  6 13  3 22 53.0800000  0  4G12G13G 9G 7
  20867407.358    20867410.038    -7822752.181 9  10045662.596 9
  21000471.072    21000474.006    28742575.621 9 -35540834.624 9
  22136660.114    22136662.583    70595337.833 9-101660383.957 8
  25932997.370    25933000.740    -8662066.056 9  10998789.765 9
 86  6 13  3 22 59.0800000  0  4G12G13G 9G 7
  20866903.986    20866907.898    -7825395.682 9  10043602.718 9
  21001740.830    21001744.484    28749248.166 9 -35535635.239 9
  22140718.088    22140720.774    70616661.082 9-101643768.445 9
                  25929329.479    -8681333.175 1
 86  6 13  3 23  5.0800000  0  4G12G13G 9G 7
  20866406.493    20866409.104    -7828013.433 9  10041562.911 9
  21003011.901    21003014.968    28755928.334 9 -35530429.904 9
  22144779.009    22144781.462    70637998.100 9-101627142.198 9
  25925667.844    25925672.158    -8700577.588 5  11030300.792 2
 86  6 13  3 23 11.0800000  0  4G12G13G 9G 7
  20865912.854    20865916.271    -7830605.418 9  10039543.192 9
  21004284.102    21004287.658    28762616.063 9 -35525218.685 9
  22148841.628    22148843.931    70659348.968 7-101610505.164 9
  25922009.493    25922014.144    -8719798.046 1  11015323.828 1
 86  6 13  3 23 17.0800000  0  4G12G13G 9G 7
  20865424.421    20865428.106    -7833171.576 9  10037543.590 9
  21005558.306    21005561.520    28769311.344 9 -35520001.586 9
  22152906.377    22152909.938    70680713.700 8-101593857.322 9
  25918356.043    25918358.853    -8738998.112 1  11000362.750 1
 86  6 13  3 23 23.0800000  0  4G12G13G 9G 7
  20864941.440    20864943.903    -7835711.843 9  10035564.148 9
  21006834.343    21006836.869    28776014.159 9 -35514778.616 9
  22156975.682    22156978.684    70702092.263 9-101577198.713 8
  25914703.544    25914707.301    -8758182.379 1  10985413.972 1
 86  6 13  3 23 29.0800000  0  4G12G13G 9G 7
  20864462.222    20864465.903    -7838226.184 9  10033604.925 8
  21008111.140    21008114.680    28782724.593 9 -35509549.704 9
  22161046.751    22161048.975    70723484.601 9-101560529.364 9
  25911056.436    25911063.668    -8777354.899 1  10970474.371 1
 86  6 13  3 23 35.0800000  0  4G12G13G 9G 7
  20863988.684    20863992.170    -7840714.627 9  10031665.886 9
  21009389.737    21009392.548    28789442.619 9 -35504314.881 9
  22165119.433    22165123.082    70744890.691 8-101543849.298 9
  25907412.279    25907414.374    -8796518.102 3  10955542.013 2
 86  6 13  3 23 41.0800000  0  4G12G13G 9G 7
  20863520.810    20863524.750    -7843177.237 8  10029746.969 9
  21010669.393    21010672.592    28796168.146 9 -35499074.204 9
  22169195.504    22169198.852    70766310.577 9-101527158.485 9
  25903765.381    25903770.811    -8815674.033 1  10940615.330 1
 86  6 13  3 23 47.0800000  0  4G12G13G 9G 7
  20863056.274    20863060.013    -7845613.895 8  10027848.266 8
  21011950.837    21011954.237    28802901.249 9 -35493827.626 9
  22173273.681    22173278.181    70787744.152 8-101510456.997 9
  25900122.753    25900127.445    -8834822.933 7  10925694.111 8
 86  6 13  3 23 53.0800000  0  4G12G13G 9G 7
  20862598.055    20862601.792    -7848024.680 9  10025969.736 8
  21013233.764    21013236.467    28809641.812 9 -35488575.241 9
  22177355.267    22177358.727    70809191.416 9-101493744.857 9
  25896480.035    25896485.182    -8853961.409 8  10910781.012 9
 86  6 13  3 23 59.0800000  0  4G12G13G 9G 7
  20862144.102    20862147.678    -7850409.557 9  10024111.382 8
  21014516.876    21014520.565    28816389.872 9 -35483317.007 8
  22181440.085    22181442.006    70830652.334 8-101477022.063 9
                  25892846.583                    10895881.527 9
 86  6 13  3 24  5.0800000  0  4G12G13G 9G 7
  20861694.861    20861699.220    -7852768.497 9  10022273.253 9
  21015802.127    21015806.278    28823145.407 9 -35478052.969 9
  22185525.772    22185529.685    70852126.847 8-101460288.679 9
  25889208.677    25889213.067    -8909289.531 8  10881000.299 9
 86  6 13  3 24 11.0800000  0  4G12G13G 9G 7
  20861251.606    20861254.867    -7855101.494 9  10020455.339 9
  21017089.708    21017092.779    28829908.363 9 -35472783.131 9
  22189614.625    22189618.365    70873614.992 8-101443544.675 8
  25885577.354    25885583.223    -8928363.017 8  10866137.837 9
 86  6 13  3 24 17.0800000  0  4G12G13G 9G 7
  20860812.351    20860816.899    -7857408.591 9  10018657.581 9
  21018378.383    21018381.070    28836678.696 9 -35467507.542 9
  22193707.191    22193709.199    70895116.691 8-101426790.116 9
  25881952.492    25881957.561    -8947415.631 8  10851291.269 9
 86  6 13  3 24 23.0800000  0  4G12G13G 9G 7
  20860378.351    20860381.609    -7859689.817 9  10016880.005 8
  21019667.830    21019671.515    28843456.437 9 -35462226.187 9
  22197800.162    22197803.450    70916631.872 9-101410025.043 9
  25878330.577    25878334.001    -8966453.160 9  10836456.839 8
 86  6 13  3 24 29.0800000  0  4G12G13G 9G 7
  20859949.626    20859952.734    -7861945.179 9  10015122.588 9
  21020959.039    21020962.204    28850241.613 9 -35456939.026 9
  22201897.452    22201900.868    70938160.545 8-101393249.469 9
  25874709.953    25874713.820    -8985478.715 9  10821631.728 9
 86  6 13  3 24 35.0800000  0  4G12G13G 9G 7
  20859525.488    20859528.780    -7864174.546 9  10013385.415 9
  21022252.191    21022254.904    28857034.280 9 -35451646.043 9
  22205996.938    22205999.557    70959702.803 9-101376463.296 9
  25871091.790    25871094.497    -9004494.976 4  10806813.875 1
 86  6 13  3 24 41.0800000  0  4G12G13G 9G 7
  20859106.025    20859109.080    -7866377.981 9  10011668.450 9
  21023545.871    21023548.684    28863834.316 9 -35446347.320 9
  22210098.406    22210102.053    70981258.504 8-101359666.647 9
  25867472.914    25867478.195    -9023503.818 1  10792001.800 1
 86  6 13  3 24 47.0800000  0  4G12G13G 9G 7
  20858691.459    20858695.364    -7868555.517 8  10009971.670 8
  21024840.953    21024844.983    28870641.682 9 -35441042.870 9
  22214203.294    22214206.896    71002827.545 9-101342859.601 9
  25863855.448    25863859.621    -9042505.274 1  10777195.481 1
 86  6 13  3 24 53.0800000  0  4G12G13G 9G 7
  20858282.123    20858286.080    -7870707.182 9  10008295.039 9
  21026137.796    21026141.052    28877456.343 9 -35435732.738 9
  22218310.434    22218313.459    71024409.936 9-101326042.165 9
                  25860243.842    -9061495.800 6
 86  6 13  3 24 59.0800000  0  4G12G13G 9G 7
  20857878.008    20857880.909    -7872832.977 9  10006638.581 9
  21027436.184    21027439.469    28884278.263 9 -35430416.964 9
  22222418.590    22222422.665    71046005.661 9-101309214.336 9
                  25856632.417    -9080476.020 5
 86  6 13  3 25  5.0800000  0  4G12G13G 9G 7
  20857478.171    20857482.153    -7874932.696 9  10005002.427 8
  21028735.716    21028738.859    28891107.429 9 -35425095.528 8
  22226532.106    22226535.343    71067614.780 8-101292376.055 9
  25853027.540    25853012.873    -9099424.272 5  10839515.075 7
 86  6 13  3 25 11.0800000  0  4G12G13G 9G 7
  20857083.151    20857086.769    -7877006.456 9  10003386.519 9
  21030035.561    21030039.506    28897943.868 9 -35419768.442 9
  22230645.700    22230649.446    71089237.185 8-101275527.440 9
  25849426.198    25849430.457    -9118348.475 1  10824769.168 1
 86  6 13  3 25 17.0800000  0  4G12G13G 9G 7
  20856693.093    20856697.432    -7879054.213 9  10001790.868 8
  21031338.770    21031341.986    28904787.598 8 -35414435.661 9
  22234762.490    22234766.560    71110872.826 7-101258668.502 8
  25845830.973    25845832.527    -9137252.330 3  10810038.886 1
 86  6 13  3 25 23.0800000  0  4G12G13G 9G 7
  20856308.950    20856311.479    -7881075.952 9  10000215.474 7
  21032642.573    21032645.605    28911638.648 9 -35409097.180 8
  22238882.473    22238886.282    71132521.871 9-101241799.129 9
  25842234.896    25842239.327    -9156140.558 8  10795320.799 9
 86  6 13  3 25 29.0800000  0  4G12G13G 9G 7
  20855928.573    20855932.625    -7883071.693 9   9998660.351 7
  21033947.124    21033950.486    28918497.034 9 -35403752.989 8
  22243004.650    22243008.910    71154184.163 9-101224919.435 8
  25838642.829    25838647.145    -9175016.994 9  10780611.889 9
 86  6 13  3 25 35.0800000  0  4G12G13G 9G 7
  20855553.813    20855557.912    -7885041.517 9   9997125.423 9
  21035254.835    21035257.519    28925362.657 9 -35398403.145 9
  22247129.885    22247134.087    71175859.623 9-101208029.463 9
  25835053.485    25835056.497    -9193884.017 9  10765910.325 9
 86  6 13  3 25 41.0800000  0  4G12G13G 9G 7
  20855184.056    20855187.803    -7886985.375 9   9995610.728 9
  21036562.215    21036565.385    28932235.556 9 -35393047.645 9
  22251257.421    22251259.777    71197548.289 9-101191129.210 9
  25831464.910    25831468.395    -9212743.467 9  10751214.651 8
 86  6 13  3 25 47.0800000  0  4G12G13G 9G 7
  20854818.597    20854821.834    -7888903.198 9   9994116.324 9
  21037871.586    21037874.009    28939115.677 9 -35387686.517 8
  22255387.340    22255390.353    71219250.148 9-101174218.667 9
  25827876.364    25827881.684    -9231595.035 9  10736525.115 8
 86  6 13  3 25 53.0800000  0  4G12G13G 9G 7
  20854458.387    20854461.485    -7890795.013 9   9992642.179 8
  21039181.597    21039184.667    28946002.986 9 -35382319.771 8
  22259519.537    22259522.284    71240965.213 9-101157297.846 9
                  25824294.541                    10721844.866 9
 86  6 13  3 25 59.0800000  0  4G12G13G 9G 7
  20854103.353    20854108.456    -7892660.807 9   9991188.316 8
  21040493.807    21040497.357    28952897.499 9 -35376947.428 8
  22263653.882    22263657.032    71262693.417 9-101140366.783 8
  25820728.681    25820714.039    -9286661.913 9  10707179.542 8
 86  6 13  3 26  5.0800000  0  4G12G13G 9G 7
  20853753.311    20853757.807    -7894500.524 9   9989754.763 8
  21041807.294    21041811.161    28959799.280 9 -35371569.419 9
  22267790.906    22267794.493    71284434.802 9-101123425.445 8
  25817134.898    25817138.085    -9305458.100 9  10692533.386 9
 86  6 13  3 26 11.0800000  0  4G12G13G 9G 7
  20853408.936    20853412.416    -7896314.237 9   9988341.483 8
  21043121.501    21043124.912    28966708.287 9 -35366185.772 9
  22271930.440    22271934.878    71306189.214 8-101106473.967 9
  25813560.228    25813564.270    -9324229.944 3  10677905.970 1
 86  6 13  3 26 17.0800000  0  4G12G13G 9G 7
  20853068.455    20853072.152    -7898101.952 9   9986948.449 8
  21044438.075    21044441.415    28973624.483 9 -35360796.542 8
  22276073.295    22276076.258    71327956.638 8-101089512.347 8
  25809991.946    25809995.314    -9342981.651 3  10663294.255 1
 86  6 13  3 26 23.0800000  0  4G12G13G 9G 7
  20852732.780    20852737.010    -7899863.548 9   9985575.786 9
  21045755.696    21045758.892    28980547.779 9 -35355401.765 9
  22280217.580    22280221.160    71349737.057 9-101072540.589 9
  25806426.856    25806430.118    -9361717.908 3  10648694.575 2
 86  6 13  3 26 29.0800000  0  4G12G13G 9G 7
  20852402.995    20852405.920    -7901599.075 8   9984223.428 9
  21047074.447    21047077.311    28987478.281 9 -35350001.377 9
  22284365.465    22284367.649    71371530.530 9-101055558.668 8
  25802863.007    25802868.143    -9380442.289 1  10634104.164 3
 86  6 13  3 26 35.0800000  0  4G12G13G 9G 7
  20852077.510    20852082.601    -7903308.651 9   9982891.292 8
  21048393.954    21048397.279    28994415.805 9 -35344595.509 9
  22288514.432    22288517.372    71393336.859 9-101038566.729 9
  25799303.408    25799306.049    -9399157.290 6  10619521.046 5
 86  6 13  3 26 41.0800000  0  4G12G13G 9G 7
  20851757.593    20851760.390    -7904992.210 9   9981579.419 9
  21049715.278    21049718.818    29001360.365 9 -35339184.165 9
  22292666.455    22292669.086    71415156.063 8-101021564.750 8
  25795742.548    25795746.274    -9417864.529 2  10604943.990 1
 86  6 13  3 26 47.0800000  0  4G12G13G 9G 7
  20851441.675    20851445.678    -7906649.721 9   9980287.859 8
  21051038.736    21051042.130    29008312.008 9 -35333767.304 9
  22296821.319    22296824.580    71436988.306 8-101004552.613 8
  25792184.415    25792187.088    -9436563.461 2  10590373.395 1
 86  6 13  3 26 53.0800000  0  4G12G13G 9G 7
  20851131.417    20851134.968    -7908281.219 8   9979016.560 8
  21052362.294    21052366.275    29015270.716 9 -35328344.935 9
  22300978.024    22300981.804    71458833.243 9-100987530.599 9
                  25788632.868                    10575812.665 3
 86  6 13  3 26 59.0800000  0  4G12G13G 9G 7
  20850826.605    20850829.593    -7909886.759 9   9977765.489 9
  21053688.048    21053691.994    29022236.476 9 -35322917.065 9
  22305136.845    22305141.410    71480690.872 9-100970498.688 9
  25784977.583    25785080.123    -9491387.761 4  10561267.305 8
 86  6 13  3 27  5.0800000  0  4G12G13G 9G 7
  20850525.634    20850528.776    -7911466.218 9   9976534.738 8
  21055015.637    21055018.125    29029209.136 8 -35317483.835 9
  22309299.765    22309302.722    71502561.308 9-100953456.792 9
  25781529.985    25781533.005    -9510029.289 9  10546741.449 9
 86  6 13  3 27 11.0800000  0  4G12G13G 9G 7
  20850230.604    20850233.820    -7913019.711 9   9975324.231 9
  21056343.336    21056346.324    29036188.745 9 -35312045.187 9
  22313463.710    22313466.498    71524444.472 9-100936404.977 8
  25777988.232    25777990.434    -9528647.226 9  10532234.357 8
 86  6 13  3 27 17.0800000  0  4G12G13G 9G 7
  20849939.727    20849942.414    -7914547.162 9   9974134.004 8
  21057672.540    21057675.975    29043175.391 8 -35306601.036 8
  22317629.739    22317633.189    71546340.272 8-100919343.323 9
  25774448.652    25774451.427    -9547244.676 9  10517742.834 9
 86  6 13  3 27 23.0800000  0  4G12G13G 9G 7
  20849653.637    20849656.443    -7916048.515 9   9972964.114 9
  21059004.131    21059006.615    29050169.131 9 -35301151.376 8
  22321799.273    22321802.518    71568248.839 9-100902271.720 9
  25770911.363    25770915.028    -9565826.949 9  10503263.155 8
 86  6 13  3 27 29.0800000  0  4G12G13G 9G 7
  20849372.982    20849375.398    -7917523.746 8   9971814.593 8
  21060336.127    21060339.768    29057169.822 9 -35295696.299 8
  22325970.138    22325974.405    71590170.226 9-100885190.121 7
  25767378.654    25767381.430    -9584397.233 9  10488792.802 8
 86  6 13  3 27 35.0800000  0  4G12G13G 9G 7
  20849097.340    20849100.682    -7918972.816 9   9970685.444 8
  21061668.393    21061672.485    29064177.500 9 -35290235.768 9
  22330144.610    22330148.491    71612104.275 8-100868098.660 9
  25763846.055    25763849.433    -9602957.937 9  10474329.916 8
 86  6 13  3 27 41.0800000  0  4G12G13G 9G 7
  20848826.839    20848830.291    -7920395.833 9   9969576.599 8
  21063004.047    21063007.800    29071192.189 9 -35284769.784 8
  22334321.249    22334323.949    71634051.043 8-100850997.294 8
  25760315.751    25760319.443    -9621510.583 9  10459873.314 8
 86  6 13  3 27 47.0800000  0  4G12G13G 9G 7
  20848559.855    20848564.256    -7921792.751 9   9968488.083 9
  21064340.352    21064343.835    29078213.786 9 -35279298.401 8
  22338500.783    22338502.293    71656010.545 9-100833885.995 8
  25756786.939    25756790.944    -9640054.499 9  10445423.508 9
 86  6 13  3 27 53.0800000  0  4G12G13G 9G 7
  20848299.943    20848303.571    -7923163.516 9   9967419.957 9
  21065677.453    21065681.229    29085242.519 9 -35273821.478 9
  22342680.827    22342683.775    71677982.641 9-100816764.877 9
                  25753263.986                    10430984.341 8
 86  6 13  3 27 59.0800000  0  4G12G13G 9G 7
  20848044.395    20848048.123    -7924508.048 9   9966372.259 8
  21067016.628    21067020.523    29092278.253 9 -35268339.079 9
  22346864.263    22346868.326    71699967.356 9-100799633.935 9
  25749719.194    25749741.202    -9694814.522 9  10416561.324 8
 86  6 13  3 28  5.0800000  0  4G12G13G 9G 7
  20847792.639    20847796.682    -7925826.402 9   9965344.982 9
  21068356.427    21068360.139    29099320.965 9 -35262851.254 9
  22351050.517    22351053.779    71721964.703 8-100782493.157 8
  25746220.940    25746224.425    -9713298.727 9  10402158.275 9
 86  6 13  3 28 11.0800000  0  4G12G13G 9G 7
  20847546.636    20847551.251    -7927118.599 9   9964338.072 8
  21069698.024    21069702.570    29106370.634 9 -35257358.003 8
  22355239.204    22355242.431    71743974.600 9-100765342.594 8
  25742707.651    25742710.978    -9731757.986 9  10387774.050 8
 86  6 13  3 28 17.0800000  0  4G12G13G 9G 7
  20847305.311    20847309.969    -7928384.710 9   9963351.478 9
  21071042.151    21071044.740    29113427.283 9 -35251859.330 9
  22359429.608    22359432.949    71765996.957 8-100748182.329 8
  25739200.296    25739202.653    -9750197.850 9  10373405.337 8
 86  6 13  3 28 23.0800000  0  4G12G13G 9G 7
  20847069.839    20847073.811    -7929624.668 9   9962385.275 8
  21072385.030    21072388.487    29120490.792 9 -35246355.301 9
  22363622.365    22363625.778    71788031.773 9-100731012.344 8
  25735693.510    25735695.918    -9768622.390 9  10359048.550 8
 86  6 13  3 28 29.0800000  0  4G12G13G 9G 7
  20846838.602    20846842.287    -7930838.471 9   9961439.465 8
  21073730.909    21073734.764    29127561.168 9 -35240845.912 9
  22367817.892    22367821.155    71810079.081 9-100713832.626 8
  25732189.962    25732191.804    -9787035.011 9  10344701.039 8
 86  6 13  3 28 35.0800000  0  4G12G13G 9G 7
  20846613.766    20846616.768    -7932026.168 7   9960513.990 7
  21075077.770    21075080.978    29134638.436 9 -35235331.167 8
  22372016.120    22372019.354    71832138.814 9-100696643.223 9
  25728687.172    25728690.428    -9805438.037 8  10330361.018 8
 86  6 13  3 28 41.0800000  0  4G12G13G 9G 7
  20846392.245    20846395.161    -7933187.675 7   9959608.912 7
  21076424.974    21076429.230    29141722.500 9 -35229811.103 9
  22376214.995    22376218.386    71854210.989 9-100679444.148 9
  25725186.804    25725190.549    -9823832.904 9  10316027.369 9
 86  6 13  3 28 47.0800000  0  4G12G13G 9G 7
  20846175.375    20846179.951    -7934323.032 7   9958724.210 6
  21077774.792    21077778.480    29148813.378 9 -35224285.742 9
  22380418.664    22380421.511    71876295.604 8-100662235.355 9
  25721688.429    25721690.989    -9842218.506 8  10301700.930 8
 86  6 13  3 28 53.0800000  0  4G12G13G 9G 7
  20845964.164    20845968.740    -7935432.234 7   9957859.899 6
  21079125.372    21079129.235    29155911.138 9 -35218755.021 9
  22384623.348    22384626.410    71898392.539 9-100645016.963 8
                  25718194.782                    10287385.797 8
 86  6 13  3 28 59.0800000  0  4G12G13G 9G 7
  20845759.106    20845763.053    -7936515.282 7   9957015.968 7
  21080477.648    21080480.950    29163015.689 9 -35213219.010 9
  22388831.166    22388833.828    71920501.895 8-100627788.902 9
  25714652.155    25714703.453    -9896820.145 9  10273087.416 8
 86  6 13  3 29  5.0800000  0  4G12G13G 9G 7
  20845558.498    20845561.078    -7937572.098 7   9956192.478 7
  21081831.366    21081834.195    29170127.042 9 -35207677.693 9
  22393040.916    22393043.335    71942623.454 9-100610551.325 9
  25711214.690    25711217.630    -9915143.750 9  10258809.304 9
 86  6 13  3 29 11.0800000  0  4G12G13G 9G 7
  20845361.876    20845365.393    -7938602.707 7   9955389.396 8
  21083185.094    21083188.592    29177245.194 9 -35202131.092 9
  22397252.584    22397255.703    71964757.284 8-100593304.189 8
  25707732.190    25707735.713    -9933443.206 9  10244549.999 8
 86  6 13  3 29 17.0800000  0  4G12G13G 9G 7
  20845170.955    20845173.728    -7939607.147 7   9954606.722 7
  21084541.455    21084545.622    29184370.112 9 -35196579.207 8
  22401466.512    22401469.961    71986903.341 8-100576047.530 8
  25704253.045    25704255.947    -9951722.968 9  10230306.035 9
 86  6 13  3 29 23.0800000  0  4G12G13G 9G 7
  20844985.029    20844988.496    -7940585.414 6   9953844.428 6
  21085898.192    21085901.193    29191501.739 7 -35191022.092 9
  22405682.906    22405686.062    72009061.543 9-100558781.401 7
  25700777.005    25700779.692    -9969987.499 7  10216073.934 8
 86  6 13  3 29 29.0800000  0  4G12G13G 9G 7
  20844803.245    20844806.047    -7941537.491 7   9953102.544 6
  21087257.111    21087259.576    29198640.148 9 -35185459.701 9
  22409902.000    22409905.013    72031231.955 9-100541505.757 8
  25697305.137    25697307.237    -9988240.002 9  10201851.209 9
 86  6 13  3 29 35.0800000  0  4G12G13G 9G 7
  20844627.779    20844630.559    -7942463.452 7   9952381.018 7
  21088616.191    21088619.814    29205785.212 9 -35179892.130 9
  22414122.382    22414127.713    72053414.517 9-100524220.655 8
  25693833.040    25693836.224   -10006482.794 9  10187636.048 8
 86  6 13  3 29 41.0800000  0  4G12G13G 9G 7
  20844456.283    20844460.079    -7943363.356 7   9951679.792 6
  21089977.088    21089981.452    29212937.016 9 -35174319.293 9
  22418346.626    22418350.484    72075609.212 9-100506926.095 9
  25690362.506    25690366.244   -10024717.108 9  10173427.489 8
 86  6 13  3 29 47.0800000  0  4G12G13G 9G 7
  20844289.373    20844292.933    -7944237.092 7   9950998.958 6
  21091339.671    21091343.401    29220095.523 9 -35168741.233 9
  22422571.559    22422576.032    72097816.067 9-100489622.051 8
  25686894.935    25686897.525   -10042941.707 9  10159226.522 8
 86  6 13  3 29 53.0800000  0  4G12G13G 9G 7
  20844129.676    20844132.592    -7945084.581 7   9950338.579 6
  21092703.293    21092706.266    29227260.815 9 -35163157.886 9
  22426800.268    22426804.012    72120034.971 8-100472308.623 9
                  25683430.550   -10061150.977 9
 86  6 13  3 29 59.0800000  0  4G12G13G 9G 7
  20843972.260    20843975.197    -7945905.897 7   9949698.593 7
  21094067.617    21094071.227    29234432.804 9 -35157569.322 9
  22431031.010    22431034.095    72142265.921 8-100454985.803 8
  25679967.780    25679971.753   -10079337.783 9  10191444.425 8
 86  6 13  3 30  5.0800000  0  4G12G13G 9G 7
  20843820.969    20843823.613    -7946700.966 6   9949079.063 8
  21095434.349    21095436.839    29241611.499 9 -35151975.539 9
  22435263.297    22435266.868    72164508.997 9-100437653.534 8
  25676513.032    25676515.797   -10097498.485 9  10177293.258 8
 86  6 13  3 30 11.0800000  0  4G12G13G 9G 7
  20843674.012    20843678.276    -7947469.829 9   9948479.945 8
  21096801.634    21096804.720    29248796.864 9 -35146376.558 8
  22439498.924    22439502.049    72186764.069 9-100420311.932 9
  25673062.213    25673063.867   -10115635.076 9  10163161.341 8
 86  6 13  3 30 17.0800000  0  4G12G13G 9G 7
  20843532.651    20843535.813    -7948212.498 9   9947901.240 8
  21098170.509    21098173.265    29255988.814 9 -35140772.439 9
  22443736.187    22443738.965    72209031.077 9-100402961.020 8
  25669614.778    25669616.346   -10133752.069 9  10149044.200 8
 86  6 13  3 30 23.0800000  0  4G12G13G 9G 7
  20843396.356    20843400.105    -7948928.980 9   9947342.947 9
  21099540.381    21099543.724    29263187.412 9 -35135163.141 9
  22447975.693    22447978.067    72231310.028 9-100385600.803 8
  25666169.969    25666172.882   -10151853.965 9  10134938.830 7
 86  6 13  3 30 29.0800000  0  4G12G13G 9G 7
  20843265.270    20843268.260    -7949619.242 9   9946805.082 8
  21100911.506    21100914.544    29270392.683 9 -35129548.655 8
  22452216.315    22452221.322    72253600.896 9-100368231.306 8
  25662727.643    25662730.798   -10169943.750 9  10120842.899 8
 86  6 13  3 30 35.0800000  0  4G12G13G 9G 7
  20843139.077    20843142.254    -7950283.288 9   9946287.644 8
  21102283.432    21102286.474    29277604.502 9 -35123929.049 9
  22456460.868    22456464.202    72275903.635 9-100350852.548 8
  25659286.554    25659289.187   -10188023.681 9  10106754.638 9
 86  6 13  3 30 41.0800000  0  4G12G13G 9G 7
  20843017.964    20843020.740    -7950921.097 9   9945790.648 8
  21103656.846    21103660.174    29284822.871 9 -35118304.350 8
  22460708.430    22460711.495    72298218.270 9-100333464.527 8
  25655848.456    25655850.889   -10206094.822 9  10092673.238 8
 86  6 13  3 30 47.0800000  0  4G12G13G 9G 7
  20842900.630    20842905.180    -7951532.746 9   9945314.045 8
  21105031.868    21105034.932    29292047.805 9 -35112674.528 9
  22464956.184    22464959.840    72320544.798 8-100316067.234 7
  25652410.369    25652414.324   -10224155.795 9  10078599.758 8
 86  6 13  3 30 53.0800000  0  4G12G13G 9G 7
  20842790.131    20842793.024    -7952118.164 9   9944857.874 8
  21106408.544    21106412.017    29299279.325 9 -35107039.578 9
  22469207.319    22469210.320    72342883.033 9-100298660.815 8
                  25648979.652                    10064538.832 9
 86  6 13  3 30 59.0800000  0  4G12G13G 9G 7
  20842682.741    20842685.906    -7952677.295 9   9944422.184 9
  21107785.678    21107788.504    29306517.391 9 -35101399.529 9
  22473460.575    22473463.239    72365233.027 9-100281245.251 9
  25645546.520    25645551.750   -10278367.779 9  10050496.011 8
 86  6 13  3 31  5.0800000  0  4G12G13G 9G 7
  20842581.903    20842585.223    -7953210.196 9   9944006.931 8
  21109163.790    21109167.198    29313761.941 9 -35095754.421 9
  22477715.008    22477717.989    72387594.706 8-100263820.576 8
  25642122.955    25642127.636   -10296362.998 8  10036473.783 9
 86  6 13  3 31 11.0800000  0  4G12G13G 9G 7
  20842485.730    20842488.808    -7953716.780 9   9943612.181 9
  21110544.473    21110547.367    29321013.112 9 -35090104.159 9
  22481972.296    22481976.826    72409968.176 9-100246386.709 9
  25638702.980    25638707.688   -10314334.807 9  10022470.167 9
 86  6 13  3 31 17.0800000  0  4G12G13G 9G 7
  20842393.678    20842398.030    -7954197.081 9   9943237.924 8
  21111924.720    21111928.246    29328270.761 9 -35084448.850 9
  22486232.028    22486236.719    72432353.444 8-100228943.648 8
  25635287.621    25635291.252   -10332286.745 9  10008481.660 9
 86  6 13  3 31 23.0800000  0  4G12G13G 9G 7
  20842307.194    20842311.287    -7954651.156 9   9942884.094 8
  21113307.716    21113310.545    29335534.956 9 -35078788.436 9
  22490494.679    22490498.358    72454750.369 8-100211491.508 8
  25631873.676    25631877.733   -10350223.472 9   9994504.995 9
 86  6 13  3 31 29.0800000  0  4G12G13G 9G 7
  20842226.046    20842229.324    -7955079.032 9   9942550.687 9
  21114691.226    21114694.759    29342805.731 9 -35073122.902 9
  22494759.583    22494762.158    72477158.964 8-100194030.259 8
  25628462.906    25628467.092   -10368148.074 9   9980537.782 9
 86  6 13  3 31 35.0800000  0  4G12G13G 9G 7
  20842149.219    20842153.313    -7955480.615 9   9942237.754 8
  21116075.858    21116078.884    29350082.980 9 -35067452.317 8
  22499025.096    22499028.285    72499579.243 9-100176559.917 8
  25625055.300    25625056.754   -10386062.714 9   9966578.327 9
 86  6 13  3 31 41.0800000  0  4G12G13G 9G 7
  20842078.145    20842082.311    -7955855.851 9   9941945.365 8
  21117462.607    21117464.695    29357366.726 9 -35061776.672 9
  22503293.961    22503297.763    72522011.109 7-100159080.548 8
  25621646.923    25621650.665   -10403968.468 9   9952625.788 9
 86  6 13  3 31 47.0800000  0  4G12G13G 9G 7
  20842011.879    20842015.715    -7956204.732 8   9941673.512 8
  21118849.631    21118852.664    29364657.005 9 -35056095.936 9
  22507564.319    22507568.008    72544454.645 9-100141592.079 9
  25618241.814    25618244.526   -10421863.236 9   9938681.806 9
 86  6 13  3 31 53.0800000  0  4G12G13G 9G 7
  20841950.262    20841953.497    -7956527.315 9   9941422.143 9
  21120237.800    21120240.401    29371953.793 9 -35050410.127 9
  22511838.286    22511841.028    72566909.749 8-100124094.611 9
                  25614843.617                     9924751.056 9
 86  6 13  3 31 59.0800000  0  4G12G13G 9G 7
  20841894.370    20841898.606    -7956823.556 9   9941191.303 9
  21121627.172    21121631.369    29379257.021 9 -35044719.299 8
  22516113.403    22516116.357    72589376.397 8-100106588.136 9
  25611442.865    25611445.305   -10475968.865 9   9910838.991 9
 86  6 13  3 32  5.0800000  0  4G12G13G 9G 7
  20841843.029    20841847.292    -7957093.549 8   9940980.923 9
  21123019.153    21123021.962    29386566.700 9 -35039023.447 9
  22520390.527    22520393.356    72611854.550 9-100089072.691 8
  25608049.627    25608052.818   -10493795.986 8   9896947.727 9
 86  6 13  3 32 11.0800000  0  4G12G13G 9G 7
  20841796.351    20841800.216    -7957337.290 9   9940790.999 9
  21124410.979    21124413.852    29393882.698 9 -35033322.671 8
  22524670.349    22524674.031    72634344.204 8-100071548.295 9
  25604661.002    25604665.121   -10511599.261 9   9883075.054 9
 86  6 13  3 32 17.0800000  0  4G12G13G 9G 7
  20841754.954    20841759.005    -7957554.765 9   9940621.535 8
  21125805.480    21125806.543    29401205.082 9 -35027616.918 9
  22528951.479    22528955.742    72656845.300 8-100054014.987 9
  25601277.713    25601280.970   -10529383.143 8   9869217.493 9
 86  6 13  3 32 23.0800000  0  4G12G13G 9G 7
  20841719.564    20841722.774    -7957745.970 8   9940472.545 8
  21127198.645    21127201.145    29408533.834 9 -35021906.199 9
  22533235.659    22533239.912    72679357.735 8-100036472.833 8
  25597895.892    25597899.970   -10547151.919 9   9855371.693 9
 86  6 13  3 32 29.0800000  0  4G12G13G 9G 7
  20841687.555    20841691.123    -7957911.007 9   9940343.939 9
  21128594.901    21128597.999    29415868.941 9 -35016190.531 9
  22537522.198    22537526.367    72701881.459 9-100018921.879 9
  25594516.456    25594521.185   -10564908.680 9   9841535.270 9
 86  6 13  3 32 35.0800000  0  4G12G13G 9G 7
  20841661.229    20841664.620    -7958049.832 9   9940235.765 9
  21129992.108    21129995.095    29423210.369 9 -35010469.942 9
  22541809.862    22541814.033    72724416.503 9-100001362.105 9
  25591139.428    25591143.943   -10582655.504 9   9827706.576 9
 86  6 13  3 32 41.0800000  0  4G12G13G 9G 7
  20841640.407    20841643.555    -7958162.380 9   9940148.064 8
  21131389.464    21131393.297    29430558.104 9 -35004744.440 9
  22546100.768    22546104.822    72746962.790 8 -99983793.579 9
  25587763.691    25587768.347   -10600393.083 9   9813885.080 9
 86  6 13  3 32 47.0800000  0  4G12G13G 9G 7
  20841623.177    20841627.014    -7958248.657 9   9940080.835 9
  21132789.647    21132792.777    29437912.158 9 -34999013.998 9
  22550394.634    22550397.226    72769520.512 8 -99966216.136 9
  25584390.234    25584395.270   -10618119.246 9   9800072.493 9
 86  6 13  3 32 53.0800000  0  4G12G13G 9G 7
  20841611.945    20841615.080    -7958308.740 9   9940034.020 9
  21134189.727    21134194.372    29445272.404 9 -34993278.743 8
  22554687.759    22554691.169    72792089.398 9 -99948630.002 8
                  25581026.112                     9786273.835 9
 86  6 13  3 32 59.0800000  0  4G12G13G 9G 7
  20841605.262    20841609.012    -7958342.534 9   9940007.684 8
  21135591.645    21135594.752    29452638.967 9 -34987538.570 9
  22558984.883    22558988.579    72814669.544 8 -99931035.088 9
  25577656.576    25577660.713   -10672053.741 9   9772494.340 9
 86  6 13  3 33  5.0800000  0  4G12G13G 9G 7
  20841604.001    20841608.095    -7958349.916 9   9940001.929 9
  21136993.836    21136997.822    29460011.763 9 -34981793.527 9
  22563283.593    22563288.168    72837260.994 9 -99913431.366 9
  25574295.890    25574300.605   -10689710.617 9   9758735.744 9
 86  6 13  3 33 11.0800000  0  4G12G13G 9G 7
  20841607.620    20841611.442    -7958330.978 9   9940016.688 9
  21138398.593    21138402.467    29467390.873 9 -34976043.571 9
  22567585.076    22567588.314    72859863.660 9 -99895818.908 9
  25570939.488    25570945.878   -10707343.049 9   9744995.809 9
 86  6 13  3 33 17.0800000  0  4G12G13G 9G 7
  20841615.605    20841619.654    -7958285.749 9   9940051.933 9
  21139803.653    21139806.819    29474776.335 9 -34970288.658 8
  22571889.154    22571891.906    72882477.498 9 -99878197.746 8
  25567589.347    25567593.692   -10724956.721 9   9731270.885 9
 86  6 13  3 33 23.0800000  0  4G12G13G 9G 7
  20841629.998    20841632.994    -7958214.130 9   9940107.737 9
  21141210.647    21141214.004    29482168.168 9 -34964528.792 9
  22576193.301    22576197.789    72905102.557 8 -99860567.832 8
  25564240.704    25564244.318   -10742555.271 9   9717557.737 9
 86  6 13  3 33 29.0800000  0  4G12G13G 9G 7
  20841648.286    20841652.251    -7958116.163 9   9940184.062 9
  21142618.248    21142621.996    29489566.284 9 -34958764.030 9
  22580501.648    22580505.123    72927738.751 9 -99842929.239 9
  25560893.363    25560897.876   -10760141.471 9   9703854.202 9
 86  6 13  3 33 35.0800000  0  4G12G13G 9G 7
  20841672.253    20841675.890    -7957991.883 8   9940280.920 9
  21144027.532    21144031.182    29496970.648 9 -34952994.391 8
  22584811.352    22584814.690    72950386.074 9 -99825281.987 9
  25557549.154    25557554.269   -10777717.448 9   9690158.641 9
 86  6 13  3 33 41.0800000  0  4G12G13G 9G 7
  20841700.357    20841703.907    -7957841.277 9   9940398.263 9
  21145438.682    21145440.866    29504381.306 9 -34947219.851 8
  22589122.732    22589126.240    72973044.558 9 -99807626.038 9
  25554206.162    25554211.098   -10795283.868 9   9676470.523 9
 86  6 13  3 33 47.0800000  0  4G12G13G 9G 7
  20841733.266    20841737.701    -7957664.321 9   9940536.159 9
  21146847.948    21146852.760    29511798.234 9 -34941440.425 9
  22593437.011    22593440.515    72995714.032 9 -99789961.513 9
  25550865.945    25550870.551   -10812838.132 8   9662791.875 9
 86  6 13  3 33 53.0800000  0  4G12G13G 9G 7
  20841772.487    20841777.024    -7957461.022 9   9940694.566 8
  21148261.868    21148265.170    29519221.439 9 -34935656.102 9
  22597752.941    22597756.872    73018394.623 9 -99772288.331 9
                  25547532.761                     9649127.820 9
 86  6 13  3 33 59.0800000  0  4G12G13G 9G 7
  20841816.116    20841819.554    -7957231.389 9   9940873.499 8
  21149675.125    21149678.987    29526650.906 9 -34929866.912 9
  22602070.654    22602074.542    73041086.222 9 -99754606.575 9
  25544197.323    25544201.023   -10866601.860 9   9635483.532 9
 86  6 13  3 34  5.0800000  0  4G12G13G 9G 7
  20841865.768    20841869.317    -7956975.417 9   9941072.962 8
  21151090.406    21151094.529    29534086.531 9 -34924072.925 9
  22606391.462    22606394.357    73063788.750 9 -99736916.289 9
  25540869.968    25540874.171   -10884085.012 9   9621860.286 9
 86  6 13  3 34 11.0800000  0  4G12G13G 9G 7
  20841918.525    20841922.720    -7956693.142 9   9941292.918 9
  21152506.792    21152509.502    29541528.279 9 -34918274.151 9
  22610713.107    22610717.204    73086502.278 9 -99719217.439 8
  25537547.066    25537552.042   -10901544.411 8   9608255.568 9
 86  6 13  3 34 17.0800000  0  4G12G13G 9G 7
  20841977.493    20841981.587    -7956384.604 9   9941533.333 9
  21153923.661    21153927.154    29548976.234 9 -34912470.553 9
  22615037.452    22615041.671    73109226.648 8 -99701510.144 9
  25534227.341    25534232.500   -10918984.687 8   9594665.757 9
 86  6 13  3 34 23.0800000  0  4G12G13G 9G 7
  20842041.867    20842045.662    -7956049.747 9   9941794.247 8
  21155342.423    21155345.564    29556430.316 8 -34906662.171 8
  22619363.873    22619367.729    73131961.863 8 -99683794.408 9
  25530911.467    25530916.909   -10936409.913 8   9581087.671 9
 86  6 13  3 34 29.0800000  0  4G12G13G 9G 7
  20842110.867    20842114.059    -7955688.503 9   9942075.742 9
  21156762.107    21156765.758    29563890.583 9 -34900848.980 9
  22623693.172    22623695.298    73154707.907 8 -99666070.210 8
  25527598.988    25527603.058   -10953822.676 8   9567519.291 9
 86  6 13  3 34 35.0800000  0  4G12G13G 9G 7
  20842184.387    20842188.438    -7955300.885 9   9942377.784 8
  21158182.323    21158186.699    29571357.063 9 -34895030.933 8
  22628022.741    22628026.579    73177464.934 8 -99648337.475 8
  25524287.204    25524292.026   -10971225.085 9   9553958.979 9
 86  6 13  3 34 41.0800000  0  4G12G13G 9G 7
  20842263.331    20842266.795    -7954886.971 8   9942700.311 8
  21159604.308    21159608.104    29578829.767 9 -34889208.058 8
  22632355.777    22632358.750    73200232.827 8 -99630596.257 8
  25520977.587    25520981.724   -10988617.578 9   9540406.399 9
 86  6 13  3 34 47.0800000  0  4G12G13G 9G 7
  20842347.439    20842350.303    -7954446.719 9   9943043.356 9
  21161027.648    21161031.900    29586308.494 9 -34883380.477 9
  22636690.171    22636693.683    73223011.494 8 -99612846.652 8
  25517670.576    25517675.398   -11005997.428 9   9526863.664 9
 86  6 13  3 34 53.0800000  0  4G12G13G 9G 7
  20842436.097    20842439.650    -7953980.163 9   9943406.913 9
  21162452.111    21162455.525    29593793.275 9 -34877548.175 8
  22641026.755    22641030.091    73245800.825 8 -99595088.737 9
                  25514371.884                     9513336.210 9
 86  6 13  3 34 59.0800000  0  4G12G13G 9G 7
  20842529.894    20842532.601    -7953487.289 9   9943790.971 8
  21163877.605    21163880.924    29601284.117 9 -34871711.156 8
  22645365.666    22645369.109    73268600.843 9 -99577322.497 9
  25511068.485    25511072.842   -11059583.566 9   9499828.905 9
 86  6 13  3 35  5.0800000  0  4G12G13G 9G 7
  20842627.754    20842631.534    -7952968.100 9   9944195.533 9
  21165303.550    21165307.570    29608780.892 9 -34865869.510 8
  22649706.503    22649710.289    73291411.597 8 -99559547.881 9
  25507775.311    25507780.132   -11076890.877 9   9486342.689 9
 86  6 13  3 35 11.0800000  0  4G12G13G 9G 7
  20842732.355    20842736.076    -7952422.652 9   9944620.551 8
  21166731.809    21166735.156    29616283.714 9 -34860023.160 8
  22654048.791    22654052.916    73314232.946 8 -99541765.018 8
  25504486.362    25504489.896   -11094175.152 9   9472874.812 9
 86  6 13  3 35 17.0800000  0  4G12G13G 9G 7
  20842841.033    20842845.000    -7951850.928 8   9945066.048 8
  21168160.690    21168164.094    29623792.519 9 -34854172.135 9
  22658393.781    22658397.589    73337064.818 9 -99523973.960 8
  25501200.803    25501204.785   -11111439.768 8   9459421.866 9
 86  6 13  3 35 23.0800000  0  4G12G13G 9G 7
  20842954.818    20842957.726    -7951252.930 9   9945532.027 9
  21169591.420    21169593.926    29631307.233 9 -34848316.514 9
  22662740.807    22662743.957    73359907.230 9 -99506174.671 9
  25497918.107    25497922.320   -11128689.578 9   9445980.454 9
 86  6 13  3 35 29.0800000  0  4G12G13G 9G 7
  20843073.427    20843076.603    -7950628.616 9   9946018.509 8
  21171022.500    21171025.437    29638827.911 9 -34842456.245 9
  22667090.074    22667092.427    73382760.142 9 -99488367.219 9
  25494637.862    25494641.980   -11145926.918 8   9432548.774 9
 86  6 13  3 35 35.0800000  0  4G12G13G 9G 7
  20843197.545    20843200.034    -7949977.967 9   9946525.507 9
  21172454.369    21172457.336    29646354.624 9 -34836591.277 9
  22671440.183    22671443.014    73405623.529 9 -99470551.597 9
  25491359.616    25491364.239   -11163153.846 9   9419125.192 9
 86  6 13  3 35 41.0800000  0  4G12G13G 9G 7
  20843325.597    20843329.476    -7949301.000 9   9947053.012 9
  21173888.356    21173890.799    29653887.264 9 -34830721.679 8
  22675793.669    22675796.034    73428497.449 9 -99452727.763 9
  25488083.670    25488086.895   -11180370.612 9   9405709.545 9
 86  6 13  3 35 47.0800000  0  4G12G13G 9G 7
  20843458.959    20843463.352    -7948597.703 8   9947601.030 8
  21175322.103    21175325.452    29661425.914 9 -34824847.411 9
  22680148.357    22680150.932    73451381.883 9 -99434895.742 8
  25484810.578    25484813.713   -11197574.018 9   9392304.294 9
 86  6 13  3 35 53.0800000  0  4G12G13G 9G 7
  20843598.513    20843602.779    -7947868.165 9   9948169.501 9
  21176757.893    21176762.196    29668970.464 9 -34818968.540 8
  22684505.023    22684508.116    73474276.757 9 -99417055.587 8
                  25481544.497                     9378914.982 9
 86  6 13  3 35 59.0800000  0  4G12G13G 9G 7
  20843742.392    20843745.758    -7947112.291 9   9948758.508 9
  21178195.349    21178197.857    29676520.937 9 -34813085.050 9
  22688863.783    22688866.604    73497182.083 9 -99399207.278 8
  25478275.225    25478280.491   -11250983.568 9   9365546.226 9
 86  6 13  3 36  5.0800000  0  4G12G13G 9G 7
  20843891.035    20843894.885    -7946330.100 9   9949367.994 8
  21179633.124    21179636.378    29684077.351 9 -34807196.926 9
  22693223.618    22693227.770    73520097.792 8 -99381350.889 8
  25475016.470    25475020.441   -11268112.888 9   9352198.704 9
 86  6 13  3 36 11.0800000  0  4G12G13G 9G 7
  20844045.273    20844049.168    -7945521.576 9   9949998.017 8
  21181071.656    21181075.361    29691639.663 9 -34801304.226 9
  22697586.863    22697589.134    73543023.872 9 -99363486.406 9
  25471760.885    25471765.285   -11285218.510 9   9338869.660 9
 86  6 13  3 36 17.0800000  0  4G12G13G 9G 7
  20844204.418    20844207.597    -7944686.652 9   9950648.596 8
  21182513.119    21182515.556    29699207.943 9 -34795406.867 8
  22701951.158    22701953.687    73565960.475 9 -99345613.736 8
  25468509.493    25468513.149   -11302305.136 9   9325555.420 9
 86  6 13  3 36 23.0800000  0  4G12G13G 9G 7
  20844366.957    20844371.697    -7943825.368 9   9951319.734 9
  21183954.174    21183957.114    29706782.145 9 -34789504.884 8
  22706318.283    22706320.826    73588907.505 9 -99327732.938 8
  25465260.698    25465265.548   -11319376.590 9   9312252.993 9
 86  6 13  3 36 29.0800000  0  4G12G13G 9G 7
  20844536.778    20844540.171    -7942937.661 9   9952011.443 9
  21185396.347    21185398.833    29714362.177 9 -34783598.369 9
  22710686.993    22710689.837    73611864.824 9 -99309844.122 8
  25462015.072    25462018.651   -11336435.580 9   9298960.278 9
 86  6 13  3 36 35.0800000  0  4G12G13G 9G 7
  20844710.948    20844714.714    -7942023.540 8   9952723.749 8
  21186839.813    21186843.526    29721948.133 9 -34777687.236 8
  22715056.583    22715060.118    73634832.442 9 -99291947.285 9
  25458770.584    25458774.370   -11353483.849 9   9285675.922 9
 86  6 13  3 36 41.0800000  0  4G12G13G 9G 7
  20844889.714    20844893.720    -7941083.027 9   9953456.620 8
  21188284.331    21188287.347    29729540.042 9 -34771771.451 9
  22719430.331    22719432.263    73657810.340 9 -99274042.425 8
  25455529.516    25455531.590   -11370521.508 9   9272399.839 9
 86  6 13  3 36 47.0800000  0  4G12G13G 9G 7
  20845073.873    20845077.080    -7940116.171 8   9954210.007 9
  21189730.390    21189732.798    29737137.845 9 -34765851.085 9
  22723804.034    22723806.542    73680798.579 9 -99256129.511 8
  25452289.070    25452291.846   -11387545.030 9   9259134.759 9
 86  6 13  3 36 53.0800000  0  4G12G13G 9G 7
  20845262.653    20845266.161    -7939122.982 9   9954983.921 9
  21191176.911    21191180.614    29744741.486 9 -34759926.170 8
  22728181.432    22728184.200    73703797.021 8 -99238208.659 9
                  25449056.246                     9245886.215 8
 86  6 13  3 36 59.0800000  0  4G12G13G 9G 7
  20845456.629    20845460.877    -7938103.505 9   9955778.317 9
  21192624.767    21192627.630    29752351.004 9 -34753996.680 9
  22732559.730    22732562.129    73726805.573 9 -99220279.911 8
  25445824.605    25445825.728   -11440779.196 9   9232658.174 9
 86  6 13  3 37  5.0800000  0  4G12G13G 9G 7
  20845655.698    20845659.546    -7937057.631 9   9956593.290 8
  21194073.573    21194077.708    29759966.380 9 -34748062.619 9
  22736939.991    22736941.984    73749824.320 9 -99202343.221 8
  25442598.905    25442600.814   -11457727.792 9   9219452.370 8
 86  6 13  3 37 11.0800000  0  4G12G13G 9G 7
  20845859.501    20845864.167    -7935985.429 9   9957428.767 8
  21195523.844    21195527.372    29767587.510 9 -34742124.078 9
  22741321.944    22741325.317    73772853.203 8 -99184398.646 7
  25439378.262    25439380.169   -11474652.343 9   9206264.412 9
 86  6 13  3 37 17.0800000  0  4G12G13G 9G 7
  20846067.970    20846072.108    -7934886.897 9   9958284.760 8
  21196975.867    21196979.252    29775214.407 9 -34736181.043 9
  22745705.643    22745708.816    73795892.150 9 -99166446.223 8
  25436160.734    25436163.536   -11491558.030 9   9193091.158 9
 86  6 13  3 37 23.0800000  0  4G12G13G 9G 7
  20846282.953    20846287.176    -7933762.039 9   9959161.268 8
  21198427.918    21198431.253    29782846.981 9 -34730233.580 9
  22750092.718    22750095.460    73818941.069 9 -99148486.026 8
  25432946.817    25432949.530   -11508448.629 9   9179929.654 9
 86  6 13  3 37 29.0800000  0  4G12G13G 9G 7
  20846502.013    20846505.334    -7932610.866 9   9960058.291 9
  21199881.399    21199885.188    29790485.430 9 -34724281.547 9
  22754480.693    22754482.793    73842000.095 8 -99130517.950 9
  25429734.876    25429737.958   -11525326.618 9   9166777.971 9
 86  6 13  3 37 35.0800000  0  4G12G13G 9G 7
  20846726.279    20846729.043    -7931433.335 9   9960975.848 9
  21201336.358    21201339.310    29798129.681 9 -34718324.988 9
  22758869.695    22758873.673    73865069.100 9 -99112542.111 9
  25426525.059    25426528.694   -11542193.703 9   9153634.800 9
 86  6 13  3 37 41.0800000  0  4G12G13G 9G 7
  20846955.324    20846957.874    -7930229.451 9   9961913.939 8
  21202791.642    21202795.566    29805779.625 9 -34712363.994 8
  22763262.269    22763264.630    73888148.204 8 -99094558.406 8
  25423316.839    25423320.530   -11559049.819 9   9140500.180 9
 86  6 13  3 37 47.0800000  0  4G12G13G 9G 7
  20847189.094    20847192.201    -7928999.239 9   9962872.545 9
  21204248.828    21204251.721    29813435.321 9 -34706398.505 9
  22767655.764    22767658.871    73911237.200 9 -99076566.976 9
                  25420115.763                     9127377.069 9
 86  6 13  3 37 53.0800000  0  4G12G13G 9G 7
  20847428.701    20847432.880    -7927742.653 9   9963851.696 8
  21205706.746    21205710.575    29821096.837 9 -34700428.500 9
  22772051.269    22772053.432    73934336.207 9 -99058567.763 8
  25416929.205    25416914.624   -11612144.703 9   9114271.079 9
 86  6 13  3 37 59.0800000  0  4G12G13G 9G 7
  20847672.645    20847677.081    -7926459.606 9   9964851.476 8
  21207165.798    21207168.475    29828764.140 9 -34694453.974 9
  22776449.102    22776451.201    73957445.219 9 -99040560.738 7
  25413716.148    25413719.969   -11628936.725 9   9101186.658 9
 86  6 13  3 38  5.0800000  0  4G12G13G 9G 7
  20847921.651    20847924.802    -7925150.170 9   9965871.816 9
  21208626.348    21208629.424    29836437.150 9 -34688475.008 9
  22780848.221    22780851.554    73980564.108 8 -99022546.031 9
  25410525.849    25410528.968   -11645701.128 9   9088123.513 9
 86  6 13  3 38 11.0800000  0  4G12G13G 9G 7
  20848175.554    20848178.902    -7923814.311 8   9966912.742 9
  21210087.928    21210090.468    29844115.840 9 -34682491.620 8
  22785249.075    22785252.186    74003692.811 8 -99004523.655 9
  25407341.062    25407343.649   -11662441.519 8   9075078.674 9
 86  6 13  3 38 17.0800000  0  4G12G13G 9G 7
  20848435.222    20848438.359    -7922452.053 9   9967974.244 9
  21211549.083    21211552.766    29851800.298 9 -34676503.725 9
  22789653.150    22789655.393    74026831.430 9 -98986493.567 9
  25404159.018    25404161.291   -11679163.574 9   9062048.515 8
 86  6 13  3 38 23.0800000  0  4G12G13G 9G 7
  20848698.797    20848702.103    -7921063.484 9   9969056.262 8
  21213012.820    21213016.139    29859490.510 9 -34670511.348 9
  22794057.454    22794060.430    74049979.951 8 -98968455.754 7
  25400980.031    25400981.846   -11695870.523 9   9049030.115 9
 86  6 13  3 38 29.0800000  0  4G12G13G 9G 7
  20848968.366    20848971.374    -7919648.608 9   9970158.755 8
  21214477.166    21214481.149    29867186.388 9 -34664514.562 9
  22798463.961    22798467.277    74073138.195 9 -98950410.377 8
  25397802.417    25397805.819   -11712564.732 9   9036021.641 9
 86  6 13  3 38 35.0800000  0  4G12G13G 9G 7
  20849242.631    20849246.682    -7918207.398 9   9971281.774 9
  21215942.999    21215946.452    29874887.890 9 -34658513.390 9
  22802872.689    22802875.445    74096306.218 8 -98932357.379 8
  25394627.929    25394629.913   -11729247.962 9   9023021.733 9
 86  6 13  3 38 41.0800000  0  4G12G13G 9G 7
  20849522.233    20849525.939    -7916739.832 9   9972425.330 8
  21217409.905    21217413.441    29882595.023 9 -34652507.826 9
  22807283.064    22807287.292    74119483.992 9 -98914296.788 7
  25391454.694    25391457.326   -11745919.814 9   9010030.678 8
 86  6 13  3 38 47.0800000  0  4G12G13G 9G 7
  20849805.966    20849810.034    -7915245.922 9   9973589.415 8
  21218877.378    21218880.319    29890307.759 9 -34646497.908 9
  22811695.684    22811698.523    74142671.404 9 -98896228.666 8
                  25388288.322                     8997051.761 8
 86  6 13  3 38 53.0800000  0  4G12G13G 9G 7
  20850095.298    20850098.133    -7913725.700 9   9974774.003 8
  21220346.224    21220348.684    29898026.147 9 -34640483.578 9
  22816110.625    22816113.651    74165868.530 9 -98878152.997 8
  25385144.641    25385122.737   -11798832.463 9   8984090.475 9
 86  6 13  3 38 59.0800000  0  4G12G13G 9G 7
  20850389.425    20850392.816    -7912179.081 8   9975979.156 8
  21221816.142    21221818.832    29905750.119 9 -34634464.897 8
  22820525.943    22820529.192    74189075.238 8 -98860069.846 8
  25381959.553    25381963.305   -11815438.264 9   8971151.134 9
 86  6 13  3 39  5.0800000  0  4G12G13G 9G 7
  20850688.730    20850693.251    -7910606.093 9   9977204.858 9
  21223286.334    21223289.694    29913479.745 9 -34628441.816 8
  22824944.761    22824947.030    74212291.605 9 -98841979.174 9
  25378805.979    25378809.070   -11832016.469 9   8958233.071 8
 86  6 13  3 39 11.0800000  0  4G12G13G 9G 7
  20850992.713    20850996.379    -7909006.853 9   9978451.023 9
  21224758.227    21224762.046    29921214.836 9 -34622414.463 9
  22829363.161    22829366.661    74235517.532 8 -98823881.048 8
  25375655.141    25375657.308   -11848571.378 9   8945333.147 9
 86  6 13  3 39 17.0800000  0  4G12G13G 9G 7
  20851302.865    20851306.629    -7907381.278 8   9979717.702 8
  21226231.787    21226234.291    29928955.488 9 -34616382.793 9
  22833784.734    22833788.656    74258752.926 8 -98805775.560 8
  25372507.347    25372511.629   -11865107.603 9   8932447.773 9
 86  6 13  3 39 23.0800000  0  4G12G13G 9G 7
  20851616.879    20851620.201    -7905729.347 9   9981004.916 9
  21227705.999    21227708.780    29936701.699 9 -34610346.785 8
  22838208.789    22838211.414    74281997.833 8 -98787662.646 8
  25369364.573    25369366.860   -11881628.641 9   8919574.256 8
 86  6 13  3 39 29.0800000  0  4G12G13G 9G 7
  20851936.417    20851939.894    -7904051.140 9   9982312.606 8
  21229180.990    21229183.771    29944453.394 9 -34604306.498 9
  22842633.796    22842636.532    74305252.248 8 -98769542.326 9
  25366223.294    25366226.475   -11898136.967 9   8906710.635 9
 86  6 13  3 39 35.0800000  0  4G12G13G 9G 7
  20852260.692    20852264.713    -7902346.614 9   9983640.805 9
  21230657.277    21230660.639    29952210.666 9 -34598261.875 9
  22847060.644    22847064.319    74328516.188 8 -98751414.582 9
  25363083.091    25363086.104   -11914634.132 9   8893855.705 9
 86  6 13  3 39 41.0800000  0  4G12G13G 9G 7
  20852590.517    20852594.224    -7900615.755 9   9984989.518 9
  21232134.136    21232137.576    29959973.513 9 -34592212.904 8
  22851489.584    22851493.351    74351789.525 9 -98733279.520 8
  25359947.352    25359949.601   -11931119.645 9   8881009.869 9
 86  6 13  3 39 47.0800000  0  4G12G13G 9G 7
  20852924.867    20852928.487    -7898858.640 9   9986358.703 9
  21233612.919    21233615.007    29967741.846 9 -34586159.653 8
  22855919.971    22855922.465    74375072.278 8 -98715137.112 7
                  25356814.903                     8868176.816 8
 86  6 13  3 39 53.0800000  0  4G12G13G 9G 7
  20853263.478    20853268.588    -7897075.150 9   9987748.434 8
  21235092.032    21235094.456    29975515.667 9 -34580102.133 8
  22860352.640    22860355.874    74398364.427 8 -98696987.387 9
  25353714.944    25353685.711   -11983847.850 9   8855362.095 9
 86  6 13  3 39 59.0800000  0  4G12G13G 9G 7
  20853608.613    20853611.605    -7895265.331 9   9989158.693 9
  21236572.403    21236575.737    29983294.970 9 -34574040.339 9
  22864786.936    22864789.052    74421665.994 9 -98678830.337 9
  25350559.269    25350562.641   -12000265.363 9   8842569.578 8
 86  6 13  3 40  5.0800000  0  4G12G13G 9G 7
  20853958.558    20853961.837    -7893429.158 8   9990589.462 8
  21238054.232    21238056.516    29991079.751 9 -34567974.264 9
  22869222.148    22869225.662    74444976.832 9 -98660666.044 8
  25347440.284    25347442.807   -12016655.058 9   8829798.402 9
 86  6 13  3 40 11.0800000  0  4G12G13G 9G 7
  20854312.283    20854315.619    -7891566.680 9   9992040.744 8
  21239536.316    21239538.583    29998869.936 9 -34561903.990 9
  22873660.516    22873663.709    74468296.976 8 -98642494.509 9
  25344325.366    25344328.746   -12033021.459 9   8817045.369 9
 86  6 13  3 40 17.0800000  0  4G12G13G 9G 7
  20854672.129    20854675.292    -7889677.878 9   9993512.539 8
  21241019.786    21241023.261    30006665.551 9 -34555829.485 9
  22878098.966    22878103.373    74491626.414 9 -98624315.726 8
  25341214.412    25341218.283   -12049369.266 9   8804306.833 8
 86  6 13  3 40 23.0800000  0  4G12G13G 9G 7
  20855036.268    20855039.489    -7887762.707 9   9995004.875 9
  21242503.769    21242506.847    30014466.689 9 -34549750.676 8
  22882540.486    22882543.616    74514965.153 9 -98606129.709 8
  25338106.557    25338109.795   -12065701.908 9   8791580.097 8
 86  6 13  3 40 29.0800000  0  4G12G13G 9G 7
  20855405.218    20855408.839    -7885821.209 9   9996517.728 9
  21243989.586    21243992.713    30022273.384 9 -34543667.539 9
  22886983.678    22886988.210    74538313.135 9 -98587936.471 8
  25335001.647    25335003.881   -12082021.475 9   8778863.562 9
 86  6 13  3 40 35.0800000  0  4G12G13G 9G 7
  20855780.203    20855783.681    -7883853.335 9   9998051.144 9
  21245475.760    21245479.659    30030085.525 9 -34537580.157 9
  22891428.444    22891431.817    74561670.409 9 -98569736.002 7
  25331897.783    25331900.750   -12098329.706 9   8766155.857 9
 86  6 13  3 40 41.0800000  0  4G12G13G 9G 7
  20856159.680    20856163.503    -7881859.014 9   9999605.159 8
  21246963.130    21246966.633    30037903.098 9 -34531488.529 8
  22895874.687    22895878.446    74585036.956 8 -98551528.308 9
  25328796.734    25328798.843   -12114625.827 9   8753457.588 8
 86  6 13  3 40 47.0800000  0  4G12G13G 9G 7
  20856544.899    20856547.620    -7879838.362 9  10001179.694 9
  21248452.493    21248455.156    30045726.115 9 -34525392.675 9
  22900323.321    22900327.231    74608412.663 8 -98533313.475 8
                  25325701.275                     8740772.721 7
 86  6 13  3 40 53.0800000  0  4G12G13G 9G 7
  20856933.593    20856937.057    -7877791.218 9  10002774.866 9
  21249942.315    21249944.591    30053554.590 9 -34519292.569 8
  22904773.933    22904776.266    74631797.607 9 -98515091.454 8
  25322608.776    25322608.833   -12167159.075 9   8728106.658 8
 86  6 13  3 40 59.0800000  0  4G12G13G 9G 7
  20857328.340    20857331.106    -7875717.658 8  10004390.635 8
  21251432.697    21251435.666    30061388.468 9 -34513188.250 8
  22909224.897    22909228.885    74655191.708 8 -98496862.275 8
  25319518.833    25319521.765   -12183385.109 9   8715463.371 8
 86  6 13  3 41  5.0800000  0  4G12G13G 9G 7
  20857727.937    20857730.586    -7873617.812 9  10006026.871 9
  21252924.602    21252928.353    30069227.797 9 -34507079.685 8
  22913678.204    22913681.272    74678594.850 8 -98478626.070 8
  25316435.499    25316438.359   -12199583.474 9   8702841.265 9
 86  6 13  3 41 11.0800000  0  4G12G13G 9G 7
  20858132.800    20858136.138    -7871491.637 9  10007683.635 9
  21254417.066    21254420.220    30077072.523 9 -34500966.896 9
  22918132.803    22918137.560    74702007.093 8 -98460382.757 7
  25313357.810    25313361.699   -12215758.671 8   8690237.225 8
 86  6 13  3 41 17.0800000  0  4G12G13G 9G 7
  20858542.688    20858546.009    -7869339.116 8  10009360.925 9
  21255911.774    21255914.029    30084922.570 9 -34494849.989 9
  22922591.555    22922594.722    74725428.341 8 -98442132.446 8
  25310283.148    25310286.141   -12231915.233 9   8677647.690 8
 86  6 13  3 41 23.0800000  0  4G12G13G 9G 7
  20858956.867    20858960.232    -7867160.344 9  10011058.660 8
  21257406.028    21257408.299    30092777.884 9 -34488728.964 9
  22927049.498    22927053.321    74748858.479 9 -98423875.194 8
  25307211.606    25307215.065   -12248056.601 9   8665070.017 8
 86  6 13  3 41 29.0800000  0  4G12G13G 9G 7
  20859376.813    20859379.462    -7864955.360 9  10012776.829 9
  21258901.510    21258905.300    30100638.408 9 -34482603.878 9
  22931510.090    22931512.754    74772297.625 9 -98405610.942 8
  25304142.439    25304145.520   -12264185.036 9   8652502.421 8
 86  6 13  3 41 35.0800000  0  4G12G13G 9G 7
  20859800.751    20859803.987    -7862724.105 9  10014515.468 8
  21260399.282    21260401.639    30108504.187 9 -34476474.706 8
  22935971.999    22935974.160    74795745.559 9 -98387339.813 8
  25301075.606    25301077.321   -12280301.849 9   8639943.865 8
 86  6 13  3 41 41.0800000  0  4G12G13G 9G 7
  20860231.199    20860234.175    -7860466.597 9  10016274.561 8
  21261897.180    21261898.904    30116375.243 9 -34470341.410 8
  22940435.841    22940438.932    74819202.389 8 -98369061.772 8
  25298010.927    25298014.753   -12296406.075 9   8627395.123 8
 86  6 13  3 41 47.0800000  0  4G12G13G 9G 7
  20860665.325    20860668.916    -7858182.841 9  10018054.112 8
  21263395.138    21263397.836    30124251.571 9 -34464204.017 9
  22944900.939    22944904.925    74842668.056 9 -98350776.847 9
                  25294953.648                     8614860.338 8
 86  6 13  3 41 53.0800000  0  4G12G13G 9G 7
  20861104.288    20861108.497    -7855872.787 9  10019854.147 8
  21264895.257    21264897.581    30132133.125 9 -34458062.537 9
  22949368.024    22949371.037    74866142.530 9 -98332485.041 8
  25291898.399    25291897.007   -12348749.367 9   8602344.914 8
 86  6 13  3 41 59.0800000  0  4G12G13G 9G 7
  20861549.333    20861553.111    -7853536.488 9  10021674.658 8
  21266396.184    21266398.102    30140019.958 9 -34451916.959 9
  22953836.449    22953840.462    74889625.830 9 -98314186.381 8
  25288843.017    25288845.126   -12364781.640 8   8589852.238 9
 86  6 13  3 42  5.0800000  0  4G12G13G 9G 7
  20861998.512    20862002.792    -7851173.912 9  10023515.602 8
  21267897.739    21267900.952    30147912.029 9 -34445767.290 9
  22958306.968    22958310.486    74913117.977 9 -98295880.816 9
  25285796.304    25285800.121   -12380787.129 8   8577380.818 9
 86  6 13  3 42 11.0800000  0  4G12G13G 9G 7
  20862453.372    20862457.219    -7848785.093 9  10025377.015 9
  21269400.626    21269403.589    30155809.360 9 -34439613.529 9
  22962779.743    22962782.564    74936618.858 9 -98277568.450 9
  25282755.412    25282759.490   -12396769.058 9   8564927.392 9
 86  6 13  3 42 17.0800000  0  4G12G13G 9G 7
  20862912.450    20862916.917    -7846370.011 9  10027258.899 8
  21270904.408    21270907.606    30163711.900 9 -34433455.708 8
  22967253.430    22967256.290    74960128.364 9 -98259249.346 8
  25279718.738    25279721.099   -12412732.465 9   8552488.377 9
 86  6 13  3 42 23.0800000  0  4G12G13G 9G 7
  20863377.729    20863380.621    -7843928.705 9  10029161.208 8
  21272409.178    21272412.075    30171619.541 9 -34427293.906 9
  22971729.149    22971732.032    74983646.669 9 -98240923.396 9
  25276683.123    25276686.414   -12428680.603 9   8540061.248 9
 86  6 13  3 42 29.0800000  0  4G12G13G 9G 7
  20863847.355    20863850.936    -7841461.146 9  10031083.983 8
  21273915.062    21273917.525    30179532.394 9 -34421128.050 8
  22976205.817    22976209.503    75007173.643 8 -98222590.697 9
  25273650.371    25273653.830   -12444615.646 9   8527644.335 9
 86  6 13  3 42 35.0800000  0  4G12G13G 9G 7
  20864321.575    20864325.027    -7838967.315 9  10033027.231 9
  21275421.247    21275424.622    30187450.387 9 -34414958.190 8
  22980684.267    22980687.544    75030709.199 9 -98204251.308 9
  25270620.010    25270623.194   -12460538.863 8   8515236.648 9
 86  6 13  3 42 41.0800000  0  4G12G13G 9G 7
  20864800.817    20864804.383    -7836447.259 8  10034990.901 9
  21276929.982    21276932.485    30195373.569 9 -34408784.278 9
  22985163.351    22985168.210    75054253.369 9 -98185905.206 9
  25267593.101    25267596.220   -12476448.988 9   8502839.150 9
 86  6 13  3 42 47.0800000  0  4G12G13G 9G 7
  20865286.029    20865289.321    -7833900.886 9  10036975.082 8
  21278437.661    21278440.630    30203301.918 9 -34402606.338 9
  22989646.421    22989649.955    75077806.170 9 -98167552.369 9
                  25264571.940                     8490456.127 8
 86  6 13  3 42 53.0800000  0  4G12G13G 9G 7
  20865775.846    20865779.211    -7831328.095 9  10038979.848 9
  21279947.817    21279949.964    30211235.474 9 -34396424.348 8
  22994129.245    22994132.641    75101367.595 9 -98149192.832 8
  25261549.769    25261552.475   -12528597.300 9   8478093.236 9
 86  6 13  3 42 59.0800000  0  4G12G13G 9G 7
  20866270.489    20866273.963    -7828728.974 9  10041005.141 9
  21281459.076    21281461.170    30219174.209 9 -34390238.322 9
  22998615.839    22998618.023    75124937.675 9 -98130826.537 9
  25258535.999    25258539.201   -12544433.530 9   8465753.299 9
 86  6 13  3 43  5.0800000  0  4G12G13G 9G 7
  20866770.778    20866773.869    -7826103.532 8  10043050.939 9
  21282969.304    21282972.450    30227118.120 9 -34384048.261 8
  23003102.286    23003105.862    75148516.381 9 -98112453.522 9
  25255529.139    25255530.753   -12560242.317 9   8453434.764 8
 86  6 13  3 43 11.0800000  0  4G12G13G 9G 7
  20867274.616    20867277.583    -7823451.819 9  10045117.210 8
  21284483.123    21284486.242    30235067.286 9 -34377854.110 8
  23007591.358    23007594.177    75172103.653 9 -98094073.832 9
  25252524.438    25252528.201   -12576028.096 8   8441134.156 8
 86  6 13  3 43 17.0800000  0  4G12G13G 9G 7
  20867783.983    20867787.731    -7820773.811 9  10047203.970 8
  21285996.651    21285999.274    30243021.611 9 -34371655.931 7
  23012080.462    23012084.295    75195699.470 9 -98075687.492 8
  25249523.479    25249528.368   -12591795.278 9   8428848.035 9
 86  6 13  3 43 23.0800000  0  4G12G13G 9G 7
  20868298.926    20868301.717    -7818069.453 9  10049311.263 9
  21287511.339    21287514.410    30250981.161 9 -34365453.685 8
  23016572.200    23016575.955    75219303.739 9 -98057294.546 9
  25246525.875    25246529.559   -12607546.882 9   8416574.072 8
 86  6 13  3 43 29.0800000  0  4G12G13G 9G 7
  20868818.150    20868821.086    -7815338.866 8  10051438.992 8
  21289026.901    21289029.639    30258945.821 9 -34359247.453 9
  23021065.617    23021069.652    75242916.425 9 -98038895.070 9
  25243531.145    25243534.279   -12623285.354 9   8404310.331 9
 86  6 13  3 43 35.0800000  0  4G12G13G 9G 7
  20869342.966    20869346.656    -7812581.970 8  10053587.222 8
  21290543.308    21290546.264    30266915.642 9 -34353037.204 9
  23025561.246    23025563.873    75266537.614 9 -98020488.950 9
  25240538.543    25240542.713   -12639011.691 9   8392056.038 9
 86  6 13  3 43 41.0800000  0  4G12G13G 9G 7
  20869872.148    20869875.297    -7809798.818 9  10055755.907 9
  21292061.290    21292063.215    30274890.572 9 -34346822.983 9
  23030056.565    23030060.204    75290167.230 9 -98002076.261 9
  25237548.460    25237552.146   -12654724.417 9   8379812.375 8
 86  6 13  3 43 47.0800000  0  4G12G13G 9G 7
  20870406.868    20870410.492    -7806989.380 9  10057945.080 9
  21293578.725    21293582.287    30282870.594 9 -34340604.774 9
  23034555.203    23034558.852    75313805.208 9 -97983657.066 8
                  25234566.076                     8367583.849 9
 86  6 13  3 43 53.0800000  0  4G12G13G 9G 7
  20870946.265    20870949.145    -7804153.689 9  10060154.707 9
  21295098.970    21295102.760    30290855.687 9 -34334382.635 8
  23039054.250    23039058.864    75337451.422 9 -97965231.453 9
  25231580.712    25231584.784   -12706677.681 9   8355375.855 8
 86  6 13  3 43 59.0800000  0  4G12G13G 9G 7
  20871490.345    20871494.923    -7801291.630 8  10062384.883 8
  21296619.608    21296622.761    30298845.792 9 -34328156.563 9
  23043556.143    23043559.410    75361106.003 8 -97946799.312 9
  25228606.602    25228609.229   -12722315.050 9   8343190.863 8
 86  6 13  3 44  5.0800000  0  4G12G13G 9G 7
  20872041.205    20872045.398    -7798403.349 9  10064635.493 8
  21298140.909    21298143.593    30306840.873 9 -34321926.644 8
  23048058.837    23048063.285    75384768.783 9 -97928360.783 8
  25225634.846    25225638.964   -12737925.030 9   8331027.235 9
 86  6 13  3 44 11.0800000  0  4G12G13G 9G 7
  20872595.329    20872599.079    -7795488.793 9  10066906.570 8
  21299663.428    21299665.818    30314840.994 9 -34315692.769 9
  23052563.771    23052567.972    75408439.773 8 -97909915.860 8
  25222669.363    25222672.958   -12753512.058 9   8318881.500 9
 86  6 13  3 44 17.0800000  0  4G12G13G 9G 7
  20873154.475    20873158.452    -7792548.051 9  10069198.053 9
  21301186.493    21301189.633    30322846.180 9 -34309454.960 9
  23057069.295    23057073.479    75432119.022 9 -97891464.496 9
  25219706.376    25219709.922   -12769080.690 9   8306750.103 9
 86  6 13  3 44 23.0800000  0  4G12G13G 9G 7
  20873719.357    20873723.207    -7789581.081 9  10071509.982 8
  21302710.880    21302714.019    30330856.400 9 -34303213.226 8
  23061577.544    23061580.294    75455806.525 9 -97873006.712 9
  25216746.491    25216750.103   -12784633.823 9   8294630.772 9
 86  6 13  3 44 29.0800000  0  4G12G13G 9G 7
  20874289.120    20874293.056    -7786587.851 9  10073842.355 8
  21304236.059    21304238.413    30338871.629 9 -34296967.595 8
  23066086.215    23066089.644    75479502.223 9 -97854542.543 9
  25213788.609    25213793.128   -12800173.512 9   8282521.925 9
 86  6 13  3 44 35.0800000  0  4G12G13G 9G 7
  20874863.535    20874867.285    -7783568.392 8  10076195.184 8
  21305762.199    21305764.810    30346891.801 9 -34290718.118 9
  23070596.947    23070600.055    75503205.926 8 -97836072.119 8
  25210834.151    25210837.342   -12815700.939 9   8270422.632 9
 86  6 13  3 44 41.0800000  0  4G12G13G 9G 7
  20875443.168    20875447.033    -7780522.658 8  10078568.484 8
  21307289.676    21307291.865    30354916.996 9 -34284464.715 9
  23075109.903    23075112.487    75526917.731 9 -97817595.402 9
  25207882.943    25207886.539   -12831214.322 9   8258334.286 9
 86  6 13  3 44 47.0800000  0  4G12G13G 9G 7
  20876027.855    20876031.623    -7777450.684 9  10080962.218 8
  21308817.456    21308820.423    30362947.190 9 -34278207.417 9
  23079622.364    23079626.745    75550637.703 9 -97799112.302 9
                  25204938.140                     8246261.556 8
 86  6 13  3 44 53.0800000  0  4G12G13G 9G 7
  20876617.351    20876620.644    -7774352.562 9  10083376.346 9
  21310346.557    21310349.376    30370982.324 9 -34271946.262 9
  23084138.656    23084142.705    75574365.680 9 -97780622.980 9
  25201990.230    25201994.478   -12882965.924 9   8234209.924 8
 86  6 13  3 44 59.0800000  0  4G12G13G 9G 7
  20877211.842    20877215.847    -7771228.255 9  10085810.869 9
  21311876.230    21311878.335    30379022.409 9 -34265681.266 9
  23088654.808    23088658.646    75598101.612 8 -97762127.451 8
  25199053.863    25199057.042   -12898402.305 9   8222181.591 8
 86  6 13  3 45  5.0800000  0  4G12G13G 9G 7
  20877811.351    20877815.744    -7768077.823 9  10088265.745 8
  21313407.236    21313410.669    30387067.337 9 -34259412.488 9
  23093174.314    23093176.612    75621845.579 8 -97743625.655 8
  25196120.405    25196125.029   -12913811.455 9   8210174.463 9
 86  6 13  3 45 11.0800000  0  4G12G13G 9G 7
  20878416.430    20878419.392    -7764901.215 8  10090741.021 9
  21314939.155    21314941.739    30395117.126 9 -34253139.915 8
  23097693.508    23097697.135    75645597.390 8 -97725117.762 8
  25193194.089    25193196.916   -12929197.799 9   8198185.118 9
 86  6 13  3 45 17.0800000  0  4G12G13G 9G 7
  20879025.385    20879029.335    -7761698.453 9  10093236.674 8
  21316472.043    21316474.410    30403171.840 9 -34246863.527 8
  23102213.700    23102218.208    75669357.055 9 -97706603.739 9
  25190268.529    25190272.527   -12944565.610 9   8186210.193 9
 86  6 13  3 45 23.0800000  0  4G12G13G 9G 7
  20879638.764    20879643.886    -7758469.456 9  10095752.772 8
  21318005.644    21318008.532    30411231.439 9 -34240583.299 8
  23106737.653    23106740.718    75693124.715 9 -97688083.491 8
  25187346.775    25187350.552   -12959917.989 9   8174247.300 9
 86  6 13  3 45 29.0800000  0  4G12G13G 9G 7
  20880259.495    20880264.164    -7755214.251 9  10098289.289 9
  21319540.083    21319543.153    30419295.938 9 -34234299.282 8
  23111261.721    23111265.474    75716900.254 9 -97669557.099 9
  25184428.953    25184432.711   -12975256.950 8   8162294.874 9
 86  6 13  3 45 35.0800000  0  4G12G13G 9G 7
  20880883.564    20880887.869    -7751932.805 9  10100846.259 9
  21321075.860    21321078.613    30427365.360 9 -34228011.405 9
  23115787.629    23115791.646    75740683.635 9 -97651024.599 8
  25181511.893    25181514.892   -12990583.344 9   8150352.227 8
 86  6 13  3 45 41.0800000  0  4G12G13G 9G 7
  20881513.766    20881516.899    -7748625.165 9  10103423.643 9
  21322612.896    21322615.836    30435439.718 9 -34221719.695 8
  23120314.894    23120318.559    75764474.952 9 -97632485.919 8
  25178597.700    25178601.836   -13005895.063 8   8138421.023 9
 86  6 13  3 45 47.0800000  0  4G12G13G 9G 7
  20882147.463    20882151.657    -7745291.416 9  10106021.368 8
  21324149.082    21324153.242    30443518.982 9 -34215424.169 8
  23124843.148    23124847.054    75788273.992 8 -97613941.216 9
                  25175691.810                     8126506.033 9
 86  6 13  3 45 53.0800000  0  4G12G13G 9G 7
  20882787.067    20882789.673    -7741931.457 8  10108639.517 9
  21325688.363    21325691.300    30451603.072 9 -34209124.882 9
  23129373.626    23129377.717    75812080.848 9 -97595390.422 8
  25172783.122    25172787.947   -13057445.541 9   8114612.730 9
 86  6 13  3 45 59.0800000  0  4G12G13G 9G 7
  20883431.712    20883434.532    -7738545.351 9  10111278.050 8
  21327227.902    21327230.723    30459691.975 9 -34202821.830 8
  23133905.838    23133910.317    75835895.506 9 -97576833.555 9
  25169884.577    25169889.012   -13072678.568 9   8102742.848 9
 86  6 13  3 46  5.0800000  0  4G12G13G 9G 7
  20884080.318    20884084.227    -7735133.098 9  10113936.928 9
  21328767.345    21328770.726    30467785.633 9 -34196515.072 9
  23138439.607    23138442.780    75859717.802 8 -97558270.738 9
  25166992.008    25166995.700   -13087883.973 9   8090894.107 9
 86  6 13  3 46 11.0800000  0  4G12G13G 9G 7
  20884735.348    20884739.124    -7731694.700 8  10116616.204 9
  21330308.487    21330311.556    30475884.124 9 -34190204.558 9
  23142973.814    23142977.500    75883547.711 8 -97539701.973 9
  25164101.860    25164106.881   -13103067.138 9   8079063.080 9
 86  6 13  3 46 17.0800000  0  4G12G13G 9G 7
  20885394.673    20885398.496    -7728230.209 9  10119315.806 8
  21331850.481    21331853.457    30483987.291 9 -34183890.401 9
  23147509.293    23147513.923    75907385.269 8 -97521127.269 8
  25161215.982    25161219.537   -13118232.022 9   8067246.288 9
 86  6 13  3 46 23.0800000  0  4G12G13G 9G 7
  20886058.420    20886062.437    -7724739.567 9  10122035.780 7
  21333393.354    21333396.382    30492095.220 9 -34177572.531 9
  23152047.261    23152050.301    75931230.588 9 -97502546.497 8
  25158334.335    25158338.019   -13133381.206 9   8055441.740 9
 86  6 13  3 46 29.0800000  0  4G12G13G 9G 7
  20886727.746    20886730.107    -7721222.780 9  10124776.146 8
  21334937.833    21334939.362    30500207.999 9 -34171250.885 9
  23156586.831    23156589.978    75955083.410 8 -97483959.882 8
  25155453.745    25155457.139   -13148516.945 9   8043647.655 9
 86  6 13  3 46 35.0800000  0  4G12G13G 9G 7
  20887401.679    20887405.388    -7717679.865 9  10127536.838 9
  21336482.310    21336484.556    30508325.544 9 -34164925.519 9
  23161127.784    23161130.358    75978943.785 8 -97465367.390 9
  25152575.709    25152579.207   -13163639.887 9   8031863.552 9
 86  6 13  3 46 41.0800000  0  4G12G13G 9G 7
  20888081.122    20888083.986    -7714110.747 8  10130317.962 9
  21338027.809    21338030.542    30516447.856 9 -34158596.440 8
  23165668.426    23165672.327    76002811.852 8 -97446768.907 9
  25149700.839    25149704.361   -13178747.627 9   8020091.293 8
 86  6 13  3 46 47.0800000  0  4G12G13G 9G 7
  20888764.786    20888768.479    -7710515.431 8  10133119.511 8
  21339575.133    21339576.986    30524574.973 9 -34152263.614 8
  23170211.685    23170216.581    76026687.483 8 -97428164.530 8
                  25146832.928                     8008336.003 9
 86  6 13  3 46 53.0800000  0  4G12G13G 9G 7
  20889455.189    20889457.523    -7706893.920 9  10135941.470 8
  21341121.779    21341124.224    30532706.861 9 -34145927.083 9
  23174757.192    23174760.056    76050570.585 9 -97409554.303 8
  25143964.584    25143968.896   -13230089.212 9   7996602.794 8
 86  6 13  3 46 59.0800000  0  4G12G13G 9G 7
  20890148.011    20890152.262    -7703246.259 9  10138783.795 8
  21342670.534    21342672.857    30540843.533 9 -34139586.809 8
  23179303.439    23179307.110    76074461.267 8 -97390938.215 8
  25141105.706    25141108.355   -13245116.475 9   7984893.242 9
 86  6 13  3 47  5.0800000  0  4G12G13G 9G 7
  20890847.459    20890851.182    -7699572.445 9  10141646.516 8
  21344219.059    21344221.741    30548985.063 9 -34133242.755 8
  23183850.606    23183854.157    76098359.508 8 -97372316.211 8
  25138249.847    25138253.617   -13260116.465 9   7973204.958 8
 86  6 13  3 47 11.0800000  0  4G12G13G 9G 7
  20891551.185    20891555.133    -7695872.512 9  10144529.574 9
  21345769.225    21345771.665    30557131.318 9 -34126895.016 9
  23188399.661    23188403.262    76122265.122 8 -97353688.458 9
  25135400.591    25135403.226   -13275093.920 9   7961534.231 8
 86  6 13  3 47 17.0800000  0  4G12G13G 9G 7
  20892260.777    20892264.471    -7692146.411 9  10147433.017 7
  21347319.983    21347323.701    30565282.317 9 -34120543.587 9
  23192951.080    23192954.355    76146178.179 9 -97335054.913 9
  25132554.847    25132557.334   -13290052.826 9   7949877.950 9
 86  6 13  3 47 23.0800000  0  4G12G13G 9G 7
  20892974.674    20892978.095    -7688394.197 8  10150356.819 8
  21348872.723    21348875.355    30573437.894 9 -34114188.589 9
  23197502.147    23197505.291    76170098.633 9 -97316415.609 8
  25129710.867    25129713.099   -13304995.896 9   7938233.997 9
 86  6 13  3 47 29.0800000  0  4G12G13G 9G 7
  20893693.885    20893697.562    -7684615.929 9  10153300.914 9
  21350425.333    21350428.369    30581598.143 9 -34107829.952 9
  23202056.796    23202059.333    76194026.474 8 -97297770.531 9
  25126869.789    25126871.926   -13319925.323 9   7926600.682 9
 86  6 13  3 47 35.0800000  0  4G12G13G 9G 7
  20894418.286    20894422.151    -7680811.606 9  10156265.332 9
  21351979.113    21351981.731    30589763.035 9 -34101467.694 9
  23206610.373    23206613.877    76217961.503 9 -97279119.878 8
  25124030.638    25124034.161   -13334841.764 9   7914977.490 9
 86  6 13  3 47 41.0800000  0  4G12G13G 9G 7
  20895146.250    20895149.514    -7676981.129 9  10159250.122 8
  21353533.191    21353536.433    30597932.597 9 -34095101.798 9
  23211166.379    23211170.341    76241903.916 8 -97260463.452 8
  25121196.858    25121198.672   -13349742.422 9   7903366.583 9
 86  6 13  3 47 47.0800000  0  4G12G13G 9G 7
  20895880.553    20895884.633    -7673124.568 9  10162255.219 8
  21355088.522    21355092.342    30606106.826 9 -34088732.269 9
  23215723.603    23215728.334    76265853.596 9 -97241801.368 8
                  25118366.938                     7891773.236 9
 86  6 13  3 47 53.0800000  0  4G12G13G 9G 7
  20896619.267    20896623.390    -7669241.964 9  10165280.628 8
  21356645.039    21356647.463    30614285.720 9 -34082359.101 8
  23220282.917    23220286.482    76289810.475 8 -97223133.680 9
  25115539.762    25115541.851   -13400875.875 9   7880202.342 9
 86  6 13  3 47 59.0800000  0  4G12G13G 9G 7
  20897363.214    20897366.265    -7665333.332 9  10168326.313 8
  21358202.337    21358205.615    30622469.256 9 -34075982.319 9
  23224841.907    23224847.353    76313774.480 8 -97204460.434 8
  25112718.882    25112721.627   -13415694.734 9   7868655.200 9
 86  6 13  3 48  5.0800000  0  4G12G13G 9G 7
  20898112.399    20898115.152    -7661398.665 8  10171392.287 8
  21359761.639    21359763.356    30630657.380 9 -34069601.958 9
  23229404.066    23229408.285    76337745.607 8 -97185781.635 9
  25109903.572    25109907.209   -13430486.566 9   7857129.089 9
 86  6 13  3 48 11.0800000  0  4G12G13G 9G 7
  20898865.737    20898868.701    -7657437.993 9  10174478.517 9
  21361320.276    21361322.719    30638849.981 9 -34063218.113 9
  23233966.392    23233971.544    76361723.851 8 -97167097.296 8
  25107093.127    25107096.779   -13445255.996 9   7845620.459 9
 86  6 13  3 48 17.0800000  0  4G12G13G 9G 7
  20899624.037    20899628.746    -7653451.255 9  10177585.055 8
  21362879.926    21362882.300    30647047.123 9 -34056830.736 9
  23238532.067    23238535.719    76385709.225 9 -97148407.393 9
  25104285.783    25104289.773   -13460006.903 9   7834126.257 9
 86  6 13  3 48 23.0800000  0  4G12G13G 9G 7
  20900387.318    20900391.884    -7649438.534 9  10180711.855 8
  21364440.258    21364443.455    30655248.873 9 -34050439.743 9
  23243097.366    23243101.573    76409701.764 8 -97129711.917 8
  25101482.401    25101485.918   -13474741.994 9   7822644.371 9
 86  6 13  3 48 29.0800000  0  4G12G13G 9G 7
  20901156.679    20901159.972    -7645399.702 9  10183858.991 8
  21366002.486    21366004.825    30663455.194 9 -34044045.213 9
  23247663.667    23247667.281    76433701.269 9 -97111011.006 7
  25098681.188    25098684.030   -13489463.262 9   7811173.263 9
 86  6 13  3 48 35.0800000  0  4G12G13G 9G 7
  20901930.650    20901934.154    -7641334.735 9  10187026.503 8
  21367565.013    21367567.895    30671666.116 9 -34037647.092 8
  23252232.939    23252236.723    76457707.833 8 -97092304.593 9
  25095882.785    25095885.501   -13504171.270 9   7799712.487 9
 86  6 13  3 48 41.0800000  0  4G12G13G 9G 7
  20902708.266    20902711.945    -7637243.743 9  10190214.286 8
  21369128.342    21369130.930    30679881.554 9 -34031245.444 8
  23256802.248    23256805.172    76481721.508 9 -97073592.648 8
  25093087.284    25093089.656   -13518862.918 9   7788264.446 9
 86  6 13  3 48 47.0800000  0  4G12G13G 9G 7
  20903492.524    20903495.344    -7633126.740 9  10193422.337 8
  21370692.171    21370695.537    30688101.654 9 -34024840.173 8
  23261373.467    23261376.579    76505742.166 8 -97054875.258 9
                  25090297.639                     7776834.529 8
 86  6 13  3 48 53.0800000  0  4G12G13G 9G 7
  20904281.317    20904284.352    -7628983.654 9  10196650.707 8
  21372257.247    21372260.002    30696326.410 9 -34018431.267 8
  23265945.409    23265949.494    76529769.818 9 -97036152.411 9
  25087509.843    25087512.230   -13569793.349 8   7765427.486 9
 86  6 13  3 48 59.0800000  0  4G12G13G 9G 7
  20905073.847    20905077.569    -7624814.488 8  10199899.405 8
  21373823.745    21373825.701    30704555.729 9 -34012018.814 9
  23270519.228    23270523.245    76553804.407 9 -97017424.166 8
  25084730.803    25084732.571   -13584401.764 9   7754044.310 8
 86  6 13  3 49  5.0800000  0  4G12G13G 9G 7
  20905872.657    20905876.021    -7620619.331 9  10203168.361 8
  21375390.402    21375392.749    30712789.537 9 -34005602.853 9
  23275094.114    23275097.359    76577845.941 9 -96998690.506 8
  25081955.970    25081957.856   -13598983.052 9   7742682.260 9
 86  6 13  3 49 11.0800000  0  4G12G13G 9G 7
  20906675.159    20906678.478    -7616398.098 9  10206457.629 9
  21376957.809    21376961.006    30721027.876 9 -33999183.362 8
  23279670.750    23279674.526    76601894.339 9 -96979951.495 8
  25079183.833    25079187.107   -13613541.943 9   7731337.683 9
 86  6 13  3 49 17.0800000  0  4G12G13G 9G 7
  20907484.170    20907487.636    -7612150.855 9  10209767.171 8
  21378526.505    21378529.859    30729270.692 9 -33992760.392 9
  23284248.526    23284250.850    76625949.715 9 -96961207.056 8
  25076417.637    25076422.056   -13628082.252 9   7720007.555 8
 86  6 13  3 49 23.0800000  0  4G12G13G 9G 7
  20908296.620    20908300.940    -7607877.564 9  10213096.997 8
  21380095.666    21380098.842    30737517.967 9 -33986333.944 9
  23288826.682    23288829.849    76650011.948 8 -96942457.257 8
  25073653.697    25073657.749   -13642606.658 9   7708689.852 9
 86  6 13  3 49 29.0800000  0  4G12G13G 9G 7
  20909114.130    20909118.478    -7603578.271 9  10216447.094 8
  21381666.056    21381668.986    30745769.865 9 -33979903.880 9
  23293407.570    23293411.444    76674081.000 9 -96923702.153 8
  25070892.184    25070896.250   -13657117.058 9   7697383.054 9
 86  6 13  3 49 35.0800000  0  4G12G13G 9G 7
  20909937.480    20909941.173    -7599252.921 9  10219817.499 9
  21383237.435    21383240.531    30754026.330 9 -33973470.278 9
  23297989.083    23297991.704    76698156.817 9 -96904941.778 8
  25068134.195    25068137.720   -13671613.810 9   7686086.902 9
 86  6 13  3 49 41.0800000  0  4G12G13G 9G 7
  20910765.825    20910769.961    -7594901.517 9  10223208.196 9
  21384809.441    21384812.425    30762287.235 9 -33967033.220 9
  23302571.933    23302575.905    76722239.564 8 -96886176.008 9
  25065378.978    25065382.180   -13686093.624 9   7674803.932 9
 86  6 13  3 49 47.0800000  0  4G12G13G 9G 7
  20911599.621    20911602.295    -7590524.161 9  10226619.112 8
  21386382.895    21386385.401    30770552.609 9 -33960592.660 8
  23307155.405    23307159.567    76746329.024 9 -96867405.003 8
                  25062630.950                     7663539.587 8
 86  6 13  3 49 53.0800000  0  4G12G13G 9G 7
  20912436.806    20912440.815    -7586120.784 9  10230050.324 9
  21387955.397    21387958.466    30778822.482 9 -33954148.615 8
  23311741.881    23311744.708    76770425.188 9 -96848628.772 8
  25059882.337    25059885.829   -13736810.154 9   7652298.471 9
 86  6 13  3 49 59.0800000  0  4G12G13G 9G 7
  20913280.905    20913283.455    -7581691.391 8  10233501.792 8
  21389530.761    21389532.855    30787096.790 9 -33947701.095 9
  23316328.087    23316330.193    76794528.059 9 -96829847.313 8
  25057142.505    25057147.298   -13751205.670 9   7641081.190 9
 86  6 13  3 50  5.0800000  0  4G12G13G 9G 7
  20914126.778    20914131.731    -7577236.086 8  10236973.451 8
  21391105.165    21391108.740    30795375.626 9 -33941250.054 9
  23320916.587    23320918.628    76818637.531 9 -96811060.716 8
  25054408.390    25054411.326   -13765574.645 9   7629884.987 9
 86  6 13  3 50 11.0800000  0  4G12G13G 9G 7
  20914980.079    20914983.385    -7572754.867 9  10240465.312 9
  21392682.246    21392684.697    30803658.860 9 -33934795.589 9
  23325505.308    23325507.404    76842753.607 9 -96792268.974 8
  25051679.719    25051681.803   -13779920.754 9   7618706.202 9
 86  6 13  3 50 17.0800000  0  4G12G13G 9G 7
  20915837.243    20915841.679    -7568247.800 9  10243977.306 9
  21394258.651    21394261.879    30811946.389 9 -33928337.775 9
  23330095.386    23330098.146    76866876.251 9 -96773472.104 9
  25048952.765    25048955.432   -13794248.329 9   7607541.854 9
 86  6 13  3 50 23.0800000  0  4G12G13G 9G 7
  20916701.087    20916703.665    -7563714.943 9  10247509.405 8
  21395836.732    21395839.932    30820238.146 9 -33921876.670 8
  23334686.724    23334690.538    76891005.273 9 -96754670.271 8
  25046227.865    25046231.947   -13808559.972 8   7596389.925 9
 86  6 13  3 50 29.0800000  0  4G12G13G 9G 7
  20917568.409    20917571.143    -7559156.221 9  10251061.650 8
  21397414.694    21397418.592    30828534.179 9 -33915412.233 9
  23339279.574    23339282.910    76915140.662 9 -96735863.466 8
  25043506.647    25043511.289   -13822857.615 9   7585248.909 9
 86  6 13  3 50 35.0800000  0  4G12G13G 9G 7
  20918440.885    20918444.090    -7554571.647 8  10254634.039 8
  21398994.871    21398998.021    30836834.540 9 -33908944.416 8
  23343873.560    23343876.590    76939282.598 9 -96717051.573 8
  25040789.583    25040793.178   -13837141.276 9   7574118.793 9
 86  6 13  3 50 41.0800000  0  4G12G13G 9G 7
  20919318.023    20919321.816    -7549961.238 9  10258226.567 7
  21400575.121    21400579.059    30845139.164 9 -33902473.284 9
  23348469.624    23348471.911    76963431.039 9 -96698234.612 8
                  25038078.495                     7563002.299 8
 86  6 13  3 50 47.0800000  0  4G12G13G 9G 7
  20920200.409    20920203.919    -7545324.913 9  10261839.287 9
  21402156.110    21402158.897    30853448.207 9 -33895998.713 9
  23353066.309    23353068.999    76987585.862 9 -96679412.684 7
  25035397.356    25035368.008   -13887695.869 9   7551904.796 8
 86  6 13  3 50 53.0800000  0  4G12G13G 9G 7
  20921087.280    20921090.975    -7540662.681 9  10265472.187 8
  21403738.262    21403741.410    30861761.605 9 -33889520.734 9
  23357663.967    23357667.313    77011747.126 9 -96660585.722 7
  25032660.083    25032664.330   -13901907.552 8   7540831.043 9
 86  6 13  3 50 59.0800000  0  4G12G13G 9G 7
  20921980.059    20921982.606    -7535974.556 9  10269125.275 9
  21405321.145    21405324.513    30870079.424 9 -33883039.313 9
  23362262.254    23362266.482    77035914.744 9 -96641753.813 9
  25029961.689    25029964.961   -13916088.163 9   7529781.237 9
 86  6 13  3 51  5.0800000  0  4G12G13G 9G 7
  20922877.060    20922880.193    -7531260.500 9  10272798.569 9
  21406904.465    21406908.369    30878401.535 9 -33876554.556 9
  23366862.619    23366865.004    77060088.847 9 -96622916.850 9
  25027268.316    25027272.089   -13930241.710 9   7518752.510 9
 86  6 13  3 51 11.0800000  0  4G12G13G 9G 7
  20923779.125    20923781.958    -7526520.596 9  10276491.999 8
  21408489.606    21408492.333    30886727.934 9 -33870066.454 8
  23371463.841    23371466.700    77084269.300 9 -96604074.937 9
  25024579.030    25024581.912   -13944372.921 9   7507741.167 9
 86  6 13  3 51 17.0800000  0  4G12G13G 9G 7
  20924685.926    20924688.931    -7521754.757 9  10280205.634 8
  21410074.630    21410077.756    30895058.722 9 -33863574.929 8
  23376066.961    23376069.384    77108456.134 9 -96585228.065 8
  25021893.653    25021898.593   -13958485.594 9   7496744.281 9
 86  6 13  3 51 23.0800000  0  4G12G13G 9G 7
  20925597.178    20925600.969    -7516962.965 9  10283939.494 9
  21411660.752    21411663.930    30903393.907 9 -33857079.986 9
  23380670.196    23380673.338    77132649.278 9 -96566376.254 8
  25019211.943    25019215.393   -13972581.953 9   7485760.120 9
 86  6 13  3 51 29.0800000  0  4G12G13G 9G 7
  20926514.368    20926517.817    -7512145.228 8  10287693.580 8
  21413247.917    21413250.819    30911733.436 9 -33850581.659 9
  23385275.376    23385279.649    77156848.744 9 -96547519.540 8
  25016530.882    25016536.022   -13986664.090 9   7474787.027 9
 86  6 13  3 51 35.0800000  0  4G12G13G 9G 7
  20927436.166    20927439.500    -7507301.675 9  10291467.777 9
  21414835.514    21414838.853    30920077.224 9 -33844080.011 9
  23389881.170    23389884.919    77181054.493 9 -96528657.920 8
  25013854.675    25013858.149   -14000731.797 9   7463825.195 9
 86  6 13  3 51 41.0800000  0  4G12G13G 9G 7
  20928362.871    20928366.478    -7502432.274 9  10295262.107 8
  21416425.040    21416426.859    30928425.286 9 -33837575.014 9
  23394489.417    23394492.451    77205266.528 8 -96509791.411 9
  25011180.893    25011183.904   -14014781.300 9   7452877.521 9
 86  6 13  3 51 47.0800000  0  4G12G13G 9G 7
  20929294.082    20929297.549    -7497536.969 9  10299076.632 9
  21418013.598    21418015.901    30936777.647 9 -33831066.700 9
  23399097.353    23399100.278    77229484.644 9 -96490920.149 9
                  25008515.174                     7441949.604 9
 86  6 13  3 51 53.0800000  0  4G12G13G 9G 7
  20930229.760    20930234.226    -7492615.831 9  10302911.284 8
  21419603.985    21419606.624    30945134.256 9 -33824555.047 8
  23403707.202    23403710.262    77253709.021 9 -96472044.014 8
  25005848.960    25005852.771   -14065069.333 9   7431045.692 9
 86  6 13  3 51 59.0800000  0  4G12G13G 9G 7
  20931171.220    20931175.514    -7487668.820 9  10306766.091 9
  21421194.173    21421197.366    30953495.188 9 -33818040.051 9
  23408318.270    23408322.152    77277939.631 9 -96453163.029 9
  25003191.617    25003195.973   -14079031.811 9   7420165.840 9
 86  6 13  3 52  5.0800000  0  4G12G13G 9G 7
  20932117.831    20932121.920    -7482695.817 9  10310641.149 8
  21422786.319    21422789.476    30961860.399 9 -33811521.704 9
  23412930.556    23412933.130    77302176.368 9 -96434277.259 8
  25000540.256    25000543.001   -14092967.050 8   7409306.831 9
 86  6 13  3 52 11.0800000  0  4G12G13G 9G 7
  20933069.676    20933072.512    -7477696.899 9  10314536.403 8
  21424379.592    21424381.889    30970229.831 9 -33805000.063 9
  23417543.766    23417546.849    77326419.216 9 -96415386.735 8
  24997892.746    24997896.138   -14106880.570 9   7398465.132 9
 86  6 13  3 52 17.0800000  0  4G12G13G 9G 7
  20934026.159    20934028.823    -7472672.155 9  10318451.789 8
  21425972.812    21425975.388    30978603.527 9 -33798475.116 9
  23422158.562    23422161.604    77350668.032 9 -96396491.558 8
  24995248.425    24995252.314   -14120775.467 9   7387637.938 9
 86  6 13  3 52 23.0800000  0  4G12G13G 9G 7
  20934986.378    20934989.142    -7467621.666 9  10322387.233 8
  21427566.272    21427570.435    30986981.446 9 -33791946.874 8
  23426772.594    23426777.369    77374922.917 9 -96377591.643 9
  24992608.012    24992611.270   -14134654.132 9   7376823.404 9
 86  6 13  3 52 29.0800000  0  4G12G13G 9G 7
  20935952.133    20935956.212    -7462545.467 8  10326342.709 8
  21429161.747    21429164.708    30995363.547 9 -33785415.376 9
  23431390.489    23431393.703    77399183.872 9 -96358687.014 9
  24989970.216    24989972.594   -14148518.433 9   7366020.057 9
 86  6 13  3 52 35.0800000  0  4G12G13G 9G 7
  20936923.282    20936927.546    -7457443.408 9  10330318.328 9
  21430757.565    21430760.654    31003749.845 9 -33778880.584 9
  23436008.830    23436011.070    77423450.775 8 -96339777.742 9
  24987334.114    24987336.154   -14162368.056 9   7355228.147 8
 86  6 13  3 52 41.0800000  0  4G12G13G 9G 7
  20937898.724    20937903.549    -7452315.497 9  10334314.097 8
  21432354.355    21432357.545    31012140.346 9 -33772342.543 9
  23440627.081    23440629.867    77447723.682 8 -96320863.791 9
  24984702.945    24984705.911   -14176198.941 9   7344450.835 8
 86  6 13  3 52 47.0800000  0  4G12G13G 9G 7
  20938879.234    20938884.243    -7447161.803 9  10338329.963 8
  21433951.268    21433955.041    31020535.054 9 -33765801.202 8
  23445246.571    23445250.616    77472002.441 9 -96301945.281 8
                  24982078.987                     7333693.826 9
 86  6 13  3 52 53.0800000  0  4G12G13G 9G 7
  20939865.464    20939869.545    -7441982.328 8  10342365.914 9
  21435550.672    21435553.532    31028933.860 9 -33759256.683 9
  23449869.396    23449871.267    77496287.180 8 -96283022.124 8
  24979454.045    24979456.621   -14226270.422 9   7322961.126 8
 86  6 13  3 52 59.0800000  0  4G12G13G 9G 7
  20940855.961    20940859.397    -7436777.115 9  10346421.926 9
  21437149.243    21437152.434    31037336.727 9 -33752708.992 9
  23454490.023    23454494.152    77520577.665 9 -96264094.477 9
  24976839.190    24976842.289   -14240013.362 9   7312252.351 8
 86  6 13  3 53  5.0800000  0  4G12G13G 9G 7
  20941851.095    20941855.774    -7431546.206 9  10350497.947 9
  21438749.427    21438751.808    31045743.704 9 -33746158.102 8
  23459113.637    23459117.963    77544873.960 9 -96245162.304 8
  24974229.164    24974231.829   -14253729.457 9   7301564.491 9
 86  6 13  3 53 11.0800000  0  4G12G13G 9G 7
  20942851.363    20942856.071    -7426289.595 8  10354594.008 9
  21440349.294    21440352.458    31054154.838 9 -33739603.981 8
  23463738.115    23463741.782    77569176.025 9 -96226225.625 9
  24971622.459    24971625.412   -14267423.439 9   7290893.871 8
 86  6 13  3 53 17.0800000  0  4G12G13G 9G 7
  20943856.812    20943860.918    -7421007.303 9  10358710.077 8
  21441950.851    21441954.229    31062570.091 9 -33733046.641 8
  23468364.403    23468367.562    77593483.892 8 -96207284.446 9
  24969020.122    24969023.766   -14281098.851 9   7280237.705 8
 86  6 13  3 53 23.0800000  0  4G12G13G 9G 7
  20944866.483    20944871.548    -7415699.279 9  10362846.199 9
  21443552.872    21443556.414    31070989.492 9 -33726486.070 9
  23472991.019    23472994.639    77617797.556 9 -96188338.743 9
  24966422.420    24966424.113   -14294758.063 9   7269594.186 9
 86  6 13  3 53 29.0800000  0  4G12G13G 9G 7
  20945882.290    20945885.814    -7410365.514 9  10367002.366 9
  21445156.152    21445159.479    31079413.037 9 -33719922.271 9
  23477618.522    23477622.633    77642116.859 7 -96169388.638 9
  24963825.839    24963827.685   -14308402.585 9   7258962.086 8
 86  6 13  3 53 35.0800000  0  4G12G13G 9G 7
  20946901.678    20946906.545    -7405006.089 9  10371178.550 9
  21446760.420    21446762.822    31087840.586 9 -33713355.349 8
  23482248.322    23482251.350    77666441.909 8 -96150434.070 8
  24961232.401    24961234.233   -14322032.162 9   7248341.637 8
 86  6 13  3 53 41.0800000  0  4G12G13G 9G 7
  20947927.060    20947930.223    -7399620.921 9  10375374.780 8
  21448364.574    21448367.506    31096272.155 9 -33706785.309 8
  23486877.338    23486881.193    77690772.576 9 -96131475.114 9
                  24958645.096                     7237736.313 8
 86  6 13  3 53 47.0800000  0  4G12G13G 9G 7
  20948957.076    20948960.313    -7394210.049 9  10379591.035 9
  21449969.233    21449972.805    31104707.714 9 -33700212.137 9
  23491508.880    23491512.566    77715108.884 8 -96112511.759 9
  24956009.229    24956060.556   -14371935.189 9   7227151.590 9
 86  6 13  3 53 53.0800000  0  4G12G13G 9G 7
  20949991.287    20949994.721    -7388773.505 8  10383827.306 9
  21451575.477    21451578.625    31113147.377 9 -33693635.778 9
  23496140.348    23496144.956    77739450.822 9 -96093544.024 9
  24953478.608    24953482.383   -14385487.508 9   7216591.635 9
 86  6 13  3 53 59.0800000  0  4G12G13G 9G 7
  20951029.992    20951034.141    -7383311.351 9  10388083.536 8
  21453181.985    21453184.858    31121591.109 9 -33687056.258 9
  23500774.196    23500777.890    77763798.350 8 -96074571.917 9
  24950903.887    24950909.399   -14399009.357 9   7206055.521 9
 86  6 13  3 54  5.0800000  0  4G12G13G 9G 7
  20952074.933    20952077.941    -7377823.436 8  10392359.828 9
  21454789.636    21454791.716    31130038.862 9 -33680473.590 8
  23505407.562    23505411.160    77788151.452 8 -96055595.490 9
  24948336.743    24948340.839   -14412503.869 9   7195540.332 9
 86  6 13  3 54 11.0800000  0  4G12G13G 9G 7
  20953123.371    20953127.233    -7372309.874 8  10396656.108 9
  21456398.505    21456401.153    31138490.604 9 -33673887.822 8
  23510043.380    23510047.187    77812510.106 9 -96036614.730 9
  24945773.606    24945776.294   -14425976.313 8   7185042.333 8
 86  6 13  3 54 17.0800000  0  4G12G13G 9G 7
  20954177.782    20954182.392    -7366770.710 8  10400972.335 8
  21458007.107    21458010.349    31146946.349 9 -33667298.932 9
  23514679.031    23514684.377    77836874.316 9 -96017629.637 9
  24943212.571    24943216.975   -14439430.066 9   7174558.902 8
 86  6 13  3 54 23.0800000  0  4G12G13G 9G 7
  20955236.534    20955240.412    -7361205.919 9  10405308.540 8
  21459617.212    21459620.441    31155406.176 9 -33660706.865 9
  23519316.869    23519321.146    77861243.947 9 -95998640.324 9
  24940656.812    24940658.691   -14452867.525 9   7164088.173 9
 86  6 13  3 54 29.0800000  0  4G12G13G 9G 7
  20956300.292    20956304.273    -7355615.461 9  10409664.736 9
  21461227.277    21461230.388    31163869.945 9 -33654111.709 9
  23523954.511    23523959.489    77885619.082 8 -95979646.721 9
  24938102.712    24938104.793   -14466290.106 9   7153629.017 9
 86  6 13  3 54 35.0800000  0  4G12G13G 9G 7
  20957369.017    20957373.655    -7349999.417 8  10414040.873 8
  21462838.557    21462842.079    31172337.663 9 -33647513.491 9
  23528594.259    23528597.959    77909999.585 9 -95960648.938 9
  24935551.023    24935553.067   -14479697.327 9   7143181.846 9
 86  6 13  3 54 41.0800000  0  4G12G13G 9G 7
  20958442.220    20958446.157    -7344357.809 8  10418436.923 8
  21464451.817    21464454.027    31180809.326 9 -33640912.194 8
  23533236.238    23533239.288    77934385.411 8 -95941646.994 9
                  24933004.531                     7132750.292 8
 86  6 13  3 54 47.0800000  0  4G12G13G 9G 7
  20959522.076    20959525.301    -7338690.701 9  10422852.840 9
  21466064.577    21466066.024    31189284.924 9 -33634307.837 9
  23537875.834    23537880.540    77958776.659 9 -95922640.838 9
  24930441.220    24930463.242   -14529381.786 9   7122339.700 8
 86  6 13  3 54 53.0800000  0  4G12G13G 9G 7
  20960605.125    20960608.018    -7332998.032 9  10427288.697 9
  21467678.461    21467680.330    31197764.458 9 -33627700.402 9
  23542519.936    23542523.724    77983173.114 8 -95903630.614 8
  24927924.422    24927927.868   -14542709.918 9   7111954.104 9
 86  6 13  3 54 59.0800000  0  4G12G13G 9G 7
  20961693.396    20961696.488    -7327279.737 9  10431744.503 9
  21469292.117    21469295.353    31206247.969 9 -33621089.877 9
  23547163.886    23547167.551    78007574.983 8 -95884616.192 9
  24925393.887    24925396.341   -14556007.309 9   7101592.501 8
 86  6 13  3 55  5.0800000  0  4G12G13G 9G 7
  20962784.842    20962789.911    -7321535.843 8  10436220.254 8
  21470907.073    21470910.112    31214735.490 9 -33614476.221 9
  23551807.280    23551811.246    78031982.166 8 -95865597.606 9
  24922868.458    24922871.830   -14569277.923 9   7091251.761 8
 86  6 13  3 55 11.0800000  0  4G12G13G 9G 7
  20963883.902    20963887.340    -7315766.286 9  10440716.015 9
  21472523.188    21472525.999    31223227.116 9 -33607859.379 8
  23556453.242    23556456.316    78056394.689 8 -95846574.872 9
  24920347.420    24920350.802   -14582526.427 9   7080928.254 9
 86  6 13  3 55 17.0800000  0  4G12G13G 9G 7
  20964985.180    20964990.977    -7309971.116 8  10445231.728 8
  21474139.104    21474141.595    31231722.769 9 -33601239.391 9
  23561099.224    23561103.358    78080812.538 8 -95827547.983 9
  24917829.139    24917833.627   -14595756.200 9   7070619.360 9
 86  6 13  3 55 23.0800000  0  4G12G13G 9G 7
  20966093.502    20966098.623    -7304150.311 9  10449767.413 8
  21475757.395    21475759.854    31240222.439 9 -33594616.272 9
  23565747.413    23565751.519    78105235.733 8 -95808516.931 9
  24915315.753    24915318.949   -14608969.424 9   7060323.342 9
 86  6 13  3 55 29.0800000  0  4G12G13G 9G 7
  20967207.039    20967210.791    -7298303.882 8  10454323.070 9
  21477375.591    21477377.945    31248726.045 9 -33587990.087 9
  23570396.519    23570399.643    78129664.108 8 -95789481.830 9
  24912804.048    24912807.823   -14622167.652 9   7050039.029 8
 86  6 13  3 55 35.0800000  0  4G12G13G 9G 7
  20968324.515    20968328.081    -7292431.788 8  10458898.726 9
  21478994.377    21478997.217    31257233.669 9 -33581360.771 9
  23575045.461    23575049.057    78154097.744 8 -95770442.644 8
  24910295.740    24910299.087   -14635350.045 9   7039767.039 9
 86  6 13  3 55 41.0800000  0  4G12G13G 9G 7
  20969446.756    20969450.495    -7286534.127 9  10463494.296 9
  21480614.370    21480616.702    31265745.242 9 -33574728.373 9
  23579695.933    23579699.338    78178536.520 8 -95751399.456 9
                  24907794.242                     7029511.242 8
 86  6 13  3 55 47.0800000  0  4G12G13G 9G 7
  20970573.377    20970577.400    -7280610.945 9  10468109.759 9
  21482234.815    21482236.721    31274260.675 9 -33568092.970 9
  23584347.369    23584351.237    78202980.464 9 -95732352.239 9
  24905243.922    24905295.264   -14684810.304 9   7019276.990 9
 86  6 13  3 55 53.0800000  0  4G12G13G 9G 7
  20971704.831    20971709.140    -7274662.252 9  10472745.106 9
  21483856.219    21483857.935    31282780.016 9 -33561454.534 9
  23589000.064    23589003.747    78227429.473 7 -95713301.066 9
  24902798.904    24902802.291   -14697912.101 9   7009068.051 9
 86  6 13  3 55 59.0800000  0  4G12G13G 9G 7
  20972841.853    20972846.348    -7268688.072 9  10477400.305 8
  21485477.364    21485479.862    31291303.274 9 -33554813.032 9
  23593653.875    23593656.488    78251883.635 7 -95694245.883 9
  24900311.022    24900314.380   -14710982.800 9   6998883.085 9
 86  6 13  3 56  5.0800000  0  4G12G13G 9G 7
  20973983.597    20973988.220    -7262688.397 9  10482075.371 9
  21487100.526    21487103.088    31299830.284 9 -33548168.621 9
  23598307.960    23598311.409    78276342.701 9 -95675186.866 8
  24897827.303    24897831.541   -14724027.009 9   6988718.754 9
 86  6 13  3 56 11.0800000  0  4G12G13G 9G 7
  20975130.423    20975134.931    -7256663.301 9  10486770.242 9
  21488724.034    21488727.115    31308361.048 9 -33541521.272 9
  23602963.472    23602967.450    78300806.846 8 -95656123.912 8
  24895350.130    24895353.558   -14737049.186 9   6978571.606 9
 86  6 13  3 56 17.0800000  0  4G12G13G 9G 7
  20976281.368    20976286.364    -7250612.842 9  10491484.886 9
  21490347.748    21490350.473    31316895.705 9 -33534870.891 9
  23607619.593    23607623.240    78325275.831 8 -95637057.174 9
  24892875.051    24892879.215   -14750052.542 9   6968439.127 8
 86  6 13  3 56 23.0800000  0  4G12G13G 9G 7
  20977438.493    20977442.487    -7244536.954 9  10496219.340 9
  21491973.293    21491975.346    31325434.140 9 -33528217.562 9
  23612276.916    23612280.455    78349749.897 8 -95617986.475 8
  24890402.990    24890408.428   -14763039.421 9   6958319.489 8
 86  6 13  3 56 29.0800000  0  4G12G13G 9G 7
  20978600.113    20978602.734    -7238435.601 9  10500973.637 9
  21493598.245    21493600.507    31333976.409 9 -33521561.248 9
  23616934.370    23616938.459    78374228.852 9 -95598911.974 8
  24887935.542    24887939.482   -14776011.208 9   6948211.599 9
 86  6 13  3 56 35.0800000  0  4G12G13G 9G 7
  20979765.710    20979769.361    -7232308.811 8  10505747.762 9
  21495224.149    21495227.118    31342522.438 9 -33514902.011 9
  23621594.400    23621597.647    78398712.629 9 -95579833.720 9
  24885469.971    24885474.144   -14788966.903 9   6938116.257 9
 86  6 13  3 56 41.0800000  0  4G12G13G 9G 7
  20980936.461    20980939.738    -7226156.669 9  10510541.639 9
  21496851.468    21496853.656    31351072.196 9 -33508239.869 9
  23626254.152    23626257.960    78423201.193 9 -95560751.723 9
                  24883013.037                     6928037.583 9
 86  6 13  3 56 47.0800000  0  4G12G13G 9G 7
  20982111.659    20982115.637    -7219979.119 9  10515355.314 9
  21498478.511    21498481.778    31359625.737 9 -33501574.768 9
  23630914.050    23630918.881    78447694.516 9 -95541666.025 9
  24880554.565    24880556.233   -14838198.442 9   6917981.265 8
 86  6 13  3 56 53.0800000  0  4G12G13G 9G 7
  20983292.525    20983294.543    -7213776.148 9  10520188.797 9
  21500106.960    21500110.416    31368183.043 9 -33494906.746 8
  23635576.271    23635579.970    78472192.675 9 -95522576.560 8
  24878104.566    24878107.846   -14851071.856 9   6907949.958 8
 86  6 13  3 56 59.0800000  0  4G12G13G 9G 7
  20984477.738    20984480.773    -7207547.775 9  10525042.058 8
  21501736.398    21501739.181    31376744.120 9 -33488235.782 9
  23640239.367    23640242.914    78496695.620 8 -95503483.347 9
  24875659.962    24875663.957   -14863913.905 9   6897942.769 9
 86  6 13  3 57  5.0800000  0  4G12G13G 9G 7
  20985666.775    20985670.784    -7201293.988 9  10529915.151 9
  21503366.087    21503368.624    31385308.966 9 -33481561.865 9
  23644903.690    23644907.580    78521203.367 9 -95484386.414 9
  24873220.971    24873224.538   -14876729.976 9   6887956.227 9
 86  6 13  3 57 11.0800000  0  4G12G13G 9G 7
  20986862.092    20986865.373    -7195014.848 9  10534807.976 9
  21504997.340    21504999.881    31393877.616 9 -33474885.001 9
  23649568.299    23649571.477    78545715.720 9 -95465285.891 8
  24870786.680    24870790.252   -14889524.138 9   6877986.749 9
 86  6 13  3 57 17.0800000  0  4G12G13G 9G 7
  20988061.975    20988064.653    -7188710.381 9  10539720.552 8
  21506628.302    21506631.360    31402449.969 9 -33468205.242 8
  23654232.748    23654236.904    78570232.814 9 -95446181.670 8
  24868355.418    24868359.515   -14902299.377 9   6868032.012 9
 86  6 13  3 57 23.0800000  0  4G12G13G 9G 7
  20989266.094    20989269.630    -7182380.495 9  10544652.925 8
  21508260.680    21508263.006    31411026.114 9 -33461522.542 9
  23658899.596    23658903.628    78594754.668 9 -95427073.730 8
  24865927.016    24865930.736   -14915058.069 9   6858090.191 9
 86  6 13  3 57 29.0800000  0  4G12G13G 9G 7
  20990475.793    20990479.329    -7176025.205 8  10549605.099 9
  21509892.658    21509895.527    31419606.038 9 -33454836.883 9
  23663568.126    23663570.463    78619281.265 9 -95407962.101 8
  24863502.312    24863506.091   -14927801.544 9   6848160.211 9
 86  6 13  3 57 35.0800000  0  4G12G13G 9G 7
  20991689.355    20991694.465    -7169644.459 9  10554577.110 9
  21511526.867    21511529.586    31428189.802 9 -33448148.240 9
  23668234.926    23668237.314    78643812.455 9 -95388846.882 8
  24861081.226    24861083.370   -14940528.345 9   6838243.225 9
 86  6 13  3 57 41.0800000  0  4G12G13G 9G 7
  20992908.984    20992912.492    -7163238.329 9  10559568.886 9
  21513160.149    21513163.088    31436777.272 9 -33441456.705 9
  23672903.668    23672907.740    78668348.302 8 -95369728.048 8
                  24858666.415                     6828343.428 9
 86  6 13  3 57 47.0800000  0  4G12G13G 9G 7
  20994133.004    20994136.727    -7156806.909 8  10564580.385 9
  21514795.737    21514797.642    31445368.523 9 -33434762.221 9
  23677574.393    23677577.126    78692888.773 9 -95350605.609 9
  24856195.804    24856254.400   -14989537.114 9   6818466.268 9
 86  6 13  3 57 53.0800000  0  4G12G13G 9G 7
  20995360.933    20995364.741    -7150350.154 8  10569611.609 9
  21516431.179    21516433.668    31453963.543 9 -33428064.811 9
  23682244.357    23682248.789    78717433.873 8 -95331479.565 8
  24853845.726    24853847.368   -15002179.845 9   6808614.911 9
 86  6 13  3 57 59.0800000  0  4G12G13G 9G 7
  20996595.271    20996598.196    -7143868.052 9  10574662.599 9
  21518067.543    21518069.875    31462562.383 9 -33421364.422 9
  23686916.284    23686920.188    78741983.454 9 -95312350.022 8
  24851446.275    24851449.055   -15014792.093 9   6798787.595 9
 86  6 13  3 58  5.0800000  0  4G12G13G 9G 7
  20997832.416    20997837.313    -7137360.577 9  10579733.361 8
  21519704.500    21519707.058    31471165.013 9 -33414661.074 9
  23691588.623    23691592.322    78766537.604 9 -95293216.923 8
  24849051.054    24849053.907   -15027377.442 9   6788980.830 9
 86  6 13  3 58 11.0800000  0  4G12G13G 9G 7
  20999075.756    20999079.524    -7130827.733 9  10584823.873 9
  21521342.372    21521345.253    31479771.411 9 -33407954.796 9
  23696261.613    23696266.589    78791096.217 8 -95274080.355 8
  24846660.349    24846663.059   -15039940.809 9   6779191.190 8
 86  6 13  3 58 17.0800000  0  4G12G13G 9G 7
  21000324.304    21000328.453    -7124269.616 8  10589934.097 8
  21522980.410    21522983.180    31488381.450 9 -33401245.673 9
  23700935.829    23700939.981    78815659.330 9 -95254940.255 8
  24844272.998    24844275.564   -15052485.236 9   6769416.318 9
 86  6 13  3 58 23.0800000  0  4G12G13G 9G 7
  21001576.530    21001581.485    -7117686.164 9  10595064.054 9
  21524619.942    21524622.812    31496995.129 9 -33394533.725 9
  23705611.991    23705615.483    78840226.987 8 -95235796.624 9
  24841889.710    24841891.545   -15065012.905 9   6759654.495 9
 86  6 13  3 58 29.0800000  0  4G12G13G 9G 7
  21002834.637    21002838.345    -7111077.497 9  10600213.669 9
  21526259.132    21526261.909    31505612.376 9 -33387818.982 9
  23710287.225    23710290.388    78864798.843 9 -95216649.740 8
  24839507.751    24839510.145   -15077525.106 9   6749904.734 8
 86  6 13  3 58 35.0800000  0  4G12G13G 9G 7
  21004096.949    21004100.558    -7104443.661 9  10605382.881 9
  21527900.345    21527902.872    31514233.192 9 -33381101.475 9
  23714964.623    23714967.722    78889375.130 9 -95197499.387 8
  24837129.569    24837133.449   -15090020.293 9   6740168.231 9
 86  6 13  3 58 41.0800000  0  4G12G13G 9G 7
  21005364.487    21005367.808    -7097784.661 8  10610571.705 9
  21529541.130    21529543.555    31522857.502 9 -33374381.239 9
  23719641.369    23719644.781    78913955.714 9 -95178345.689 7
                  24834759.532                     6730449.295 9
 86  6 13  3 58 47.0800000  0  4G12G13G 9G 7
  21006636.472    21006639.807    -7091100.439 9  10615780.186 9
  21531183.519    21531185.445    31531485.466 9 -33367658.160 9
  23724320.688    23724323.950    78938540.565 9 -95159188.668 8
  24832388.855    24832391.263   -15138791.034 9   6720753.367 9
 86  6 13  3 58 53.0800000  0  4G12G13G 9G 7
  21007912.952    21007916.788    -7084391.059 9  10621008.265 9
  21532826.206    21532828.303    31540117.163 9 -33360932.162 9
  23728999.597    23729001.959    78963129.662 9 -95140028.334 8
  24830027.494    24830029.655   -15151201.129 9   6711083.180 9
 86  6 13  3 58 59.0800000  0  4G12G13G 9G 7
  21009194.856    21009198.147    -7077656.585 9  10626255.910 9
  21534468.480    21534472.013    31548752.349 9 -33354203.438 9
  23733679.754    23733682.898    78987722.943 9 -95120864.739 8
  24827672.132    24827674.594   -15163580.398 9   6701436.996 9
 86  6 13  3 59  5.0800000  0  4G12G13G 9G 7
  21010481.623    21010485.685    -7070896.981 9  10631523.134 8
  21536113.085    21536115.761    31557391.086 9 -33347471.968 9
  23738359.735    23738364.847    79012320.411 9 -95101697.879 8
  24825321.722    24825324.229   -15175933.432 9   6691811.259 9
 86  6 13  3 59 11.0800000  0  4G12G13G 9G 7
  21011771.869    21011775.977    -7064112.197 8  10636809.973 9
  21537757.992    21537759.652    31566033.378 9 -33340737.719 9
  23743041.629    23743043.994    79036922.099 9 -95082527.749 8
  24822975.347    24822976.717   -15188264.536 9   6682202.599 9
 86  6 13  3 59 17.0800000  0  4G12G13G 9G 7
  21013068.464    21013071.958    -7057302.180 9  10642116.474 8
  21539402.305    21539405.235    31574679.245 9 -33334000.684 9
  23747723.981    23747728.135    79061527.875 8 -95063354.414 7
  24820631.730    24820634.423   -15200576.663 9   6672608.732 9
 86  6 13  3 59 23.0800000  0  4G12G13G 9G 7
  21014368.713    21014372.319    -7050466.934 9  10647442.631 9
  21541048.305    21541052.067    31583328.641 9 -33327260.893 9
  23752407.559    23752411.034    79086137.853 9 -95044177.812 8
  24818292.996    24818294.295   -15212872.008 9   6663027.946 9
 86  6 13  3 59 29.0800000  0  4G12G13G 9G 7
  21015674.483    21015678.290    -7043606.467 9  10652788.450 8
  21542694.855    21542697.439    31591981.681 9 -33320518.273 9
  23757091.776    23757095.674    79110752.021 8 -95024997.926 9
  24815955.697    24815958.275   -15225151.607 9   6653459.432 8
 86  6 13  3 59 35.0800000  0  4G12G13G 9G 7
  21016983.230    21016988.469    -7036720.812 9  10658153.894 8
  21544343.118    21544345.363    31600638.379 9 -33313772.793 9
  23761775.844    23761778.729    79135370.372 8 -95005814.814 8
  24813622.052    24813625.386   -15237413.724 9   6643904.532 9
 86  6 13  3 59 41.0800000  0  4G12G13G 9G 7
  21018299.375    21018302.883    -7029810.071 9  10663538.889 8
  21545990.491    21545994.420    31609298.746 9 -33307024.456 9
  23766460.862    23766464.495    79159992.839 9 -94986628.468 8
                  24811295.819                     6634367.823 9
 86  6 13  3 59 47.0800000  0  4G12G13G 9G 7
  21019619.782    21019622.819    -7022874.167 9  10668943.477 8
  21547638.962    21547642.407    31617962.646 9 -33300273.370 8
  23771148.644    23771150.678    79184619.351 9 -94967438.986 7
  24808967.965    24808973.365   -15285955.181 9   6624854.598 9
 86  6 13  3 59 53.0800000  0  4G12G13G 9G 7
  21020943.813    21020948.020    -7015913.091 9  10674367.692 9
  21549289.189    21549291.394    31626630.082 9 -33293519.522 9
  23775834.479    23775838.179    79209249.961 8 -94948246.308 8
  24806651.319    24806656.604   -15298130.522 9   6615367.300 9
 86  6 13  3 59 59.0800000  0  4G12G13G 9G 7
  21022273.024    21022277.233    -7008926.916 9  10679811.457 9
  21550938.831    21550941.856    31635301.059 9 -33286762.920 9
  23780522.951    23780525.831    79233884.537 8 -94929050.530 8
  24804341.862    24804345.167   -15310275.167 9   6605903.952 9
 86  6 13  4  0  5.0800000  0  4G12G13G 9G 7
  21023607.466    21023610.875    -7001915.656 9  10685274.780 9
  21552589.139    21552591.821    31643975.577 9 -33280003.561 9
  23785211.431    23785214.637    79258523.103 9 -94909851.651 8
  24802034.825    24802038.869   -15322393.585 9   6596461.025 9
 86  6 13  4  0 11.0800000  0  4G12G13G 9G 7
  21024946.478    21024950.299    -6994879.258 9  10690757.683 9
  21554240.685    21554243.825    31652653.615 9 -33273241.455 9
  23789899.254    23789903.968    79283165.723 8 -94890649.619 8
  24799733.753    24799737.029   -15334489.975 9   6587035.264 9
 86  6 13  4  0 17.0800000  0  4G12G13G 9G 7
  21026290.624    21026293.704    -6987817.723 9  10696260.164 9
  21555892.987    21555895.377    31661335.193 9 -33266476.588 9
  23794589.770    23794594.085    79307812.336 8 -94871444.479 9
  24797435.759    24797438.174   -15346567.155 9   6577624.484 9
 86  6 13  4  0 23.0800000  0  4G12G13G 9G 7
  21027638.449    21027643.029    -6980731.076 9  10701782.237 8
  21557545.843    21557548.489    31670020.330 9 -33259708.947 9
  23799281.754    23799285.146    79332462.827 8 -94852236.302 9
  24795140.364    24795142.468   -15358627.514 9   6568226.800 9
 86  6 13  4  0 29.0800000  0  4G12G13G 9G 7
  21028991.814    21028996.051    -6973619.325 9  10707323.849 9
  21559199.034    21559201.487    31678709.041 9 -33252938.533 9
  23803972.528    23803975.738    79357117.230 9 -94833025.082 9
  24792848.982    24792851.486   -15370672.004 9   6558841.476 9
 86  6 13  4  0 35.0800000  0  4G12G13G 9G 7
  21030350.041    21030354.449    -6966482.527 9  10712884.988 8
  21560853.405    21560855.582    31687401.189 9 -33246165.431 8
  23808663.752    23808669.181    79381775.433 8 -94813810.901 8
  24790560.101    24790562.963   -15382698.715 9   6549470.006 9
 86  6 13  4  0 41.0800000  0  4G12G13G 9G 7
  21031713.292    21031716.658    -6959320.688 9  10718465.635 8
  21562507.134    21562510.697    31696096.811 9 -33239389.620 9
  23813357.870    23813362.147    79406437.417 8 -94794593.776 8
                  24788278.626                     6540117.270 8
 86  6 13  4  0 47.0800000  0  4G12G13G 9G 7
  21033080.492    21033084.528    -6952133.861 9  10724065.764 9
  21564162.499    21564166.799    31704795.926 9 -33232611.096 9
  23818050.696    23818055.640    79431103.203 9 -94775373.683 9
  24785998.069    24786001.185   -15431000.223 9   6530788.551 9
 86  6 13  4  0 53.0800000  0  4G12G13G 9G 7
  21034452.872    21034457.180    -6944922.042 9  10729685.362 9
  21565819.302    21565821.834    31713498.487 9 -33225829.881 9
  23822745.518    23822749.664    79455772.811 8 -94756150.628 9
  24783726.227    24783729.919   -15442938.655 9   6521485.871 9
 86  6 13  4  0 59.0800000  0  4G12G13G 9G 7
  21035829.732    21035833.895    -6937685.244 9  10735324.416 9
  21567476.056    21567478.397    31722204.504 9 -33219045.972 9
  23827441.746    23827444.569    79480446.191 8 -94736924.623 8
  24781459.055    24781463.299   -15454846.517 9   6512207.028 9
 86  6 13  4  1  5.0800000  0  4G12G13G 9G 7
  21037212.070    21037215.762    -6930423.443 9  10740982.956 9
  21569133.362    21569136.045    31730913.878 9 -33212259.455 9
  23832135.868    23832140.560    79505123.156 8 -94717695.836 9
  24779197.970    24779203.057   -15466728.254 9   6502948.523 9
 86  6 13  4  1 11.0800000  0  4G12G13G 9G 7
  21038598.343    21038603.467    -6923136.661 9  10746660.959 9
  21570790.803    21570794.101    31739626.728 9 -33205470.228 9
  23836833.563    23836837.932    79529803.805 7 -94698464.169 9
  24776941.530    24776945.845   -15478588.059 9   6493707.122 9
 86  6 13  4  1 17.0800000  0  4G12G13G 9G 7
  21039991.185    21039994.493    -6915824.975 9  10752358.388 8
  21572450.067    21572452.643    31748343.004 9 -33198678.323 9
  23841531.353    23841535.072    79554488.073 8 -94679229.675 8
  24774687.946    24774692.834   -15490428.826 9   6484480.553 9
 86  6 13  4  1 23.0800000  0  4G12G13G 9G 7
  21041386.375    21041391.208    -6908488.378 9  10758075.204 8
  21574109.418    21574111.937    31757062.608 9 -33191883.827 9
  23846228.235    23846233.883    79579175.839 8 -94659992.472 8
  24772438.685    24772442.459   -15502252.734 8   6475267.122 9
 86  6 13  4  1 29.0800000  0  4G12G13G 9G 7
  21042787.429    21042791.196    -6901126.832 9  10763811.468 8
  21575769.828    21575772.217    31765785.651 9 -33185086.667 9
  23850928.318    23850930.350    79603867.267 8 -94640752.391 9
  24770191.203    24770196.259   -15514060.501 9   6466066.259 9
 86  6 13  4  1 35.0800000  0  4G12G13G 9G 7
  21044192.747    21044196.185    -6893740.460 9  10769567.079 8
  21577429.403    21577432.378    31774512.149 9 -33178286.790 9
  23855627.391    23855630.691    79628562.294 8 -94621509.529 9
  24767948.071    24767951.929   -15525849.912 9   6456879.710 9
 86  6 13  4  1 41.0800000  0  4G12G13G 9G 7
  21045603.862    21045607.297    -6886329.235 9  10775342.055 9
  21579091.686    21579094.133    31783242.066 9 -33171484.267 9
  23860326.015    23860330.475    79653260.858 8 -94602263.918 9
                  24765712.876                     6447712.239 9
 86  6 13  4  1 47.0800000  0  4G12G13G 9G 7
  21047018.611    21047022.534    -6878893.122 9  10781136.425 9
  21580753.228    21580756.003    31791975.340 9 -33164679.114 9
  23865025.636    23865031.791    79677962.870 8 -94583015.587 8
  24763475.756    24763478.883   -15573921.820 9   6438569.232 9
 86  6 13  4  1 53.0800000  0  4G12G13G 9G 7
  21048437.639    21048442.236    -6871432.064 9  10786950.240 9
  21582415.103    21582418.224    31800711.977 9 -33157871.351 9
  23869728.479    23869732.345    79702668.458 9 -94563764.497 9
  24761249.639    24761253.589   -15585621.808 9   6429452.361 9
 86  6 13  4  1 59.0800000  0  4G12G13G 9G 7
  21049861.449    21049866.171    -6863946.116 9  10792783.434 9
  21584078.102    21584081.474    31809451.930 9 -33151061.007 9
  23874430.185    23874435.220    79727377.452 8 -94544510.741 9
  24759028.871    24759033.403   -15597290.578 9   6420359.413 9
 86  6 13  4  2  5.0800000  0  4G12G13G 9G 7
  21051291.592    21051296.315    -6856435.321 9  10798635.992 8
  21585742.505    21585746.118    31818195.312 9 -33144247.991 9
  23879132.970    23879137.722    79752089.921 8 -94525254.286 9
  24756813.235    24756817.094   -15608933.843 9   6411286.723 9
 86  6 13  4  2 11.0800000  0  4G12G13G 9G 7
  21052725.189    21052729.353    -6848899.691 9  10804507.913 9
  21587406.550    21587409.740    31826942.075 9 -33137432.339 8
  23883835.037    23883840.331    79776805.845 7 -94505995.127 9
  24754601.131    24754605.656   -15620555.274 9   6402231.059 8
 86  6 13  4  2 17.0800000  0  4G12G13G 9G 7
  21054164.335    21054168.716    -6841339.280 9  10810399.142 8
  21589071.062    21589075.453    31835692.211 9 -33130614.046 9
  23888541.910    23888544.744    79801525.089 8 -94486733.391 9
  24752393.840    24752397.610   -15632157.561 9   6393190.310 9
 86  6 13  4  2 23.0800000  0  4G12G13G 9G 7
  21055608.417    21055611.110    -6833754.122 9  10816309.644 9
  21590737.573    21590740.571    31844445.649 9 -33123793.185 9
  23893245.424    23893249.226    79826247.720 8 -94467469.015 8
  24750189.505    24750193.760   -15643742.826 9   6384162.832 9
 86  6 13  4  2 29.0800000  0  4G12G13G 9G 7
  21057056.136    21057059.829    -6826144.161 9  10822239.492 9
  21592403.907    21592406.855    31853202.399 9 -33116969.758 9
  23897949.767    23897953.764    79850973.679 8 -94448202.048 9
  24747987.475    24747992.310   -15655311.788 9   6375148.068 9
 86  6 13  4  2 35.0800000  0  4G12G13G 9G 7
  21058509.360    21058511.981    -6818509.437 9  10828188.619 9
  21594070.964    21594074.096    31861962.428 9 -33110143.755 9
  23902656.015    23902659.904    79875702.851 8 -94428932.575 9
  24745790.321    24745793.371   -15666861.968 9   6366147.905 9
 86  6 13  4  2 41.0800000  0  4G12G13G 9G 7
  21059966.208    21059969.486    -6810849.840 9  10834157.130 8
  21595737.918    21595741.346    31870725.749 9 -33103315.194 9
  23907362.909    23907366.007    79900435.355 7 -94409660.510 9
                  24743601.747                     6357167.388 8
 86  6 13  4  2 47.0800000  0  4G12G13G 9G 7
  21061428.491    21061433.202    -6803165.456 9  10840144.958 9
  21597406.193    21597409.353    31879492.395 9 -33096484.048 9
  23912068.320    23912074.377    79925170.987 9 -94390385.986 9
  24741410.176    24741412.114   -15714692.775 9   6348211.566 9
 86  6 13  4  2 53.0800000  0  4G12G13G 9G 7
  21062895.529    21062899.494    -6795456.364 9  10846152.040 9
  21599075.350    21599078.534    31888262.271 9 -33089650.379 9
  23916776.935    23916780.940    79949909.943 8 -94371108.892 9
  24739228.979    24739232.700   -15726152.428 9   6339281.968 8
 86  6 13  4  2 59.0800000  0  4G12G13G 9G 7
  21064367.271    21064371.192    -6787722.431 9  10852178.471 8
  21600744.848    21600747.932    31897035.446 9 -33082814.140 9
  23921485.109    23921489.439    79974652.146 7 -94351829.271 9
  24737054.251    24737057.413   -15737581.813 9   6330376.330 9
 86  6 13  4  3  5.0800000  0  4G12G13G 9G 7
  21065843.420    21065847.615    -6779963.712 9  10858224.231 8
  21602414.959    21602417.665    31905812.054 9 -33075975.229 9
  23926194.951    23926198.478    79999397.601 8 -94332547.100 9
  24734884.491    24734888.254   -15748984.642 9   6321491.011 8
 86  6 13  4  3 11.0800000  0  4G12G13G 9G 7
  21067324.794    21067329.417    -6772180.274 9  10864289.242 9
  21604085.680    21604089.164    31914591.961 9 -33069133.743 9
  23930903.538    23930908.471    80024146.235 8 -94313262.459 9
  24732719.030    24732722.071   -15760365.545 9   6312622.762 8
 86  6 13  4  3 17.0800000  0  4G12G13G 9G 7
  21068810.790    21068814.365    -6764372.088 8  10870373.528 9
  21605756.879    21605760.792    31923375.138 9 -33062289.712 9
  23935614.459    23935617.792    80048897.987 9 -94293975.381 9
  24730557.083    24730560.190   -15771727.199 9   6303769.513 9
 86  6 13  4  3 23.0800000  0  4G12G13G 9G 7
  21070300.689    21070304.956    -6756539.249 9  10876477.033 7
  21607428.651    21607431.740    31932161.656 9 -33055443.079 9
  23940324.432    23940327.766    80073652.858 8 -94274685.879 9
  24728398.490    24728401.160   -15783071.744 9   6294929.602 9
 86  6 13  4  3 29.0800000  0  4G12G13G 9G 7
  21071797.047    21071800.123    -6748681.720 8  10882599.782 8
  21609101.432    21609104.555    31940951.430 9 -33048593.896 9
  23945036.204    23945040.544    80098410.763 8 -94255394.023 9
  24726242.724    24726245.810   -15794399.704 9   6286102.611 9
 86  6 13  4  3 35.0800000  0  4G12G13G 9G 7
  21073297.090    21073300.526    -6740799.466 9  10888741.803 8
  21610775.555    21610777.753    31949744.427 9 -33041742.219 8
  23949748.732    23949752.228    80123171.768 8 -94236099.740 9
  24724090.616    24724094.156   -15805708.354 9   6277290.673 9
 86  6 13  4  3 41.0800000  0  4G12G13G 9G 7
  21074800.844    21074805.822    -6732892.530 9  10894903.035 9
  21612448.838    21612451.834    31958540.624 9 -33034888.045 9
  23954460.258    23954463.770    80147935.801 8 -94216803.099 9
                  24721946.770                     6268498.871 9
 86  6 13  4  3 47.0800000  0  4G12G13G 9G 7
  21076309.147    21076314.557    -6724960.954 9  10901083.488 9
  21614123.118    21614126.461    31967340.084 9 -33028031.320 9
  23959173.943    23959176.711    80172702.861 9 -94197504.101 9
  24719802.195    24719804.469   -15853299.214 9   6259732.200 8
 86  6 13  4  3 53.0800000  0  4G12G13G 9G 7
  21077824.088    21077829.385    -6717004.702 9  10907283.157 8
  21615798.040    21615801.746    31976142.875 9 -33021172.007 9
  23963887.477    23963891.858    80197472.862 9 -94178202.808 9
  24717668.712    24717671.327   -15864516.013 9   6250991.836 9
 86  6 13  4  3 59.0800000  0  4G12G13G 9G 7
  21079342.867    21079346.561    -6709023.789 8  10913502.044 8
  21617473.969    21617477.009    31984948.920 9 -33014310.156 9
  23968601.514    23968605.171    80222245.914 9 -94158899.136 9
  24715539.441    24715543.222   -15875701.710 9   6242275.305 8
 86  6 13  4  4  5.0800000  0  4G12G13G 9G 7
  21080866.035    21080870.400    -6701018.211 9  10919740.147 9
  21619150.647    21619153.221    31993758.226 9 -33007445.760 9
  23973316.045    23973319.880    80247021.845 9 -94139593.223 9
  24713415.820    24713419.311   -15886861.964 9   6233579.006 9
 86  6 13  4  4 11.0800000  0  4G12G13G 9G 7
  21082394.155    21082398.736    -6692988.145 9  10925997.338 9
  21620826.899    21620831.075    32002570.668 9 -33000578.919 9
  23978030.221    23978035.667    80271800.633 8 -94120285.082 9
  24711296.708    24711299.634   -15898000.411 9   6224899.693 8
 86  6 13  4  4 17.0800000  0  4G12G13G 9G 7
  21083927.701    21083931.424    -6684933.487 9  10932273.695 8
  21622504.701    21622508.350    32011386.251 9 -32993709.635 9
  23982746.616    23982750.942    80296582.253 9 -94100974.735 9
  24709180.757    24709183.043   -15909119.578 9   6216235.413 9
 86  6 13  4  4 23.0800000  0  4G12G13G 9G 7
  21085464.194    21085468.859    -6676854.232 9  10938569.215 9
  21624182.956    21624185.931    32020205.022 9 -32986837.860 9
  23987463.743    23987466.986    80321366.742 9 -94081662.160 9
  24707068.086    24707070.609   -15920221.533 9   6207584.532 9
 86  6 13  4  4 29.0800000  0  4G12G13G 9G 7
  21087007.697    21087011.073    -6668750.404 9  10944883.880 9
  21625861.981    21625865.033    32029026.916 9 -32979963.662 9
  23992180.675    23992184.020    80346153.995 9 -94062347.425 9
  24704958.412    24704960.903   -15931306.660 9   6198946.769 9
 86  6 13  4  4 35.0800000  0  4G12G13G 9G 7
  21088554.091    21088557.381    -6660622.057 9  10951217.657 9
  21627541.620    21627543.805    32037852.047 9 -32973086.943 9
  23996897.900    23996901.274    80370944.090 9 -94043030.464 9
  24702852.448    24702855.744   -15942372.110 9   6190324.327 9
 86  6 13  4  4 41.0800000  0  4G12G13G 9G 7
  21090105.662    21090109.585    -6652469.239 9  10957570.488 9
  21629221.197    21629224.046    32046680.431 9 -32966207.675 9
  24001615.011    24001618.961    80395736.950 9 -94023711.357 9
                  24700754.781                     6181722.546 8
 86  6 13  4  4 47.0800000  0  4G12G13G 9G 7
  21091660.430    21091665.451    -6644291.848 9  10963942.468 9
  21630901.835    21630904.856    32055512.074 9 -32959325.881 9
  24006334.228    24006338.282    80420532.619 9 -94004390.061 9
  24698657.655    24698659.608   -15989711.246 9   6173146.285 8
 86  6 13  4  4 53.0800000  0  4G12G13G 9G 7
  21093222.577    21093226.269    -6636089.904 9  10970333.598 9
  21632583.586    21632586.697    32064346.860 9 -32952441.639 9
  24011053.191    24011057.168    80445330.955 9 -93985066.697 9
  24696570.420    24696572.418   -16000683.511 9   6164596.468 9
 86  6 13  4  4 59.0800000  0  4G12G13G 9G 7
  21094787.557    21094791.494    -6627863.426 8  10976743.831 9
  21634265.296    21634267.851    32073184.795 9 -32945554.927 9
  24015771.651    24015776.312    80470131.947 9 -93965741.250 9
  24694488.027    24694490.221   -16011625.390 9   6156070.327 9
 86  6 13  4  5  5.0800000  0  4G12G13G 9G 7
  21096357.778    21096361.470    -6619612.502 9  10983173.124 9
  21635947.756    21635950.119    32082025.805 9 -32938665.833 9
  24020492.548    24020495.654    80494935.652 9 -93946413.690 9
  24692411.024    24692412.421   -16022541.466 8   6147564.283 9
 86  6 13  4  5 11.0800000  0  4G12G13G 9G 7
  21097932.033    21097936.626    -6611337.132 9  10989621.453 9
  21637630.548    21637633.236    32090869.835 9 -32931774.378 9
  24025212.423    24025217.023    80519741.883 9 -93927084.163 9
  24690337.445    24690339.683   -16033435.663 9   6139075.296 9
 86  6 13  4  5 17.0800000  0  4G12G13G 9G 7
  21099512.351    21099515.729    -6603037.347 9  10996088.817 9
  21639314.380    21639316.669    32099717.020 9 -32924880.468 9
  24029933.884    24029937.719    80544550.710 9 -93907752.618 9
  24688268.455    24688270.683   -16044310.551 9   6130601.353 9
 86  6 13  4  5 23.0800000  0  4G12G13G 9G 7
  21101095.405    21101099.698    -6594713.106 9  11002575.232 8
  21640998.523    21641000.746    32108567.314 9 -32917984.131 8
  24034655.026    24034659.027    80569362.075 9 -93888419.083 8
  24686202.678    24686205.113   -16055168.013 9   6122140.986 9
 86  6 13  4  5 29.0800000  0  4G12G13G 9G 7
  21102684.097    21102688.649    -6586364.443 9  11009080.688 8
  21642683.028    21642686.226    32117420.758 9 -32911085.348 9
  24039376.986    24039382.330    80594176.074 9 -93869083.498 8
  24684138.737    24684142.375   -16066008.487 9   6113693.855 9
 86  6 13  4  5 35.0800000  0  4G12G13G 9G 7
  21104277.312    21104281.433    -6577991.388 8  11015605.147 9
  21644368.124    21644371.448    32126277.412 9 -32904184.055 9
  24044100.426    24044103.486    80618992.594 9 -93849745.959 9
  24682079.645    24682083.858   -16076828.837 9   6105262.400 9
 86  6 13  4  5 41.0800000  0  4G12G13G 9G 7
  21105876.176    21105879.827    -6569593.863 9  11022148.660 8
  21646053.617    21646056.433    32135137.177 9 -32897280.336 9
  24048823.440    24048825.440    80643811.609 9 -93830406.463 9
                  24680029.301                     6096852.133 8
 86  6 13  4  5 47.0800000  0  4G12G13G 9G 7
  21107478.807    21107482.629    -6561171.916 8  11028711.213 9
  21647741.155    21647744.074    32144000.016 9 -32890374.232 9
  24053546.095    24053550.223    80668633.184 9 -93811064.989 8
  24677976.344    24677981.324   -16123930.492 9   6088467.725 9
 86  6 13  4  5 53.0800000  0  4G12G13G 9G 7
  21109085.369    21109089.264    -6552725.601 8  11035292.743 9
  21649427.788    21649430.921    32152865.920 9 -32883465.732 9
  24058270.026    24058274.337    80693457.250 9 -93791721.559 9
  24675936.146    24675941.469   -16134656.445 9   6080109.855 9
 86  6 13  4  5 59.0800000  0  4G12G13G 9G 7
  21110697.072    21110701.966    -6544254.863 9  11041893.310 8
  21651115.543    21651119.153    32161734.901 9 -32876554.842 9
  24062994.398    24062998.985    80718283.736 9 -93772376.249 8
  24673901.860    24673905.209   -16145352.426 9   6071775.708 8
 86  6 13  4  6  5.0800000  0  4G12G13G 9G 7
  21112313.866    21112318.132    -6535759.733 9  11048512.898 8
  21652803.914    21652806.387    32170606.886 9 -32869641.595 9
  24067719.039    24067721.764    80743112.638 9 -93753029.055 8
  24671871.746    24671874.951   -16156022.108 9   6063461.656 9
 86  6 13  4  6 11.0800000  0  4G12G13G 9G 7
  21113934.896    21113939.475    -6527240.291 8  11055151.423 9
  21654492.747    21654496.188    32179481.920 9 -32862725.994 9
  24072443.943    24072448.097    80767943.867 9 -93733680.047 9
  24669845.599    24669849.317   -16166669.919 9   6055164.654 9
 86  6 13  4  6 17.0800000  0  4G12G13G 9G 7
  21115560.635    21115564.316    -6518696.544 8  11061808.895 9
  21656182.369    21656185.734    32188360.008 9 -32855807.996 9
  24077170.032    24077174.043    80792777.521 9 -93714329.148 8
  24667823.338    24667826.137   -16177298.363 9   6046882.747 9
 86  6 13  4  6 23.0800000  0  4G12G13G 9G 7
  21117189.796    21117194.932    -6510128.507 8  11068485.268 9
  21657871.999    21657875.476    32197241.200 9 -32848887.589 9
  24081896.330    24081900.433    80817613.476 9 -93694976.476 9
  24665804.501    24665805.851   -16187909.357 9   6038614.439 8
 86  6 13  4  6 29.0800000  0  4G12G13G 9G 7
  21118826.650    21118830.640    -6501536.211 9  11075180.561 9
  21659562.439    21659565.642    32206125.468 9 -32841964.780 9
  24086622.574    24086625.064    80842451.666 9 -93675622.031 9
  24663788.661    24663791.361   -16198503.159 9   6030359.509 9
 86  6 13  4  6 35.0800000  0  4G12G13G 9G 7
  21120465.796    21120469.589    -6492919.540 8  11081894.841 8
  21661253.770    21661256.802    32215012.731 9 -32835039.641 9
  24091348.933    24091353.040    80867292.130 9 -93656265.827 8
  24661775.851    24661779.463   -16209076.271 9   6022120.712 9
 86  6 13  4  6 41.0800000  0  4G12G13G 9G 7
  21122111.036    21122114.343    -6484278.580 9  11088628.045 9
  21662945.653    21662948.685    32223903.032 9 -32828112.141 9
  24096077.733    24096080.662    80892134.858 9 -93636907.850 8
                  24659771.909                     6013903.506 8
 86  6 13  4  6 47.0800000  0  4G12G13G 9G 7
  21123758.982    21123764.221    -6475613.382 9  11095380.156 9
  21664638.459    21664641.111    32232796.403 9 -32821182.228 9
  24100804.733    24100809.263    80916979.856 9 -93617548.115 8
  24657768.205    24657772.005   -16255931.083 9   6005712.396 9
 86  6 13  4  6 53.0800000  0  4G12G13G 9G 7
  21125413.081    21125417.963    -6466923.936 8  11102151.147 9
  21666330.965    21666334.483    32241692.764 9 -32814249.995 9
  24105533.251    24105536.655    80941826.959 9 -93598186.747 8
  24655774.150    24655778.709   -16266408.975 9   5997547.812 8
 86  6 13  4  6 59.0800000  0  4G12G13G 9G 7
  21127071.260    21127075.625    -6458210.216 9  11108941.053 8
  21668024.493    21668027.876    32250592.092 9 -32807315.459 9
  24110261.646    24110265.421    80966676.276 8 -93578823.630 8
  24653785.837    24653790.249   -16276856.077 9   5989406.813 9
 86  6 13  4  7  5.0800000  0  4G12G13G 9G 7
  21128734.347    21128738.752    -6449472.320 9  11115749.807 8
  21669718.415    21669721.691    32259494.373 9 -32800378.612 9
  24114991.365    24114994.720    80991527.765 9 -93559458.847 9
  24651802.938    24651807.854   -16287278.017 9   5981285.827 9
 86  6 13  4  7 11.0800000  0  4G12G13G 9G 7
  21130401.793    21130405.832    -6440710.277 9  11122577.366 9
  21671413.360    21671416.758    32268399.574 9 -32793439.501 9
  24119721.706    24119723.610    81016381.245 9 -93540092.493 8
  24649824.509    24649828.050   -16297678.042 9   5973181.901 8
 86  6 13  4  7 17.0800000  0  4G12G13G 9G 7
  21132073.865    21132077.718    -6431924.072 9  11129423.750 9
  21673107.848    21673111.287    32277307.771 9 -32786498.044 9
  24124450.518    24124453.668    81041236.707 8 -93520724.599 8
  24647849.246    24647852.523   -16308058.721 9   5965093.062 9
 86  6 13  4  7 23.0800000  0  4G12G13G 9G 7
  21133749.745    21133754.439    -6423113.782 9  11136288.917 9
  21674804.144    21674806.627    32286218.954 9 -32779554.267 9
  24129180.336    24129184.179    81066094.339 9 -93501355.026 8
  24645877.044    24645880.435   -16318421.848 9   5957017.891 9
 86  6 13  4  7 29.0800000  0  4G12G13G 9G 7
  21135431.032    21135435.110    -6414279.309 9  11143172.922 8
  21676499.949    21676503.147    32295133.130 9 -32772608.152 9
  24133912.013    24133916.153    81090953.906 9 -93481983.933 8
  24643908.643    24643912.807   -16328767.412 9   5948956.401 9
 86  6 13  4  7 35.0800000  0  4G12G13G 9G 7
  21137116.568    21137121.133    -6405420.693 9  11150075.728 9
  21678197.019    21678200.724    32304050.324 9 -32765659.689 9
  24138641.438    24138647.021    81115815.560 9 -93462611.214 8
  24641944.117    24641945.857   -16339091.869 9   5940911.364 9
 86  6 13  4  7 41.0800000  0  4G12G13G 9G 7
  21138807.311    21138811.564    -6396537.958 9  11156997.346 9
  21679894.797    21679896.557    32312970.463 9 -32758708.932 9
  24143375.132    24143376.208    81140679.130 9 -93443236.996 8
                  24639987.707                     5932888.348 8
 86  6 13  4  7 47.0800000  0  4G12G13G 9G 7
  21140502.651    21140506.743    -6387631.144 8  11163937.709 8
  21681593.304    21681595.610    32321893.576 9 -32751755.852 9
  24148104.990    24148109.386    81165544.721 8 -93423861.227 8
  24638031.635    24638032.659   -16385699.285 8   5924891.806 8
 86  6 13  4  7 53.0800000  0  4G12G13G 9G 7
  21142201.981    21142205.875    -6378700.337 8  11170896.783 8
  21683291.092    21683294.232    32330819.545 9 -32744800.551 9
  24152837.989    24152841.127    81190412.141 9 -93404484.021 8
  24636084.807    24636087.655   -16395927.445 9   5916921.807 9
 86  6 13  4  7 59.0800000  0  4G12G13G 9G 7
  21143906.032    21143909.297    -6369745.452 9  11177874.616 8
  21684990.572    21684993.412    32339748.505 9 -32737842.908 9
  24157569.965    24157573.686    81215281.559 8 -93385105.247 8
  24634144.870    24634147.446   -16406125.330 9   5908975.399 9
 86  6 13  4  8  5.0800000  0  4G12G13G 9G 7
  21145613.734    21145618.589    -6360766.516 9  11184871.183 8
  21686690.738    21686693.167    32348680.352 9 -32730883.027 9
  24162303.286    24162307.138    81240152.821 8 -93365725.043 8
  24632209.862    24632211.292   -16416297.674 9   5901048.894 9
 86  6 13  4  8 11.0800000  0  4G12G13G 9G 7
  21147326.659    21147331.740    -6351763.529 8  11191886.492 9
  21688391.466    21688393.163    32357615.085 8 -32723920.893 9
  24167035.970    24167037.853    81265025.796 9 -93346343.511 8
  24630278.876    24630280.238   -16426448.218 9   5893139.364 8
 86  6 13  4  8 17.0800000  0  4G12G13G 9G 7
  21149045.019    21149049.932    -6342736.547 9  11198920.504 8
  21690091.205    21690094.348    32366552.662 9 -32716956.550 9
  24171769.418    24171772.826    81289900.548 8 -93326960.592 9
  24628350.541    24628352.035   -16436579.348 9   5885244.964 9
 86  6 13  4  8 23.0800000  0  4G12G13G 9G 7
  21150767.360    21150772.326    -6333685.494 9  11205973.263 9
  21691792.368    21691795.872    32375493.157 9 -32709989.931 9
  24176503.512    24176507.827    81314777.172 8 -93307576.214 9
  24626425.434    24626427.382   -16446692.852 9   5877364.305 8
 86  6 13  4  8 29.0800000  0  4G12G13G 9G 7
  21152494.022    21152498.216    -6324610.429 8  11213044.744 9
  21693494.275    21693497.237    32384436.570 9 -32703021.027 9
  24181237.422    24181240.638    81339655.631 8 -93288190.401 7
  24624504.665    24624507.813   -16456788.346 9   5869497.682 8
 86  6 13  4  8 35.0800000  0  4G12G13G 9G 7
  21154225.860    21154231.115    -6315511.305 9  11220134.964 8
  21695196.332    21695199.859    32393382.900 9 -32696049.858 9
  24185972.448    24185976.612    81364535.860 8 -93268803.217 7
                  24622589.547                     5861647.874 9
 86  6 13  4  8 41.0800000  0  3G12G13G 9
  21155961.739    21155966.447    -6306388.191 9  11227243.880 8
  21696899.912    21696903.082    32402332.117 9 -32689076.439 9
  24190706.444    24190709.586    81389417.856 8 -93249414.641 7
 86  6 13  4  8 47.0800000  0  4G12G13G 9G 7
  21157702.208    21157706.188    -6297241.165 9  11234371.440 9
  21698603.028    21698606.761    32411284.235 9 -32682100.754 9
  24195441.928    24195447.665    81414301.522 8 -93230024.779 8
  24618770.787    24618773.302   -16513218.826 9   5846020.164 9
 86  6 13  4  8 53.0800000  0  4G12G13G 9G 7
  21159447.470    21159451.962    -6288070.181 8  11241517.653 8
  21700307.425    21700310.880    32420239.236 9 -32675122.832 9
  24200178.271    24200182.061    81439186.823 8 -93210633.640 7
  24616872.896    24616874.956   -16523195.336 9   5838246.249 8
 86  6 13  4  8 59.0800000  0  4G12G13G 9G 7
  21161197.387    21161201.122    -6278875.243 9  11248682.536 9
  21702011.743    21702014.546    32429197.103 9 -32668142.667 9
  24204913.105    24204916.739    81464073.817 8 -93191241.168 7
  24614980.105    24614982.480   -16533141.788 9   5830495.768 9
 86  6 13  4  9  5.0800000  0  4G12G13G 9G 7
  21162951.119    21162955.225    -6269656.354 8  11255866.084 9
  21703717.084    21703720.096    32438157.826 9 -32661160.288 9
  24209650.756    24209655.061    81488962.408 8 -93171847.472 9
  24613091.761    24613094.076   -16543062.647 9   5822765.223 9
 86  6 13  4  9 11.0800000  0  4G12G13G 9G 7
  21164710.162    21164714.828    -6260413.531 9  11263068.274 8
  21705422.725    21705425.307    32447121.430 9 -32654175.667 9
  24214385.087    24214389.088    81513852.626 8 -93152452.520 7
  24611208.037    24611210.684   -16552961.573 9   5815051.768 9
 86  6 13  4  9 17.0800000  0  4G12G13G 9G 7
  21166473.797    21166478.579    -6251146.791 8  11270289.114 9
  21707129.403    21707132.415    32456087.914 9 -32647188.805 9
  24219122.889    24219126.199    81538744.410 9 -93133056.324 8
  24609328.055    24609329.680   -16562840.977 9   5807353.517 8
 86  6 13  4  9 23.0800000  0  4G12G13G 9G 7
  21168242.097    21168246.162    -6241856.208 9  11277528.527 8
  21708835.773    21708838.990    32465057.317 9 -32640199.647 9
  24223857.664    24223863.936    81563637.614 8 -93113659.015 8
  24607451.685    24607453.230   -16572702.594 9   5799669.141 9
 86  6 13  4  9 29.0800000  0  4G12G13G 9G 7
  21170014.747    21170018.758    -6232541.786 8  11284786.525 8
  21710543.097    21710546.324    32474029.489 9 -32633208.342 9
  24228596.189    24228600.197    81588532.505 7 -93094260.398 8
  24605577.707    24605579.848   -16582546.064 9   5791998.897 8
 86  6 13  4  9 35.0800000  0  4G12G13G 9G 7
  21171792.006    21171796.643    -6223203.498 9  11292063.106 8
  21712251.243    21712253.298    32483004.415 9 -32626214.898 9
  24233336.122    24233337.093    81613428.874 8 -93074860.647 8
                  24603711.742                     5784345.913 8
 86  6 13  4  9 41.0800000  0  4G12G13G 9G 7
  21173573.529    21173576.936    -6213841.433 9  11299358.223 9
  21713959.466    21713962.529    32491982.178 9 -32619219.224 9
  24238071.703    24238078.014    81638326.703 7 -93055459.760 8
  24601781.768    24601847.748   -16628709.572 9   5776715.782 8
 86  6 13  4  9 47.0800000  0  4G12G13G 9G 7
  21175358.631    21175362.954    -6204455.622 9  11306671.843 8
  21715667.881    21715671.229    32500962.771 9 -32612221.349 9
  24242808.714    24242814.727    81663225.835 7 -93036057.837 7
  24599988.534    24599992.650   -16638467.193 9   5769112.701 8
 86  6 13  4  9 53.0800000  0  4G12G13G 9G 7
  21177149.167    21177153.831    -6195046.092 8  11314003.935 8
  21717377.433    21717381.590    32509946.193 9 -32605221.283 9
  24247550.202    24247553.460    81688126.426 8 -93016654.780 8
  24598138.803    24598141.527   -16648190.982 9   5761536.094 9
 86  6 13  4  9 59.0800000  0  4G12G13G 9G 7
  21178945.213    21178948.319    -6185612.759 9  11321354.590 8
  21719087.684    21719090.919    32518932.453 9 -32598218.984 9
  24252289.605    24252292.153    81713028.368 8 -92997250.678 8
  24596293.793    24596296.658   -16657884.359 9   5753982.824 9
 86  6 13  4 10  5.0800000  0  4G12G13G 9G 7
  21180745.324    21180748.532    -6176155.631 9  11328723.784 8
  21720798.364    21720801.362    32527921.440 9 -32591214.575 9
  24257028.130    24257030.819    81737931.721 8 -92977845.477 9
  24594454.318    24594456.144   -16667552.149 9   5746449.469 9
 86  6 13  4 10 11.0800000  0  4G12G13G 9G 7
  21182549.195    21182551.975    -6166674.786 9  11336111.447 8
  21722509.184    21722512.856    32536913.224 9 -32584207.984 9
  24261766.471    24261769.026    81762836.363 8 -92958439.279 8
  24592619.033    24592621.457   -16677198.088 9   5738933.147 8
 86  6 13  4 10 17.0800000  0  4G12G13G 9G 7
  21184357.648    21184361.229    -6157170.304 9  11343517.549 8
  21724220.894    21724224.413    32545907.771 9 -32577199.246 9
  24266506.009    24266508.360    81787742.312 8 -92939032.052 8
  24590787.433    24590790.468   -16686824.386 9   5731432.135 9
 86  6 13  4 10 23.0800000  0  4G12G13G 9G 7
  21186170.824    21186174.230    -6147642.097 9  11350942.116 9
  21725932.993    21725936.187    32554905.088 9 -32570188.346 9
  24271242.806    24271250.783    81812649.578 7 -92919623.790 9
  24588958.100    24588962.246   -16696432.815 9   5723945.047 8
 86  6 13  4 10 29.0800000  0  4G12G13G 9G 7
  21187988.176    21187991.725    -6138090.176 9  11358385.159 8
  21727645.922    21727648.775    32563905.155 9 -32563175.302 9
  24275987.730    24275987.724    81837558.063 8 -92900214.592 9
  24587133.433    24587136.460   -16706022.867 9   5716472.268 8
 86  6 13  4 10 35.0800000  0  4G12G13G 9G 7
  21189810.481    21189814.371    -6128514.554 9  11365846.692 8
  21729358.785    21729362.045    32572908.060 9 -32556160.041 9
  24280724.525    24280729.496    81862467.834 8 -92880804.415 8
                  24585316.619                     5709017.150 8
 86  6 13  4 10 41.0800000  0  4G12G13G 9G 7
  21191636.088    21191640.855    -6118915.217 8  11373326.697 9
  21731071.988    21731075.973    32581913.760 9 -32549142.616 9
  24285464.782    24285470.164    81887378.801 8 -92861393.257 8
  24583530.979    24583501.631   -16751941.292 9   5701585.356 8
 86  6 13  4 10 47.0800000  0  4G12G13G 9G 7
  21193467.766    21193472.173    -6109292.166 9  11380825.165 8
  21732786.205    21732790.450    32590922.255 9 -32542123.007 9
  24290207.070    24290209.879    81912290.905 8 -92841981.243 8
  24581689.662    24581694.049   -16761443.688 9   5694180.869 8
 86  6 13  4 10 53.0800000  0  4G12G13G 9G 7
  21195303.434    21195308.301    -6099645.431 8  11388342.095 8
  21734501.677    21734505.169    32599933.484 9 -32535101.269 9
  24294947.052    24294952.528    81937204.264 8 -92822568.236 8
  24579887.305    24579890.945   -16770911.970 9   5686802.975 8
 86  6 13  4 10 59.0800000  0  4G12G13G 9G 7
  21197144.068    21197149.090    -6089975.069 9  11395877.453 8
  21736216.776    21736220.071    32608947.462 9 -32528077.385 9
  24299687.587    24299692.438    81962118.700 8 -92803154.401 8
  24578091.627    24578095.207   -16780349.745 9   5679448.479 8
 86  6 13  4 11  5.0800000  0  4G12G13G 9G 7
  21198988.709    21198992.917    -6080281.125 9  11403431.158 8
  21737932.800    21737936.076    32617964.207 9 -32521051.351 9
  24304429.245    24304432.494    81987034.324 8 -92783739.638 8
  24576299.944    24576303.503   -16789762.606 9   5672113.778 9
 86  6 13  4 11 11.0800000  0  4G12G13G 9G 7
  21200837.026    21200842.523    -6070563.593 9  11411003.259 8
  21739648.587    21739652.498    32626983.616 9 -32514023.231 9
  24309171.079    24309173.322    82011951.052 8 -92764324.011 8
  24574512.836    24574517.000   -16799153.565 9   5664796.153 9
 86  6 13  4 11 17.0800000  0  4G12G13G 9G 7
  21202691.784    21202695.104    -6060822.437 9  11418593.786 8
  21741364.717    21741368.898    32636005.753 9 -32506992.984 8
  24313913.499    24313917.246    82036868.805 9 -92744907.582 8
  24572729.980    24572734.358   -16808524.833 9   5657493.863 8
 86  6 13  4 11 23.0800000  0  4G12G13G 9G 7
  21204549.815    21204554.755    -6051057.727 9  11426202.646 9
  21743083.357    21743086.202    32645030.631 9 -32499960.618 9
  24318656.676    24318658.170    82061787.650 9 -92725490.303 9
  24570950.655    24570952.844   -16817878.270 9   5650205.477 9
 86  6 13  4 11 29.0800000  0  4G12G13G 9G 7
  21206412.386    21206416.238    -6041269.406 9  11433829.904 8
  21744801.670    21744805.216    32654058.229 9 -32492926.113 8
  24323396.896    24323402.232    82086707.436 9 -92706072.304 9
  24569174.100    24569177.102   -16827213.042 9   5642931.628 8
 86  6 13  4 11 35.0800000  0  4G12G13G 9G 7
  21208279.679    21208284.560    -6031457.508 8  11441475.542 9
  21746519.395    21746522.871    32663088.537 9 -32485889.508 8
  24328137.981    24328142.394    82111628.207 9 -92686653.528 8
                  24567405.575                     5635675.999 9
 86  6 13  4 11 41.0800000  0  4G12G13G 9G 7
  21210150.992    21210155.285    -6021622.080 9  11449139.513 8
  21748238.186    21748241.640    32672121.575 9 -32478850.771 9
  24332883.066    24332885.533    82136550.072 9 -92667233.895 8
  24565646.669    24565639.314   -16872877.543 9   5628443.968 9
 86  6 13  4 11 47.0800000  0  4G12G13G 9G 7
  21212027.483    21212031.275    -6011763.170 8  11456821.781 9
  21749957.735    21749961.016    32681157.255 9 -32471809.982 9
  24337624.239    24337628.775    82161472.863 9 -92647813.560 8
  24563877.328    24563879.830   -16882123.472 9   5621239.332 9
 86  6 13  4 11 53.0800000  0  4G12G13G 9G 7
  21213908.498    21213912.307    -6001880.835 9  11464522.300 9
  21751677.347    21751681.089    32690195.576 9 -32464767.124 9
  24342367.245    24342370.791    82186396.398 9 -92628392.621 9
  24562124.102    24562127.295   -16891335.360 9   5614061.248 9
 86  6 13  4 11 59.0800000  0  4G12G13G 9G 7
  21215793.449    21215797.112    -5991975.106 9  11472241.051 9
  21753398.134    21753401.424    32699236.520 9 -32457722.233 9
  24347109.862    24347115.553    82211320.926 8 -92608970.932 9
  24560376.498    24560379.697   -16900517.434 9   5606906.390 8
 86  6 13  4 12  5.0800000  0  4G12G13G 9G 7
  21217681.817    21217686.124    -5982045.912 9  11479978.078 8
  21755119.358    21755122.342    32708280.161 9 -32450675.238 8
  24351853.743    24351856.431    82236246.276 8 -92589548.574 8
  24558633.730    24558637.256   -16909674.182 9   5599771.259 9
 86  6 13  4 12 11.0800000  0  4G12G13G 9G 7
  21219575.450    21219580.261    -5972093.359 9  11487733.305 9
  21756840.394    21756843.233    32717326.407 9 -32443626.206 9
  24356596.790    24356600.637    82261171.795 9 -92570126.109 9
  24556895.724    24556899.017   -16918808.891 9   5592653.313 9
 86  6 13  4 12 17.0800000  0  4G12G13G 9G 7
  21221475.368    21221478.347    -5962117.404 8  11495506.776 8
  21758561.790    21758565.716    32726375.232 9 -32436575.167 8
  24361339.795    24361342.703    82286099.054 9 -92550702.270 8
  24555161.124    24555164.768   -16927923.874 9   5585550.723 9
 86  6 13  4 12 23.0800000  0  4G12G13G 9G 7
  21223377.244    21223381.728    -5952118.095 9  11503298.445 8
  21760285.324    21760288.040    32735426.676 9 -32429522.090 9
  24366083.204    24366088.089    82311026.855 9 -92531278.017 9
  24553429.792    24553434.062   -16937020.809 9   5578462.212 9
 86  6 13  4 12 29.0800000  0  4G12G13G 9G 7
  21225285.360    21225288.769    -5942095.412 9  11511108.333 7
  21762007.975    21762010.757    32744480.757 9 -32422466.953 9
  24370827.613    24370831.536    82335955.705 9 -92511852.956 9
  24551702.782    24551706.310   -16946098.848 9   5571388.410 8
 86  6 13  4 12 35.0800000  0  4G12G13G 9G 7
  21227197.182    21227200.505    -5932049.448 9  11518936.350 8
  21763731.272    21763733.788    32753537.449 9 -32415409.794 9
  24375572.024    24375575.134    82360884.596 9 -92492427.846 8
                  24549983.615                     5564333.169 9
 86  6 13  4 12 41.0800000  0  4G12G13G 9G 7
  21229113.098    21229116.792    -5921980.112 9  11526782.589 8
  21765455.223    21765458.938    32762596.784 9 -32408350.562 9
  24380313.955    24380318.605    82385814.100 9 -92473002.269 9
  24548230.044    24548266.647   -16991506.890 9   5557302.008 9
 86  6 13  4 12 47.0800000  0  4G12G13G 9G 7
  21231032.947    21231036.855    -5911887.417 9  11534647.023 8
  21767179.669    21767182.092    32771658.791 9 -32401289.260 9
  24385059.146    24385063.181    82410744.442 9 -92453576.034 9
  24546552.446    24546555.305   -17000494.703 9   5550298.543 9
 86  6 13  4 12 53.0800000  0  4G12G13G 9G 7
  21232958.179    21232961.785    -5901771.432 9  11542529.609 8
  21768905.460    21768907.120    32780723.409 9 -32394225.908 8
  24389804.017    24389807.929    82435675.274 9 -92434149.423 9
  24544848.932    24544852.196   -17009448.844 9   5543321.675 9
 86  6 13  4 12 59.0800000  0  4G12G13G 9G 7
  21234887.985    21234891.524    -5891632.120 8  11550430.374 8
  21770630.457    21770632.257    32789790.598 9 -32387160.562 8
  24394547.350    24394550.917    82460607.057 9 -92414722.076 9
  24543150.733    24543154.830   -17018372.652 9   5536368.064 9
 86  6 13  4 13  5.0800000  0  4G12G13G 9G 7
  21236821.300    21236825.352    -5881469.582 8  11558349.225 8
  21772356.612    21772359.119    32798860.398 9 -32380093.176 8
  24399293.267    24399296.257    82485539.255 9 -92395294.399 9
  24541457.385    24541460.180   -17027271.369 9   5529434.010 9
 86  6 13  4 13 11.0800000  0  4G12G13G 9G 7
  21238759.465    21238764.445    -5871283.811 9  11566286.188 9
  21774083.041    21774085.354    32807932.831 9 -32373023.756 8
  24404036.463    24404041.091    82510471.964 9 -92375866.316 9
  24539769.049    24539771.135   -17036148.139 9   5522517.050 9
 86  6 13  4 13 17.0800000  0  4G12G13G 9G 7
  21240702.839    21240706.921    -5861074.787 9  11574241.274 8
  21775809.248    21775811.651    32817007.846 9 -32365952.311 8
  24408781.154    24408784.079    82535405.198 8 -92356437.827 9
  24538082.797    24538085.570   -17045005.212 9   5515615.431 9
 86  6 13  4 13 23.0800000  0  4G12G13G 9G 7
  21242649.619    21242653.316    -5850842.522 9  11582214.453 8
  21777536.646    21777540.020    32826085.411 9 -32358878.876 8
  24413526.662    24413531.224    82560338.970 9 -92337008.931 9
  24536400.516    24536403.158   -17053843.912 9   5508728.146 9
 86  6 13  4 13 29.0800000  0  4G12G13G 9G 7
  21244600.891    21244605.343    -5840586.986 9  11590205.785 8
  21779264.984    21779267.883    32835165.619 9 -32351803.384 9
  24418271.263    24418274.257    82585273.302 9 -92317579.569 9
  24534722.426    24534724.630   -17062663.315 9   5501855.889 9
 86  6 13  4 13 35.0800000  0  4G12G13G 9G 7
  21246557.187    21246561.410    -5830308.295 9  11598215.151 8
  21780992.884    21780996.025    32844248.401 9 -32344725.891 9
  24423016.092    24423020.666    82610208.010 8 -92298149.965 9
                  24533051.545                     5495002.455 8
 86  6 13  4 13 41.0800000  0  4G12G13G 9G 7
  21248516.789    21248520.335    -5820006.486 9  11606242.540 8
  21782721.741    21782724.222    32853333.723 9 -32337646.405 9
  24427759.794    24427764.521    82635143.210 8 -92278719.929 8
  24531348.057    24531384.774   -17107815.742 9   5488173.487 8
 86  6 13  4 13 47.0800000  0  4G12G13G 9G 7
  21250481.982    21250486.819    -5809681.606 8  11614287.892 8
  21784451.424    21784454.500    32862421.581 9 -32330564.953 8
  24432506.591    24432509.429    82660078.712 9 -92259289.686 9
  24529720.031    24529722.858   -17116544.038 9   5481372.342 9
 86  6 13  4 13 53.0800000  0  4G12G13G 9G 7
  21252451.656    21252455.247    -5799333.592 9  11622351.282 8
  21786181.156    21786183.841    32871512.004 9 -32323481.509 8
  24437251.053    24437255.057    82685014.632 9 -92239859.105 9
  24528065.871    24528068.038   -17125237.694 9   5474597.667 9
 86  6 13  4 13 59.0800000  0  4G12G13G 9G 7
  21254425.336    21254429.490    -5788962.497 9  11630432.657 8
  21787911.526    21787914.550    32880604.941 9 -32316396.095 8
  24441997.527    24441999.642    82709950.766 9 -92220428.358 9
  24526416.285    24526420.414   -17133902.240 9   5467846.080 9
 86  6 13  4 14  5.0800000  0  4G12G13G 9G 7
  21256403.553    21256406.787    -5778568.246 9  11638532.072 8
  21789642.734    21789645.063    32889700.531 9 -32309308.617 9
  24446741.108    24446745.714    82734887.425 9 -92200997.213 9
  24524772.159    24524776.283   -17142541.604 9   5461114.119 9
 86  6 13  4 14 11.0800000  0  4G12G13G 9G 7
  21258386.205    21258389.698    -5768150.800 9  11646649.546 8
  21791374.493    21791376.761    32898798.761 9 -32302219.086 9
  24451487.188    24451491.415    82759824.335 9 -92181565.853 9
  24523132.612    24523137.149   -17151158.841 9   5454399.391 8
 86  6 13  4 14 17.0800000  0  4G12G13G 9G 7
  21260372.508    21260376.386    -5757710.280 9  11654785.023 8
  21793105.701    21793108.443    32907899.599 9 -32295127.512 8
  24456232.040    24456235.901    82784761.585 9 -92162134.245 9
  24521496.190    24521500.222   -17159756.371 9   5447700.019 9
 86  6 13  4 14 23.0800000  0  4G12G13G 9G 7
  21262363.789    21262367.196    -5747246.666 9  11662938.486 8
  21794838.425    21794840.530    32917002.923 9 -32288033.998 9
  24460978.335    24460983.068    82809699.056 9 -92142702.455 9
  24519864.049    24519866.717   -17168335.394 9   5441015.075 9
 86  6 13  4 14 29.0800000  0  4G12G13G 9G 7
  21264358.561    21264363.328    -5736759.920 8  11671109.964 8
  21796570.308    21796573.506    32926108.798 9 -32280938.501 9
  24465723.942    24465726.424    82834636.985 9 -92123270.325 9
  24518235.566    24518238.277   -17176894.746 9   5434345.455 9
 86  6 13  4 14 35.0800000  0  4G12G13G 9G 7
  21266358.584    21266362.262    -5726250.084 9  11679299.461 8
  21798303.838    21798306.609    32935217.240 9 -32273841.019 8
  24470468.404    24470474.018    82859575.095 9 -92103838.031 9
                  24516614.238                     5427695.145 9
 86  6 13  4 14 41.0800000  0  4G12G13G 9G 7
  21268362.501    21268367.125    -5715717.144 9  11687506.937 8
  21800037.605    21800040.480    32944328.246 9 -32266741.521 9
  24475214.565    24475218.596    82884513.471 9 -92084405.533 9
  24514908.605    24514996.550   -17221786.817 9   5421069.635 9
 86  6 13  4 14 47.0800000  0  4G12G13G 9G 7
  21270372.012    21270376.332    -5705161.289 9  11695732.272 8
  21801771.986    21801774.734    32953441.733 9 -32259640.093 9
  24479961.279    24479964.040    82909451.984 9 -92064972.940 9
  24513381.579    24513384.883   -17230253.756 9   5414472.195 9
 86  6 13  4 14 53.0800000  0  4G12G13G 9G 7
  21272384.828    21272387.978    -5694582.507 8  11703975.482 8
  21803506.436    21803509.489    32962557.669 9 -32252536.757 9
  24484704.177    24484709.813    82934390.713 9 -92045540.168 9
  24511777.108    24511780.520   -17238686.622 9   5407901.130 9
 86  6 13  4 14 59.0800000  0  4G12G13G 9G 7
  21274402.610    21274406.260    -5683980.758 9  11712236.586 9
  21805241.090    21805244.545    32971676.046 9 -32245431.517 9
  24489452.126    24489455.221    82959329.478 9 -92026107.367 9
  24510177.426    24510180.806   -17247089.796 9   5401353.222 9
 86  6 13  4 15  5.0800000  0  4G12G13G 9G 7
  21276424.427    21276428.036    -5673356.118 9  11720515.517 8
  21806977.461    21806980.193    32980796.880 9 -32238324.372 9
  24494197.832    24494202.937    82984268.301 9 -92006674.540 9
  24508583.915    24508587.744   -17255467.928 9   5394824.798 9
 86  6 13  4 15 11.0800000  0  4G12G13G 9G 7
  21278450.136    21278454.043    -5662708.631 9  11728812.258 8
  21808713.514    21808716.602    32989920.179 9 -32231215.299 9
  24498944.534    24498945.247    83009207.023 9 -91987241.760 9
  24506993.138    24506997.218   -17263824.118 9   5388313.488 9
 86  6 13  4 15 17.0800000  0  4G12G13G 9G 7
  21280480.551    21280485.402    -5652038.260 9  11737126.844 8
  21810449.971    21810452.842    32999045.974 9 -32224104.279 9
  24503688.253    24503694.048    83034145.715 8 -91967809.053 9
  24505407.406    24505410.977   -17272160.530 9   5381817.589 9
 86  6 13  4 15 23.0800000  0  4G12G13G 9G 7
  21282514.947    21282519.113    -5641345.053 9  11745459.215 8
  21812186.800    21812189.185    33008174.151 9 -32216991.406 9
  24508432.744    24508436.984    83059084.456 9 -91948376.255 9
  24503824.625    24503828.390   -17280478.528 9   5375336.039 9
 86  6 13  4 15 29.0800000  0  4G12G13G 9G 7
  21284554.749    21284558.942    -5630628.947 9  11753809.420 7
  21813925.257    21813926.810    33017304.884 9 -32209876.541 9
  24513182.225    24513183.195    83084023.118 9 -91928943.532 8
  24502245.773    24502248.152   -17288776.811 9   5368869.848 9
 86  6 13  4 15 35.0800000  0  4G12G13G 9G 7
  21286599.232    21286603.039    -5619890.010 9  11762177.404 8
  21815662.842    21815664.986    33026438.051 9 -32202759.786 9
  24517925.512    24517930.862    83108961.837 9 -91909510.799 9
                  24500674.308                     5362423.458 9
 86  6 13  4 15 41.0800000  0  4G12G13G 9G 7
  21288647.549    21288650.624    -5609128.315 9  11770563.149 8
  21817400.796    21817403.798    33035573.690 9 -32195641.098 8
  24522670.392    24522673.938    83133900.517 8 -91890078.056 8
  24499102.998    24499105.949   -17333401.723 9   5356002.255 9
 86  6 13  4 15 47.0800000  0  4G12G13G 9G 7
  21290698.186    21290703.078    -5598343.777 9  11778966.683 9
  21819140.009    21819143.170    33044711.760 9 -32188520.510 9
  24527416.898    24527422.873    83158839.058 9 -91870645.434 8
  24497541.830    24497544.223   -17341606.315 9   5349609.069 9
 86  6 13  4 15 53.0800000  0  4G12G13G 9G 7
  21292755.632    21292759.537    -5587536.344 9  11787388.071 8
  21820879.079    21820882.326    33053852.393 9 -32181397.939 9
  24532162.801    24532165.531    83183777.615 9 -91851212.815 8
  24495987.006    24495990.108   -17349777.334 9   5343242.427 9
 86  6 13  4 15 59.0800000  0  4G12G13G 9G 7
  21294815.912    21294820.605    -5576706.102 9  11795827.205 8
  21822619.452    21822622.735    33062995.604 9 -32174273.352 8
  24536907.651    24536912.615    83208716.015 8 -91831780.310 9
  24494438.053    24494440.705   -17357918.272 9   5336898.844 9
 86  6 13  4 16  5.0800000  0  4G12G13G 9G 7
  21296881.542    21296884.736    -5565853.096 9  11804284.092 8
  21824359.863    21824361.645    33072141.230 9 -32167146.886 8
  24541654.338    24541655.903    83233654.253 8 -91812347.907 8
  24492893.771    24492896.378   -17366034.149 9   5330574.791 9
 86  6 13  4 16 11.0800000  0  4G12G13G 9G 7
  21298950.809    21298954.502    -5554977.372 9  11812758.678 9
  21826099.922    21826103.464    33081289.249 9 -32160018.547 8
  24546399.911    24546403.188    83258592.366 8 -91792915.625 8
  24491352.681    24491356.425   -17374128.007 9   5324267.886 8
 86  6 13  4 16 17.0800000  0  4G12G13G 9G 7
  21301025.184    21301028.989    -5544078.875 9  11821251.011 8
  21827841.012    21827844.655    33090439.651 9 -32152888.360 9
  24551144.195    24551148.931    83283530.309 8 -91773483.467 8
  24489817.215    24489819.827   -17382201.908 9   5317976.542 9
 86  6 13  4 16 23.0800000  0  4G12G13G 9G 7
  21303103.152    21303107.031    -5533157.722 9  11829761.011 8
  21829582.559    21829586.229    33099592.431 9 -32145756.313 9
  24555892.076    24555895.323    83308467.896 9 -91754051.605 8
  24488284.375    24488287.812   -17390257.168 9   5311699.717 9
 86  6 13  4 16 29.0800000  0  4G12G13G 9G 7
  21305186.437    21305188.757    -5522213.829 8  11838288.713 9
  21831325.214    21831328.114    33108747.654 9 -32138622.370 9
  24560637.447    24560640.038    83333405.304 8 -91734619.864 8
  24486755.220    24486758.548   -17398292.269 9   5305438.600 9
 86  6 13  4 16 35.0800000  0  4G12G13G 9G 7
  21307272.662    21307276.640    -5511247.231 9  11846834.116 8
  21833068.160    21833071.384    33117905.323 9 -32131486.518 8
  24565381.001    24565384.919    83358342.412 7 -91715188.364 7
                  24485233.688                     5299197.596 9
 86  6 13  4 16 41.0800000  0  4G12G13G 9G 7
  21309363.462    21309368.132    -5500258.067 9  11855397.088 8
  21834810.778    21834814.187    33127065.418 9 -32124348.785 8
  24570125.685    24570131.295    83383279.120 8 -91695757.180 8
  24483712.735    24483716.471   -17442659.642 8   5292982.085 9
 86  6 13  4 16 47.0800000  0  4G12G13G 9G 7
  21311459.716    21311463.135    -5489246.277 9  11863977.700 8
  21836555.163    21836557.502    33136227.720 9 -32117209.316 9
  24574870.545    24574874.422    83408215.388 7 -91676326.302 8
  24482202.204    24482205.395   -17450600.172 9   5286794.661 9
 86  6 13  4 16 53.0800000  0  4G12G13G 9G 7
  21313558.674    21313562.524    -5478211.865 9  11872575.947 8
  21838298.595    21838302.161    33145392.341 9 -32110068.052 9
  24579618.186    24579622.425    83433151.388 8 -91656895.712 8
  24480697.896    24480700.036   -17458506.429 9   5280633.553 9
 86  6 13  4 16 59.0800000  0  4G12G13G 9G 7
  21315663.054    21315666.946    -5467154.854 9  11881191.794 8
  21840043.273    21840046.208    33154559.383 9 -32102924.896 9
  24584359.922    24584364.082    83458086.893 7 -91637465.418 8
  24479198.745    24479201.702   -17466383.696 9   5274495.421 8
 86  6 13  4 17  5.0800000  0  4G12G13G 9G 7
  21317771.255    21317775.034    -5456075.254 9  11889825.242 7
  21841788.631    21841790.862    33163728.788 9 -32095779.896 9
  24589106.062    24589113.054    83483021.944 7 -91618035.526 9
  24477704.362    24477707.946   -17474235.865 9   5268376.854 9
 86  6 13  4 17 11.0800000  0  4G12G13G 9G 7
  21319884.208    21319888.244    -5444973.149 9  11898476.224 8
  21843533.179    21843536.432    33172900.517 9 -32088633.095 9
  24593852.684    24593853.681    83507956.508 6 -91598606.020 8
  24476214.850    24476217.383   -17482066.074 9   5262275.395 9
 86  6 13  4 17 17.0800000  0  4G12G13G 9G 7
  21322001.279    21322005.062    -5433848.502 9  11907144.784 9
  21845278.553    21845281.598    33182074.576 9 -32081484.479 9
  24598595.960    24598599.479    83532890.592 6 -91579176.864 8
  24474728.125    24474731.265   -17489876.656 9   5256189.226 9
 86  6 13  4 17 23.0800000  0  4G12G13G 9G 7
  21324122.862    21324126.140    -5422701.372 8  11915830.855 9
  21847025.382    21847027.665    33191251.014 9 -32074334.000 8
  24603339.614    24603345.393    83557824.187 6 -91559748.100 8
  24473245.160    24473249.122   -17497668.368 9   5250117.764 9
 86  6 13  4 17 29.0800000  0  4G12G13G 9G 7
  21326247.576    21326251.799    -5411531.759 9  11924534.453 8
  21848770.949    21848775.073    33200429.767 9 -32067181.712 8
  24608087.776    24608090.156    83582757.263 8 -91540319.771 9
  24471766.958    24471769.577   -17505439.547 9   5244062.307 9
 86  6 13  4 17 35.0800000  0  4G12G13G 9G 7
  21328377.269    21328381.150    -5400339.673 9  11933255.557 8
  21850519.221    21850521.855    33209610.926 9 -32060027.571 9
  24612828.419    24612835.111    83607689.720 7 -91520891.858 6
                  24470295.799                     5238027.305 8
 86  6 13  4 17 41.0800000  0  4G12G13G 9G 7
  21330511.957    21330515.250    -5389125.168 8  11941994.133 9
  21852266.946    21852270.095    33218794.383 9 -32052871.625 9
  24617574.480    24617580.393    83632621.632 6 -91501464.432 8
  24468825.386    24468828.657   -17549547.112 9   5232018.236 9
 86  6 13  4 17 47.0800000  0  4G12G13G 9G 7
  21332650.022    21332653.558    -5377888.174 9  11950750.221 8
  21854013.955    21854017.648    33227980.214 9 -32045713.828 9
  24622318.946    24622320.927    83657553.067 8 -91482037.337 7
  24467364.007    24467366.786   -17557222.496 9   5226037.418 9
 86  6 13  4 17 53.0800000  0  4G12G13G 9G 7
  21334793.223    21334796.875    -5366628.679 9  11959523.851 9
  21855763.548    21855765.877    33237168.524 9 -32038554.101 9
  24627065.901    24627067.350    83682483.892 7 -91462610.726 8
  24465910.113    24465913.216   -17564864.019 9   5220082.983 9
 86  6 13  4 17 59.0800000  0  4G12G13G 9G 7
  21336939.689    21336943.338    -5355346.774 9  11968314.946 9
  21857512.144    21857515.579    33246359.133 9 -32031392.586 9
  24631806.021    24631811.107    83707414.132 7 -91443184.582 7
  24464461.135    24464464.827   -17572476.179 9   5214151.428 9
 86  6 13  4 18  5.0800000  0  4G12G13G 9G 7
  21339090.903    21339094.353    -5344042.381 9  11977123.562 9
  21859260.612    21859264.561    33255552.033 9 -32024229.285 8
  24636554.868    24636555.363    83732343.684 8 -91423758.953 7
  24463017.544    24463020.292   -17580063.372 9   5208239.329 9
 86  6 13  4 18 11.0800000  0  4G12G13G 9G 7
  21341245.595    21341249.803    -5332715.659 9  11985949.577 9
  21861010.271    21861014.205    33264747.270 9 -32017064.160 9
  24641295.217    24641299.387    83757272.593 6 -91404333.846 6
  24461577.410    24461581.941   -17587628.405 9   5202344.503 9
 86  6 13  4 18 17.0800000  0  4G12G13G 9G 7
  21343406.126    21343410.547    -5321366.597 9  11994792.987 9
  21862761.095    21862764.152    33273944.852 9 -32009897.212 9
  24646037.642    24646042.556    83782200.747 7 -91384909.320 7
  24460141.837    24460145.744   -17595173.565 9   5196465.155 9
 86  6 13  4 18 23.0800000  0  4G12G13G 9G 7
  21345569.404    21345573.839    -5309995.180 9  12003653.838 8
  21864512.139    21864514.947    33283144.807 9 -32002728.420 9
  24650781.674    24650785.631    83807128.244 7 -91365485.296 8
  24458709.849    24458713.062   -17602699.765 9   5190600.587 9
 86  6 13  4 18 29.0800000  0  4G12G13G 9G 7
  21347737.072    21347741.338    -5298601.391 9  12012532.105 9
  21866263.629    21866266.337    33292347.145 9 -31995557.758 9
  24655524.996    24655531.505    83832054.903 8 -91346061.969 7
  24457281.224    24457284.153   -17610205.188 9   5184752.209 9
 86  6 13  4 18 35.0800000  0  4G12G13G 9G 7
  21349910.324    21349914.016    -5287185.314 9  12021427.745 8
  21868014.563    21868017.668    33301551.816 9 -31988385.284 8
  24660268.534    24660270.996    83856980.806 8 -91326639.124 7
                  24455862.509                     5178924.672 8
 86  6 13  4 18 41.0800000  0  4G12G13G 9G 7
  21352086.852    21352091.476    -5275746.887 9  12030340.802 8
  21869767.321    21869769.893    33310758.810 9 -31981210.988 8
  24665012.661    24665017.503    83881905.882 8 -91307217.027 8
  24454440.208    24454444.883   -17654047.867 9   5173123.354 9
 86  6 13  4 18 47.0800000  0  4G12G13G 9G 7
  21354268.229    21354271.623    -5264286.240 9  12039271.176 8
  21871519.240    21871522.046    33319968.055 9 -31974034.948 9
  24669753.583    24669757.524    83906830.154 7 -91287795.526 7
  24453030.820    24453036.117   -17661456.541 9   5167350.376 9
 86  6 13  4 18 53.0800000  0  4G12G13G 9G 7
  21356452.814    21356456.635    -5252803.374 9  12048218.867 9
  21873271.990    21873274.482    33329179.571 9 -31966857.143 9
  24674499.684    24674503.037    83931753.523 9 -91268374.723 8
  24451628.245    24451632.411   -17668831.543 9   5161603.626 9
 86  6 13  4 18 59.0800000  0  4G12G13G 9G 7
  21358642.177    21358646.541    -5241298.294 9  12057183.859 8
  21875025.230    21875027.338    33338393.325 9 -31959677.587 9
  24679238.761    24679244.738    83956675.984 9 -91248954.622 8
  24450230.861    24450233.678   -17676177.281 9   5155879.672 9
 86  6 13  4 19  5.0800000  0  4G12G13G 9G 7
  21360835.921    21360839.940    -5229771.031 9  12066166.148 8
  21876780.064    21876781.375    33347609.370 9 -31952496.246 9
  24683984.828    24683987.591    83981597.499 9 -91229535.277 7
  24448837.890    24448840.811   -17683498.034 9   5150175.198 8
 86  6 13  4 19 11.0800000  0  4G12G13G 9G 7
  21363033.710    21363037.290    -5218221.623 9  12075165.682 9
  21878533.594    21878536.945    33356827.645 9 -31945313.169 8
  24688724.525    24688729.181    84006518.171 9 -91210116.573 7
  24447448.468    24447451.996   -17690796.744 9   5144487.882 9
 86  6 13  4 19 17.0800000  0  4G12G13G 9G 7
  21365236.196    21365238.786    -5206650.005 9  12084182.514 9
  21880288.404    21880290.651    33366048.233 9 -31938128.297 9
  24693467.293    24693470.037    84031437.832 8 -91190698.647 7
  24446063.779    24446067.327   -17698075.538 9   5138816.089 9
 86  6 13  4 19 23.0800000  0  4G12G13G 9G 7
  21367442.399    21367445.663    -5195056.280 9  12093216.584 8
  21882043.246    21882045.729    33375271.059 9 -31930941.673 9
  24698208.970    24698213.167    84056356.407 9 -91171281.575 7
  24444681.528    24444685.546   -17705335.343 9   5133159.099 9
 86  6 13  4 19 29.0800000  0  4G12G13G 9G 7
  21369653.027    21369656.205    -5183440.448 9  12102267.880 9
  21883798.514    21883802.127    33384496.188 9 -31923753.247 9
  24702950.037    24702955.752    84081274.027 8 -91151865.278 8
  24443304.555    24443308.069   -17712574.179 9   5127518.427 9
 86  6 13  4 19 35.0800000  0  4G12G13G 9G 7
  21371866.816    21371871.354    -5171802.513 9  12111336.392 8
  21885554.832    21885557.272    33393723.526 9 -31916563.114 9
  24707691.908    24707695.901    84106190.533 9 -91132449.800 7
                  24441935.552                     5121899.054 9
 86  6 13  4 19 41.0800000  0  4G12G13G 9G 7
  21374085.540    21374090.022    -5160142.462 9  12120422.149 9
  21887311.094    21887314.308    33402953.117 9 -31909371.221 8
  24712433.849    24712437.787    84131106.003 9 -91113035.163 9
  24440567.016    24440568.628   -17756147.040 9   5116306.343 9
 86  6 13  4 19 47.0800000  0  4G12G13G 9G 7
  21376308.529    21376313.725    -5148460.276 8  12129525.155 9
  21889067.547    21889070.931    33412184.978 9 -31902177.557 8
  24717175.076    24717176.676    84156020.359 9 -91093621.381 8
  24439208.209    24439210.673   -17763287.987 9   5110741.962 9
 86  6 13  4 19 53.0800000  0  4G12G13G 9G 7
  21378536.054    21378540.235    -5136756.033 9  12138645.331 9
  21890824.875    21890827.865    33421419.016 9 -31894982.201 8
  24721916.722    24721921.338    84180933.547 9 -91074208.490 8
  24437855.979    24437858.228   -17770395.285 9   5105203.812 9
 86  6 13  4 19 59.0800000  0  4G12G13G 9G 7
  21380767.158    21380770.725    -5125029.740 9  12147782.703 9
  21892582.269    21892584.958    33430655.224 9 -31887785.147 8
  24726656.984    24726656.580    84205845.705 9 -91054796.450 9
  24436508.924    24436511.596   -17777473.487 9   5099688.323 9
 86  6 13  4 20  5.0800000  0  4G12G13G 9G 7
  21383003.172    21383007.336    -5113281.461 9  12156937.203 8
  21894340.125    21894343.402    33439893.649 9 -31880586.376 9
  24731396.352    24731402.726    84230756.561 9 -91035385.374 9
  24435166.847    24435169.315   -17784526.836 9   5094192.223 9
 86  6 13  4 20 11.0800000  0  4G12G13G 9G 7
  21385242.461    21385246.895    -5101511.283 9  12166108.760 8
  21896098.720    21896101.843    33449134.290 9 -31873385.875 9
  24736137.747    24736137.516    84255666.304 9 -91015975.195 8
  24433828.572    24433830.772   -17791558.226 9   5088713.238 9
 86  6 13  4 20 17.0800000  0  4G12G13G 9G 7
  21387487.527    21387491.178    -5089719.117 8  12175297.464 8
  21897857.610    21897860.672    33458377.107 9 -31866183.681 8
  24740876.314    24740882.273    84280574.768 9 -90996566.013 9
  24432494.555    24432496.354   -17798569.597 9   5083249.825 8
 86  6 13  4 20 23.0800000  0  4G12G13G 9G 7
  21389734.958    21389739.351    -5077904.950 9  12184503.317 9
  21899617.228    21899620.302    33467622.096 9 -31858979.793 9
  24745616.185    24745619.635    84305482.040 9 -90977157.770 8
  24431163.925    24431166.458   -17805561.789 9   5077801.378 9
 86  6 13  4 20 29.0800000  0  4G12G13G 9G 7
  21391987.510    21391991.018    -5066068.839 9  12193726.260 9
  21901376.081    21901379.921    33476869.369 9 -31851774.126 9
  24750355.862    24750360.222    84330388.040 9 -90957750.453 9
  24429837.555    24429839.378   -17812532.560 9   5072369.616 9
 86  6 13  4 20 35.0800000  0  4G12G13G 9G 7
  21394244.055    21394248.034    -5054210.780 9  12202966.302 8
  21903137.158    21903139.559    33486118.806 9 -31844566.771 8
  24755094.872    24755099.827    84355292.748 9 -90938344.265 9
                  24428518.656                     5066959.497 9
 86  6 13  4 20 41.0800000  0  4G12G13G 9G 7
  21396505.022    21396508.655    -5042330.808 9  12212223.421 8
  21904897.308    21904899.842    33495370.458 9 -31837357.691 8
  24759834.076    24759835.447    84380196.058 9 -90918939.021 8
  24427201.382    24427203.654   -17855848.699 9   5061576.123 9
 86  6 13  4 20 47.0800000  0  4G12G13G 9G 7
  21398770.095    21398773.459    -5030428.981 9  12221497.566 8
  21906658.332    21906661.256    33504624.240 9 -31830146.955 9
  24764571.936    24764577.652    84405098.182 9 -90899534.803 8
  24425894.793    24425895.657   -17862720.789 9   5056221.280 9
 86  6 13  4 20 53.0800000  0  4G12G13G 9G 7
  21401038.472    21401042.381    -5018505.285 9  12230788.758 9
  21908419.826    21908422.619    33513880.239 9 -31822934.487 8
  24769312.823    24769315.646    84429998.818 9 -90880131.715 9
  24424592.262    24424594.557   -17869559.796 9   5050892.575 9
 86  6 13  4 20 59.0800000  0  4G12G13G 9G 7
  21403311.802    21403315.824    -5006559.772 9  12240096.946 8
  21910181.353    21910184.929    33523138.448 9 -31815720.295 9
  24774049.981    24774053.527    84454898.176 9 -90860729.628 8
  24423296.233    24423299.613   -17876369.281 9   5045586.487 9
 86  6 13  4 21  5.0800000  0  4G12G13G 9G 7
  21405588.623    21405592.187    -4994592.484 9  12249422.099 9
  21911943.542    21911946.918    33532398.881 9 -31808504.375 8
  24778786.380    24778790.233    84479796.135 9 -90841328.601 9
  24422005.464    24422009.073   -17883153.856 9   5040299.806 9
 86  6 13  4 21 11.0800000  0  4G12G13G 9G 7
  21407871.024    21407873.875    -4982603.430 9  12258764.228 8
  21913705.711    21913708.836    33541661.484 9 -31801286.762 8
  24783524.963    24783530.010    84504692.617 9 -90821928.780 8
  24420718.393    24420722.587   -17889916.328 9   5035030.361 9
 86  6 13  4 21 17.0800000  0  4G12G13G 9G 7
  21410156.676    21410159.509    -4970592.588 9  12268123.325 9
  21915469.507    21915471.595    33550926.283 9 -31794067.430 9
  24788262.916    24788264.023    84529587.693 9 -90802529.995 9
  24419435.603    24419438.604   -17896658.919 9   5029776.395 9
 86  6 13  4 21 23.0800000  0  4G12G13G 9G 7
  21412445.674    21412449.038    -4958559.988 9  12277499.368 8
  21917233.025    21917236.471    33560193.323 9 -31786846.364 9
  24792998.850    24793005.137    84554481.259 9 -90783132.420 9
  24418155.582    24418158.962   -17903382.236 9   5024537.455 9
 86  6 13  4 21 29.0800000  0  4G12G13G 9G 7
  21414740.336    21414743.372    -4946505.639 9  12286892.365 8
  21918996.870    21918999.535    33569462.515 8 -31779623.608 8
  24797737.303    24797740.708    84579373.271 9 -90763736.084 8
  24416880.461    24416883.641   -17910083.670 9   5019315.552 8
 86  6 13  4 21 35.0800000  0  4G12G13G 9G 7
  21417037.505    21417041.228    -4934429.562 9  12296302.289 8
  21920760.678    21920763.249    33578733.771 9 -31772399.247 8
  24802472.615    24802475.380    84604263.720 9 -90744340.886 9
                  24415614.633                     5014115.676 8
 86  6 13  4 21 41.0800000  0  4G12G13G 9G 7
  21419339.795    21419344.378    -4922331.736 9  12305729.163 8
  21922525.566    21922527.803    33588007.193 9 -31765173.202 9
  24807209.559    24807214.171    84629152.739 9 -90724946.880 9
  24414347.137    24414350.675   -17953127.292 9   5008942.859 9
 86  6 13  4 21 47.0800000  0  4G12G13G 9G 7
  21421645.724    21421650.217    -4910212.205 9  12315172.952 9
  21924290.409    21924293.699    33597282.781 9 -31757945.474 9
  24811944.694    24811948.081    84654040.106 9 -90705554.115 9
  24413091.036    24413095.380   -17959729.086 9   5003798.618 8
 86  6 13  4 21 53.0800000  0  4G12G13G 9G 7
  21423956.886    21423960.779    -4898071.069 9  12324633.572 9
  21926056.044    21926059.157    33606560.516 9 -31750716.069 9
  24816680.834    24816684.804    84678925.939 9 -90686162.576 9
  24411840.435    24411844.057   -17966297.442 9   4998680.422 9
 86  6 13  4 21 59.0800000  0  4G12G13G 9G 7
  21426270.439    21426274.805    -4885908.309 9  12334111.056 9
  21927821.979    21927825.161    33615840.332 9 -31743485.031 8
  24821416.299    24821419.157    84703810.007 9 -90666772.377 9
  24410595.857    24410600.394   -17972837.016 9   4993584.651 9
 86  6 13  4 22  5.0800000  0  4G12G13G 9G 7
  21428589.614    21428593.408    -4873723.938 8  12343605.372 8
  21929588.485    21929590.457    33625122.254 9 -31736252.367 9
  24826150.780    24826155.678    84728692.453 9 -90647383.493 9
  24409356.350    24409360.490   -17979351.845 9   4988508.172 9
 86  6 13  4 22 11.0800000  0  4G12G13G 9G 7
  21430912.066    21430916.677    -4861518.047 9  12353116.446 8
  21931355.229    21931357.746    33634406.342 9 -31729018.003 8
  24830886.500    24830888.523    84753573.118 9 -90627995.958 9
  24408120.807    24408124.837   -17985844.595 9   4983448.884 8
 86  6 13  4 22 17.0800000  0  4G12G13G 9G 7
  21433239.026    21433242.750    -4849290.609 9  12362644.316 8
  21933122.708    21933124.952    33643692.574 9 -31721781.977 9
  24835618.794    24835624.458    84778452.136 9 -90608609.693 9
  24406889.520    24406893.684   -17992317.308 9   4978405.211 9
 86  6 13  4 22 23.0800000  0  4G12G13G 9G 7
  21435570.038    21435573.429    -4837041.593 9  12372188.996 9
  21934889.330    21934891.976    33652980.855 9 -31714544.356 9
  24840354.049    24840358.474    84803329.297 9 -90589224.934 9
  24405661.425    24405665.557   -17998770.604 9   4973376.671 9
 86  6 13  4 22 29.0800000  0  4G12G13G 9G 7
  21437904.940    21437908.461    -4824771.029 8  12381750.470 9
  21936657.431    21936659.815    33662271.199 9 -31707305.120 9
  24845087.213    24845091.105    84828204.762 9 -90569841.449 9
  24404437.439    24404440.964   -18005201.852 9   4968365.320 9
 86  6 13  4 22 35.0800000  0  4G12G13G 9G 7
  21440243.777    21440248.271    -4812478.965 9  12391328.698 8
  21938426.022    21938428.403    33671563.701 9 -31700064.211 9
  24849821.438    24849824.814    84853078.449 9 -90550459.364 9
                  24403222.770                     4963376.354 8
 86  6 13  4 22 41.0800000  0  4G12G13G 9G 7
  21442587.193    21442591.430    -4800165.396 8  12400923.683 9
  21940194.978    21940197.193    33680858.277 9 -31692821.676 9
  24854555.064    24854556.113    84877950.252 9 -90531078.709 9
  24402006.866    24402011.361   -18047971.256 9   4958414.255 9
 86  6 13  4 22 47.0800000  0  4G12G13G 9G 7
  21444934.501    21444938.309    -4787830.391 9  12410535.380 9
  21941963.484    21941966.085    33690154.868 9 -31685577.569 9
  24859284.195    24859291.153    84902820.279 9 -90511699.503 9
  24400802.765    24400806.746   -18054302.624 9   4953481.624 9
 86  6 13  4 22 53.0800000  0  4G12G13G 9G 7
  21447285.829    21447289.996    -4775473.926 9  12420163.787 9
  21943733.334    21943735.275    33699453.604 9 -31678331.810 9
  24864019.349    24864022.280    84927688.419 9 -90492321.749 9
  24399604.170    24399608.005   -18060600.100 9   4948574.497 9
 86  6 13  4 22 59.0800000  0  4G12G13G 9G 7
  21449641.580    21449645.289    -4763096.053 9  12429808.882 9
  21945503.038    21945505.723    33708754.473 9 -31671084.373 9
  24868748.567    24868755.160    84952554.660 9 -90472945.439 9
  24398411.087    24398414.364   -18066868.885 9   4943689.741 9
 86  6 13  4 23  5.0800000  0  4G12G13G 9G 7
  21452000.377    21452005.043    -4750696.709 9  12439470.708 9
  21947273.445    21947276.093    33718057.427 9 -31663835.314 9
  24873482.983    24873486.695    84977418.927 8 -90453570.708 9
  24397223.625    24397226.017   -18073112.981 9   4938824.215 8
 86  6 13  4 23 11.0800000  0  4G12G13G 9G 7
  21454364.328    21454368.321    -4738275.956 8  12449149.218 8
  21949044.015    21949046.935    33727362.590 9 -31656584.539 9
  24878212.801    24878216.834    85002281.329 8 -90434197.387 8
  24396039.842    24396042.713   -18079334.897 9   4933975.981 9
 86  6 13  4 23 17.0800000  0  4G12G13G 9G 7
  21456732.427    21456735.806    -4725833.889 9  12458844.326 8
  21950815.089    21950817.725    33736669.770 9 -31649332.189 9
  24882943.878    24882947.495    85027141.885 8 -90414825.558 9
  24394859.804    24394861.550   -18085536.739 9   4929143.364 9
 86  6 13  4 23 23.0800000  0  4G12G13G 9G 7
  21459104.190    21459107.982    -4713370.458 9  12468556.083 9
  21952587.143    21952589.098    33745978.976 9 -31642078.263 9
  24887673.970    24887678.094    85052000.430 9 -90395455.240 9
  24393683.641    24393685.607   -18091718.923 9   4924326.086 9
 86  6 13  4 23 29.0800000  0  4G12G13G 9G 7
  21461479.456    21461483.766    -4700885.673 9  12478284.483 9
  21954358.850    21954361.637    33755290.273 9 -31634822.702 9
  24892406.033    24892408.308    85076857.039 9 -90376086.479 9
  24392511.500    24392513.507   -18097878.659 9   4919526.293 9
 86  6 13  4 23 35.0800000  0  4G12G13G 9G 7
  21463859.005    21463863.384    -4688379.564 9  12488029.501 9
  21956131.244    21956133.454    33764603.629 9 -31627565.550 9
  24897135.248    24897137.536    85101711.552 7 -90356719.324 9
                  24391346.698                     4914749.298 8
 86  6 13  4 23 41.0800000  0  4G12G13G 9G 7
  21466243.058    21466246.923    -4675852.151 9  12497791.118 8
  21957903.960    21957906.185    33773919.065 9 -31620306.755 9
  24901862.570    24901867.754    85126564.069 8 -90337353.769 8
  24390185.479    24390187.398   -18140381.836 9   4909999.815 9
 86  6 13  4 23 47.0800000  0  4G12G13G 9G 7
  21468630.618    21468634.870    -4663303.462 8  12507569.312 8
  21959676.743    21959679.313    33783236.590 9 -31613046.354 9
  24906592.010    24906595.467    85151414.472 8 -90317989.790 9
  24389032.153    24389032.821   -18146440.377 9   4905278.885 8
 86  6 13  4 23 53.0800000  0  4G12G13G 9G 7
  21471024.001    21471027.109    -4650733.512 9  12517364.080 8
  21961449.545    21961452.400    33792556.269 9 -31605784.262 9
  24911320.767    24911325.036    85176262.765 8 -90298627.493 9
  24387885.419    24387887.261   -18152465.025 9   4900583.978 9
 86  6 13  4 23 59.0800000  0  4G12G13G 9G 7
  21473419.133    21473422.870    -4638142.339 9  12527175.379 8
  21963223.496    21963226.572    33801877.994 9 -31598520.577 9
  24916045.549    24916052.029    85201109.026 8 -90279266.801 9
  24386744.611    24386746.580   -18158461.597 9   4895911.330 8
 86  6 13  4 24  5.0800000  0  4G12G13G 9G 7
  21475819.354    21475823.090    -4625529.952 9  12537003.210 9
  21964997.783    21965001.380    33811201.749 9 -31591255.298 8
  24920779.450    24920779.718    85225953.072 9 -90259907.779 9
  24385608.267    24385609.512   -18164433.389 9   4891257.995 8
 86  6 13  4 24 11.0800000  0  4G12G13G 9G 7
  21478223.142    21478227.150    -4612896.334 8  12546847.582 8
  21966772.438    21966776.261    33820527.629 9 -31583988.384 8
  24925503.647    24925508.716    85250795.007 7 -90240550.456 9
  24384476.266    24384478.576   -18170383.092 9   4886621.864 9
 86  6 13  4 24 17.0800000  0  4G12G13G 9G 7
  21480631.649    21480635.041    -4600241.504 8  12556708.484 8
  21968547.808    21968549.990    33829855.537 9 -31576719.884 9
  24930231.400    24930233.840    85275634.864 7 -90221194.724 9
  24383348.176    24383348.865   -18176312.641 9   4882001.441 9
 86  6 13  4 24 23.0800000  0  4G12G13G 9G 7
  21483043.422    21483047.314    -4587565.487 8  12566585.900 7
  21970322.422    21970325.303    33839185.570 9 -31569449.724 9
  24934957.865    24934962.712    85300472.418 8 -90201840.791 9
  24382223.674    24382224.280   -18182222.362 9   4877396.475 8
 86  6 13  4 24 29.0800000  0  4G12G13G 9G 7
  21485460.200    21485463.990    -4574868.320 9  12576479.802 8
  21972099.231    21972101.761    33848517.655 9 -31562177.968 9
  24939683.030    24939687.301    85325307.751 7 -90182488.610 8
  24381102.778    24381104.853   -18188109.318 9   4872809.235 8
 86  6 13  4 24 35.0800000  0  4G12G13G 9G 7
  21487880.283    21487883.535    -4562150.087 9  12586390.098 8
  21973875.345    21973878.077    33857851.748 9 -31554904.643 9
  24944405.632    24944411.370    85350141.005 6 -90163137.992 9
                  24379990.234                     4868245.187 8
